     2              OBSERVATION DATA    GPS                 RINEX VERSION / TYPE
ASHTORIN USGS 23 - OCT - 92 13:57                           PGM / RUN BY / DATE
                                                            COMMENT
Original Marker Name: saec Sawmill_Ecc_1973_NCER            COMMENT
Campaign Name: USGS-Tejon Monit.                            COMMENT
4-Character Station Name: SAEC                              COMMENT
6-Character Antenna Code: ASHL12                            COMMENT
Vertical Measurement Point: BBE                             COMMENT
Vertical Offset to Rinex Ref. Point: 0.0595                 COMMENT
Radial Measurement Point: EGP                               COMMENT
Radial Offset to Rinex Ref. Point: 0.1424                   COMMENT
Antenna Height from Field Measurement: 1.3440 m             COMMENT
Additional Antenna Identification Info.:                    COMMENT
Original Ashtech L1/L2                                      COMMENT
Original XYZ: -2610614.4100 -4466246.9800 3719221.8000      COMMENT
New XYZ position is based on association with SCEC monument COMMENT
E1E9M1W6+0051. Position of that monument is believed to be  COMMENT
valid to within 1 m horizontally; vertical accuracy         COMMENT
should be no worse than 3-times this value.                 COMMENT
                                                            COMMENT
Revised Rinex header created by UCSD GPS archive for        COMMENT
GSAC on 11-Nov-1999 (1999:315) 03:26:24 GMT                 COMMENT
For assistance contact dagnew@ucsd.edu or hjohnson@ucsd.edu COMMENT
                                                            COMMENT
SAEC SAWMILL_ECC_1973_NCER                                  MARKER NAME
                                                            MARKER NUMBER
GDH US GEOLOGICAL SURVEY                                    OBSERVER / AGENCY
763 ASHTECH L-XII 6M24                                      REC # / TYPE / VERS
718 ASHTECH GEODETIC L                                      ANT # / TYPE
 -2510616.0000 -4612186.0000  3610872.0000                  APPROX POSITION XYZ
        1.2769        0.0000        0.0000                  ANTENNA: DELTA H/E/N
     1     2     0                                          WAVELENGTH FACT L1/2
     4    L1    L2    C1    D1                              # / TYPES OF OBSERV
    30                                                      INTERVAL
  1992    10    20    17     3    0.000000                  TIME OF FIRST OBS
  1992    10    21     0     1   30.000000                  TIME OF LAST OBS
    13                                                      # OF SATELLITES
           3   514   514   514   514                        PRN / # OF OBS
          11   385   385   385   385                        PRN / # OF OBS
          12   238   238   238   238                        PRN / # OF OBS
          15   150   150   150   150                        PRN / # OF OBS
          16   210   210   210   210                        PRN / # OF OBS
          17   683   683   683   683                        PRN / # OF OBS
          20   224   224   224   224                        PRN / # OF OBS
          21   650   650   650   650                        PRN / # OF OBS
          23   762   762   762   762                        PRN / # OF OBS
          24     7     7     7     7                        PRN / # OF OBS
          25   199   199   199   199                        PRN / # OF OBS
          26   440   440   440   440                        PRN / # OF OBS
                                                            END OF HEADER
 92 10 20 17  3  0.0000000  0  3  3 16 17                            0.000272920
    -44773.63217    -80111.31615  30074709.442       -1471.205
  16539126.50918    116643.12111  29710180.192        1790.981
  -1237486.28116   -105055.61014  30359108.459       -1765.491
 92 10 20 17  3 30.0000000  0  3  3 16 17                            0.000247200
      -441.86617   -114497.38011  20772744.049       -1462.962
       889.73618    158761.45611  20426898.923        1814.213
      -352.45016   -146272.72611  21055478.346       -1751.118
 92 10 20 17  4  0.0000000  0  5 20  3 24 16 17                      0.000615650
   5090342.07118    151553.74012  22011498.978        2127.630
       298.91617   -148646.25214  22862950.829       -1459.047
     72656.97515    177576.13111  25683750.372        3080.971
       617.52517    201364.81211  22535853.232        1833.036
       497.12016   -187074.79511  23144056.820       -1740.911
 92 10 20 17  4 30.0000000  0  5 20  3 24 16 17                      0.000622270
   5154463.310 8    201519.602 3  21124323.356        2146.971
    -43412.071 7   -182706.771 5  21955256.043       -1454.618
    165095.215 5    249605.845 2  24801962.779        3081.309
     55891.151 8    244439.619 1  21646993.249        1851.777
    -51575.513 6   -227652.094 1  22234770.699       -1730.032
 92 10 20 17  5  0.0000000  0  5 20  3 24 16 17                      0.000628930
   5219140.253 8    251917.315 6  21136630.893        2164.755
    -87003.708 7   -216674.299 5  21946961.245       -1451.727
    257527.846 5    321631.061 2  24819552.001        3080.601
    111709.607 8    287949.644 1  21657615.555        1869.401
   -103336.963 6   -267981.149 1  22224920.557       -1720.834
 92 10 20 17  5 30.0000000  0  5 20  3 24 16 17                      0.000635590
   5284336.747 8    302719.722 7  21149037.346        2182.323
   -130519.759 7   -250582.906 6  21938680.668       -1448.832
    349922.285 5    393626.619 4  24837133.823        3079.910
    168042.555 8    331843.860 1  21668335.492        1886.835
   -154835.848 6   -308110.503 1  22215121.390       -1711.785
 92 10 20 17  6  0.0000000  0  5 20  3 24 16 17                      0.000642270
   5350074.141 8    353943.656 8  21161547.105        2199.970
   -173936.098 7   -284413.795 6  21930418.229       -1445.937
    442323.420 5    465627.284 4  24854717.425        3079.998
    224911.393 8    376137.829 1  21679157.591        1904.182
   -206062.279 6   -348030.515 4  22205373.060       -1703.542
 92 10 20 17  6 30.0000000  0  5 20  3 24 16 17                      0.000648970
   5416332.888 8    405573.800 8  21174155.538        2217.071
   -217269.056 7   -318179.757 6  21922172.425       -1443.363
    534725.799 5    537628.963 5  24872300.018        3079.956
    282289.430 8    420861.282 1  21690076.442        1920.879
   -257054.525 7   -387764.761 5  22195669.887       -1696.257
 92 10 20 17  7  0.0000000  0  5 20  3 24 16 17                      0.000655670
   5483094.292 8    457595.641 9  21186859.671        2234.053
   -260534.688 7   -351893.184 6  21913939.157       -1440.798
    627108.978 5    609615.695 5  24889880.181        3079.122
    340165.236 8    465953.969 1  21701089.739        1937.760
   -307839.340 6   -427337.304 5  22186006.098       -1689.012
 92 10 20 17  7 30.0000000  0  5 20  3 26 16 17                      0.000662470
   5550372.734 8    510020.362 9  21199662.478        2251.173
   -303715.176 7   -385540.330 6  21905722.293       -1438.070
   -181507.47815   -139273.50811  24503867.596       -2111.365
    398546.691 8    511443.603 1  21712199.627        1954.261
   -358399.559 7   -466734.858 6  22176384.891       -1681.643
 92 10 20 17  8  0.0000000  0  5 20  3 26 16 17                      0.000669110
   5618172.620 8    562851.410 9  21212564.427        2268.682
   -346802.931 7   -419115.193 6  21897523.139       -1434.758
   -244800.118 5   -188594.155 1  24491822.748       -2108.073
    457432.612 8    557324.271 1  21723405.069        1971.367
   -408727.866 7   -505951.690 6  22166807.720       -1673.548
 92 10 20 17  8 30.0000000  0  5 20  3 26 16 17                      0.000675760
   5686485.569 8    616082.237 9  21225563.919        2285.720
   -389803.693 7   -452622.261 7  21889340.185       -1431.882
   -308003.568 5   -237843.423 2  24479796.835       -2105.343
    516826.116 8    603607.385 5  21734707.434        1988.476
   -458807.939 7   -544975.095 6  22157277.686       -1664.970
 92 10 20 17  9  0.0000000  0  5 20  3 26 16 17                      0.000682410
   5755312.577 8    669713.625 9  21238661.193        2302.667
   -432712.809 7   -486057.957 7  21881174.988       -1428.971
   -371128.155 5   -287031.333 3  24467785.087       -2103.103
    576738.534 7    650292.352 6  21746108.154        2005.505
   -508620.961 6   -583790.434 6  22147798.288       -1656.023
 92 10 20 17  9 30.0000000  0  5 20  3 26 16 17                      0.000689040
   5824649.340 8    723742.217 9  21251855.745        2319.699
   -475531.487 7   -519423.150 7  21873026.578       -1425.864
   -434177.377 5   -336160.561 4  24455786.361       -2100.201
    637160.030 8    697374.015 6  21757606.133        2022.635
   -558161.613 6   -622393.515 6  22138370.985       -1646.680
 92 10 20 17 10  0.0000000  0  5 20  3 26 16 17                      0.000695690
   5894495.329 8    778167.630 9  21265147.194        2336.198
   -518257.376 7   -552716.042 7  21864896.276       -1423.214
   -497146.952 5   -385227.700 5  24443803.092       -2098.103
    698099.393 7    744859.191 7  21769202.655        2039.422
   -607417.706 6   -660774.851 7  22128997.605       -1637.561
 92 10 20 17 10 30.0000000  0  5 20  3 26 16 17                      0.000702330
   5964845.203 8    832985.654 9  21278534.688        2353.786
   -560892.055 7   -585937.859 7  21856783.055       -1419.273
   -560039.882 5   -434235.142 5  24431834.752       -2094.795
    759546.385 8    792739.919 7  21780895.489        2056.911
   -656391.740 7   -698936.403 7  22119677.596       -1627.547
 92 10 20 17 11  0.0000000  0  5 20  3 26 16 17                      0.000708990
   6035724.799 8    888216.464 9  21292022.360        2371.432
   -603406.566 7   -619066.041 7  21848692.634       -1415.200
   -622820.723 5   -483155.208 5  24419888.265       -2090.610
    821511.002 7    841024.015 7  21792686.967        2074.024
   -705074.314 7   -736870.860 7  22110413.666       -1617.836
 92 10 20 17 11 30.0000000  0  5 20  3 26 16 17                      0.000715690
   6107135.157 8    943860.858 9  21305611.428        2389.188
   -645796.618 7   -652097.240 7  21840626.039       -1410.995
   -685466.522 5   -531970.018 5  24407966.541       -2085.757
    883997.929 7    889715.088 7  21804577.486        2091.837
   -753459.808 7   -774573.805 7  22101206.832       -1607.774
 92 10 20 17 12  0.0000000  0  5 20  3 26 16 17                      0.000722400
   6179070.246 8    999914.121 9  21319300.504        2406.404
   -688064.858 7   -685033.524 7  21832582.607       -1407.161
   -747983.408 5   -580684.477 5  24396069.751       -2082.028
    947008.597 7    938814.273 7  21816567.945        2108.692
   -801551.873 7   -812048.131 7  22092054.677       -1598.451
 92 10 20 17 12 30.0000000  0  5 20  3 26 16 17                      0.000729150
   6251526.665 7   1056373.620 9  21333088.351        2423.816
   -730211.273 7   -717874.887 7  21824562.370       -1402.927
   -810374.783 5   -629301.037 5  24384197.619       -2077.792
   1010529.584 8    988311.106 8  21828655.627        2125.861
   -849362.453 7   -849303.108 7  22082956.868       -1589.194
 92 10 20 17 13  0.0000000  0  5 20  3 26 16 17                      0.000735890
   6324499.359 7   1113235.421 9  21346974.128        2441.162
   -772236.993 7   -750622.186 7  21816565.417       -1398.792
   -872647.202 5   -677824.839 5  24372347.010       -2073.663
   1074559.796 8   1038204.755 8  21840840.450        2143.075
   -896899.652 7   -886345.043 7  22073911.178       -1579.732
 92 10 20 17 13 30.0000000  0  5 20  3 26 16 17                      0.000742640
   6397993.258 8   1170503.348 9  21360959.525        2458.496
   -814134.473 7   -783269.574 7  21808592.536       -1394.455
   -934799.417 5   -726255.079 5  24360519.231       -2069.792
   1139110.604 7   1088504.047 8  21853123.838        2160.316
   -944150.260 7   -923163.691 7  22064919.824       -1570.242
 92 10 20 17 14  0.0000000  0  5 20  3 26 16 17                      0.000749390
   6472010.596 7   1228179.135 9  21375044.964        2475.697
   -855897.785 7   -815812.419 7  21800645.228       -1390.227
   -996829.452 5   -774590.079 5  24348716.093       -2065.731
   1204174.226 8   1139202.913 8  21865505.186        2176.846
   -991112.275 7   -959757.457 7  22055982.660       -1560.881
 92 10 20 17 14 30.0000000  0  5 20  3 26 16 17                      0.000756160
   6546541.758 8   1286255.323 9  21389228.115        2492.524
   -897533.135 7   -848255.535 7  21792722.142       -1386.172
  -1058729.110 5   -822823.438 5  24336937.784       -2061.452
   1269736.968 7   1190290.723 8  21877981.540        2193.559
  -1037793.159 7   -996132.153 7  22047099.791       -1551.539
 92 10 20 17 15  0.0000000  0  5 20  3 26 16 17                      0.000762950
   6621574.905 8   1344722.660 9  21403505.970        2509.890
   -939048.570 7   -880605.212 7  21784821.972       -1381.556
  -1120490.880 5   -870949.374 5  24325184.150       -2055.766
   1335796.757 8   1241765.847 8  21890552.087        2210.766
  -1084183.528 7  -1032280.473 7  22038272.193       -1540.881
 92 10 20 17 15 30.0000000  0  5 20  3 26 16 17                      0.000769790
   6697123.643 7   1403591.766 9  21417882.579        2526.633
   -980427.245 7   -912848.338 7  21776947.784       -1377.322
  -1182078.444 5   -918939.536 5  24313463.497       -2050.148
   1402375.830 7   1293645.617 8  21903221.776        2227.641
  -1130251.769 7  -1068177.809 7  22029504.763       -1530.368
 92 10 20 17 16  0.0000000  0  5 20  3 26 16 17                      0.000776700
   6773180.803 8   1462857.032 9  21432355.528        2543.733
  -1021672.706 7   -944987.665 7  21769098.627       -1372.728
  -1243489.221 5   -966791.932 5  24301777.189       -2043.959
   1469465.269 7   1345923.080 8  21915988.707        2244.833
  -1175995.525 7  -1103822.271 7  22020800.286       -1519.450
 92 10 20 17 16 30.0000000  0  5 20  3 26 16 17                      0.000783660
   6849744.441 7   1522516.976 9  21446925.293        2560.794
  -1062783.397 7   -977021.939 7  21761275.572       -1367.955
  -1304717.168 5  -1014501.834 5  24290125.177       -2037.684
   1537068.927 7   1398601.219 8  21928853.251        2262.392
  -1221426.468 7  -1139222.985 7  22012155.284       -1508.992
 92 10 20 17 17  0.0000000  0  5 20  3 26 16 17                      0.000790660
   6926808.667 7   1582566.958 9  21461590.270        2577.021
  -1103761.434 7  -1008952.880 7  21753477.941       -1363.907
  -1365775.428 5  -1062079.589 5  24278505.887       -2032.644
   1605187.780 7   1451680.801 8  21941816.079        2279.035
  -1266557.568 7  -1174390.075 7  22003567.088       -1499.757
 92 10 20 17 17 30.0000000  0  5 20  3 26 16 17                      0.000797670
   7004372.429 8   1643006.191 9  21476349.912        2594.071
  -1144604.420 7  -1040778.601 7  21745705.442       -1358.917
  -1426678.461 5  -1109536.313 5  24266916.753       -2027.352
   1673812.938 7   1505154.918 8  21954874.398        2295.968
  -1311415.498 7  -1209344.296 7  21995031.206       -1490.678
 92 10 20 17 18  0.0000000  0  5 20  3 26 16 17                      0.000804670
   7082440.668 7   1703838.541 9  21491205.829        2610.878
  -1185303.164 7  -1072491.869 7  21737960.883       -1354.137
  -1487424.513 5  -1156870.705 5  24255357.197       -2021.919
   1742935.765 7   1559016.856 8  21968028.551        2312.603
  -1356018.691 7  -1244100.015 7  21986543.603       -1482.636
 92 10 20 17 18 30.0000000  0  5 20  3 26 16 17                      0.000811640
   7161002.656 7   1765055.627 9  21506155.450        2626.930
  -1225865.022 7  -1104098.532 7  21730242.626       -1349.830
  -1548020.272 5  -1204088.014 5  24243825.958       -2017.558
   1812545.719 7   1613258.350 8  21981274.460        2328.347
  -1400392.887 7  -1278677.295 7  21978099.228       -1475.063
 92 10 20 17 19  0.0000000  0  5 20  3 26 16 17                      0.000818580
   7240044.770 7   1826646.822 9  21521196.567        2642.660
  -1266299.719 7  -1135606.077 7  21722547.973       -1345.840
  -1608488.034 5  -1251205.573 5  24232318.866       -2013.437
   1882622.827 7   1667863.866 8  21994609.058        2343.475
  -1444530.352 7  -1313070.110 7  21969700.192       -1467.162
 92 10 20 17 19 30.0000000  0  5 20  3 26 16 17                      0.000825510
   7319563.607 7   1888609.507 9  21536328.551        2658.861
  -1306606.851 7  -1167014.214 7  21714877.751       -1341.242
  -1668818.022 5  -1298215.764 5  24220838.197       -2008.294
   1953155.053 7   1722824.046 8  22008031.457        2359.038
  -1488417.960 7  -1347268.198 7  21961348.444       -1458.267
 92 10 20 17 20  0.0000000  0  5 20  3 26 16 17                      0.000832440
   7399572.372 7   1950953.950 9  21551554.218        2674.972
  -1346769.966 7  -1198310.141 7  21707235.023       -1336.610
  -1728986.118 5  -1345099.832 5  24209388.854       -2003.076
   2024169.931 7   1778160.291 8  22021545.112        2375.236
  -1532025.194 7  -1381247.850 7  21953050.250       -1448.911
 92 10 20 17 20 30.0000000  0  5 20  3 26 16 17                      0.000839360
   7480055.708 7   2013668.181 9  21566870.387        2690.593
  -1386800.324 7  -1229502.616 7  21699617.418       -1332.263
  -1789009.217 5  -1391870.910 5  24197966.907       -1998.328
   2095664.477 7   1833870.322 7  22035150.522        2391.053
  -1575348.522 7  -1415006.271 7  21944805.726       -1439.251
 92 10 20 17 21  0.0000000  0  6 20  3 26 23 16 17                   0.000846310
   7561021.039 7   2076757.998 9  21582277.580        2707.065
  -1426686.724 7  -1260582.916 7  21692027.152       -1327.011
  -1848863.849 5  -1438510.738 5  24186576.910       -1991.891
   -251854.45515   -214490.32511  24104757.947       -3136.769
   2167653.608 7   1889965.731 7  22048849.669        2408.185
  -1618366.532 7  -1448526.775 7  21936619.715       -1428.799
 92 10 20 17 21 30.0000000  0  6 20  3 26 23 16 17                   0.000853330
   7642469.158 7   2140224.014 9  21597776.832        2722.929
  -1466424.505 7  -1291547.408 7  21684465.256       -1322.246
  -1908526.474 5  -1485000.942 5  24175224.371       -1985.538
   -345859.057 5   -287740.513 3  24086870.245       -3130.227
   2240148.837 7   1946455.495 7  22062644.828        2425.007
  -1661089.922 7  -1481817.713 7  21928489.713       -1419.373
 92 10 20 17 22  0.0000000  0  6 20  3 26 23 16 17                   0.000860380
   7724398.632 7   2204065.107 9  21613367.118        2738.808
  -1506011.299 7  -1322394.261 7  21676932.281       -1317.283
  -1967986.826 5  -1531333.562 5  24163907.836       -1978.683
   -439663.888 5   -360835.095 4  24069017.751       -3123.670
   2313151.524 7   2003340.678 7  22076536.621        2441.425
  -1703524.346 7  -1514883.471 7  21920414.453       -1409.713
 92 10 20 17 22 30.0000000  0  6 20  3 26 23 16 17                   0.000867500
   7806799.495 7   2268273.504 9  21629047.212        2754.674
  -1545452.931 7  -1353127.988 7  21669426.738       -1312.221
  -2027239.105 5  -1577504.052 5  24152632.058       -1971.373
   -533272.684 5   -433776.865 5  24051205.115       -3116.911
   2386628.262 7   2060595.247 7  22090519.244        2457.129
  -1745665.610 7  -1547720.792 7  21912395.403       -1399.579
 92 10 20 17 23  0.0000000  0  6 20  3 26 23 16 17                   0.000874650
   7889665.155 7   2332844.083 9  21644816.436        2770.088
  -1584752.204 7  -1383750.789 7  21661948.515       -1307.541
  -2086281.839 5  -1623511.254 5  24141397.983       -1964.480
   -626697.025 5   -506574.962 5  24033427.277       -3111.096
   2460561.490 7   2118205.539 7  22104588.253        2472.145
  -1787510.938 7  -1580327.523 7  21904432.585       -1389.805
 92 10 20 17 23 30.0000000  0  6 20  3 26 23 16 17                   0.000881840
   7973003.362 7   2397782.899 9  21660675.307        2785.623
  -1623897.352 7  -1414253.490 7  21654499.451       -1302.509
  -2145111.408 5  -1669352.410 5  24130201.708       -1957.704
   -719948.603 5   -579238.401 5  24015681.943       -3106.027
   2534949.017 7   2176169.808 7  22118743.571        2486.850
  -1829053.765 7  -1612698.534 7  21896527.400       -1379.878
 92 10 20 17 24  0.0000000  0  6 20  3 26 23 16 17                   0.000889050
   8056809.486 7   2463086.331 9  21676623.476        2801.594
  -1662889.103 7  -1444636.669 7  21647079.638       -1296.952
  -2203734.646 5  -1715032.745 5  24119046.335       -1950.422
   -813046.644 5   -651782.203 5  23997966.361       -3100.210
   2609777.132 7   2234477.398 7  22132982.324        2501.845
  -1870291.831 7  -1644832.043 7  21888680.371       -1369.323
 92 10 20 17 24 30.0000000  0  6 20  3 26 23 16 17                   0.000896270
   8141082.536 7   2528753.567 8  21692659.945        2816.666
  -1701724.061 7  -1474897.665 7  21639689.905       -1292.197
  -2262152.257 5  -1760552.906 5  24107928.969       -1944.067
   -905979.537 6   -724197.333 5  23980281.845       -3095.111
   2685051.458 7   2293132.672 7  22147307.007        2516.664
  -1911236.883 7  -1676737.254 7  21880888.987       -1360.314
 92 10 20 17 25  0.0000000  0  6 20  3 26 23 16 17                   0.000903500
   8225811.761 7   2594776.281 8  21708782.943        2831.946
  -1740409.350 7  -1505042.032 7  21632327.920       -1287.009
  -2320375.200 6  -1805921.305 5  24096850.596       -1937.297
   -998756.069 6   -796490.669 5  23962626.343       -3089.818
   2760780.326 7   2352142.118 7  22161717.662        2531.952
  -1951918.152 7  -1708436.925 7  21873147.325       -1351.839
 92 10 20 17 25 30.0000000  0  6 20  3 26 23 16 17                   0.000910730
   8310997.552 7   2661154.774 8  21724992.679        2847.146
  -1778940.249 7  -1535066.116 7  21624995.328       -1281.824
  -2378386.274 5  -1851124.664 5  24085811.282       -1930.199
  -1091367.467 6   -868655.329 5  23945004.426       -3084.137
   2836971.476 7   2411511.797 7  22176216.165        2547.372
  -1992349.092 7  -1739941.519 7  21865453.492       -1343.544
 92 10 20 17 26  0.0000000  0  6 20  3 26 23 16 17                   0.000917960
   8396640.094 7   2727889.161 8  21741289.567        2862.139
  -1817312.819 7  -1564966.807 7  21617693.573       -1276.736
  -2436188.367 6  -1896165.163 5  24074811.903       -1923.486
  -1183799.033 5   -940679.826 5  23927414.367       -3077.918
   2913621.672 7   2471239.154 7  22190802.329        2562.467
  -2032530.886 7  -1771251.972 7  21857807.157       -1335.441
 92 10 20 17 26 30.0000000  0  6 20  3 26 23 16 17                   0.000925180
   8482729.866 7   2794972.034 8  21757672.357        2877.064
  -1855532.217 7  -1594748.131 7  21610420.749       -1271.501
  -2493794.096 6  -1941052.683 5  24063849.902       -1917.017
  -1276042.413 5  -1012557.668 5  23909860.122       -3071.767
   2990723.867 7   2531318.718 7  22205473.970        2577.533
  -2072461.191 7  -1802366.486 7  21850208.514       -1326.477
 92 10 20 17 27  0.0000000  0  6 20  3 26 23 16 17                   0.000932430
   8569267.092 7   2862403.570 8  21774140.458        2891.890
  -1893594.003 7  -1624406.686 7  21603177.792       -1266.294
  -2551205.071 5  -1985788.372 5  24052925.779       -1910.589
  -1368098.887 5  -1084289.884 5  23892342.025       -3065.452
   3068272.818 7   2591746.407 7  22220231.143        2592.200
  -2112109.821 7  -1833261.499 7  21842663.328       -1316.898
 92 10 20 17 27 30.0000000  0  6 20  3 26 23 16 17                   0.000939690
   8656249.729 7   2930182.201 8  21790692.279        2906.821
  -1931496.144 7  -1653940.812 7  21595965.464       -1260.828
  -2608424.380 5  -2030374.760 5  24042036.404       -1904.191
  -1459966.641 5  -1155875.069 5  23874859.747       -3059.300
   3146265.674 7   2652519.992 7  22235072.959        2607.124
  -2151457.295 7  -1863921.844 7  21835175.811       -1306.405
 92 10 20 17 28  0.0000000  0  6 20  3 26 23 16 17                   0.000946960
   8743681.578 7   2998310.861 8  21807329.958        2921.797
  -1969230.931 7  -1683344.535 7  21588784.476       -1255.178
  -2665452.136 5  -2074811.828 5  24031184.857       -1897.537
  -1551650.908 5  -1227317.287 5  23857413.556       -3053.095
   3224710.158 7   2713645.510 7  22250001.005        2622.507
  -2190481.683 7  -1894330.437 7  21827749.782       -1295.299
 92 10 20 17 28 30.0000000  0  6 20  3 26 23 16 17                   0.000954240
   8831558.692 7   3066786.474 8  21824052.552        2936.525
  -2006797.802 7  -1712617.412 7  21581635.933       -1249.622
  -2722263.158 5  -2119079.992 5  24020374.045       -1890.110
  -1643161.653 5  -1298624.286 5  23840000.134       -3047.672
   3303619.958 7   2775133.587 7  22265017.040        2638.040
  -2229168.417 7  -1924475.912 7  21820387.999       -1284.094
 92 10 20 17 29  0.0000000  0  6 20  3 26 23 16 17                   0.000961510
   8919876.674 7   3135605.614 8  21840858.917        2951.330
  -2044197.198 7  -1741759.790 7  21574518.921       -1243.828
  -2778846.958 5  -2163171.130 5  24009606.695       -1882.067
  -1734509.286 5  -1369804.157 5  23822616.545       -3042.007
   3382994.812 7   2836984.052 7  22280121.263        2653.580
  -2267535.334 7  -1954372.206 7  21813087.284       -1273.898
 92 10 20 17 29 30.0000000  0  6 20  3 26 23 16 17                   0.000968770
   9008616.611 7   3204753.547 8  21857745.728        2964.782
  -2081443.665 7  -1770783.016 8  21567431.240       -1239.336
  -2835208.706 5  -2207089.191 5  23998881.475       -1875.240
  -1825701.965 5  -1440863.354 5  23805262.332       -3037.247
   3462813.010 7   2899179.971 7  22295310.308        2667.612
  -2305624.850 7  -1984052.346 7  21805838.771       -1265.405
 92 10 20 17 30  0.0000000  0  6 20  3 26 23 16 17                   0.000976050
   9097798.700 7   3274246.028 8  21874716.421        2979.902
  -2118512.736 7  -1799668.005 8  21560376.871       -1232.927
  -2891320.889 5  -2250812.839 5  23988203.382       -1866.349
  -1916694.686 5  -1511766.711 5  23787946.824       -3029.644
   3543081.197 7   2961726.550 7  22310584.671        2682.731
  -2343425.618 7  -2013507.455 7  21798645.571       -1255.520
 92 10 20 17 30 30.0000000  0  6 20  3 26 23 16 17                   0.000983350
   9187404.331 7   3344068.543 8  21891768.243        2993.905
  -2155418.642 7  -1828425.843 8  21553354.483       -1227.547
  -2947199.704 5  -2294354.643 5  23977568.445       -1858.935
  -2007478.328 5  -1582507.127 5  23770672.677       -3022.418
   3623769.412 7   3024600.411 7  22325939.502        2696.419
  -2380965.320 7  -2042759.156 7  21791501.498       -1247.063
 92 10 20 17 31  0.0000000  0  6 20  3 26 23 16 17                   0.000990680
   9277435.326 7   3414222.482 8  21908900.824        3008.048
  -2192155.178 7  -1857051.725 8  21546363.633       -1221.789
  -3002859.399 5  -2337725.647 5  23966977.208       -1851.711
  -2098028.445 5  -1653065.587 5  23753442.033       -3014.269
   3704863.317 7   3087790.406 7  22341371.940        2709.756
  -2418251.796 7  -2071813.526 7  21784406.509       -1238.599
 92 10 20 17 31 30.0000000  0  6 20  3 26 23 16 17                   0.000998040
   9367889.245 7   3484706.006 8  21926113.737        3021.561
  -2228720.695 8  -1885544.362 8  21539405.389       -1216.685
  -3058302.314 5  -2380927.812 5  23956426.461       -1845.118
  -2188328.277 5  -1723429.049 5  23736257.161       -3006.357
   3786357.229 7   3151292.081 7  22356879.964        2722.646
  -2455265.850 7  -2100655.636 8  21777363.336       -1229.511
 92 10 20 17 32  0.0010000  0  6 20  3 26 23 16 17                   0.001005470
   9458754.235 7   3555509.797 8  21943404.358        3036.332
  -2265126.948 7  -1913912.880 8  21532477.546       -1210.125
  -3113545.834 6  -2423974.563 5  23945914.168       -1837.075
  -2278394.978 6  -1793610.859 5  23719118.473       -2997.563
   3868249.654 7   3215104.260 7  22372463.457        2737.258
  -2492003.950 7  -2129282.755 8  21770372.097       -1219.090
 92 10 20 17 32 30.0010000  0  6 20  3 26 23 16 17                   0.001012940
   9550053.781 7   3626652.244 8  21960778.562        3049.709
  -2301337.585 8  -1942128.941 8  21525587.255       -1204.784
  -3168546.532 5  -2466832.045 5  23935448.417       -1830.143
  -2368211.140 5  -1863597.406 5  23702028.164       -2990.672
   3950581.516 7   3279258.929 7  22388130.910        2750.941
  -2528432.715 7  -2157668.765 8  21763439.764       -1209.965
 92 10 20 17 33  0.0010000  0  6 20  3 26 23 16 17                   0.001020410
   9641756.502 7   3698108.852 8  21978229.525        3063.756
  -2337384.044 7  -1970217.078 8  21518727.926       -1198.562
  -3223326.326 5  -2509517.447 5  23925021.707       -1821.697
  -2457812.561 5  -1933416.620 5  23684976.904       -2982.880
   4033327.089 7   3343735.949 7  22403876.767        2765.540
  -2564588.615 7  -2185842.183 8  21756559.516       -1200.338
 92 10 20 17 33 30.0010000  0  6 20  3 26 23 16 17                   0.001027930
   9733871.676 7   3769886.838 8  21995758.344        3077.163
  -2373252.601 8  -1998166.610 8  21511902.351       -1192.927
  -3277848.103 5  -2552001.777 5  23914648.224       -1813.142
  -2547199.901 6  -2003069.053 5  23667966.427       -2976.455
   4116511.953 7   3408555.268 7  22419706.180        2780.047
  -2600461.758 7  -2213795.256 8  21749733.122       -1191.471
 92 10 20 17 34  0.0010000  0  6 20  3 26 23 16 17                   0.001035440
   9826389.165 7   3841978.308 8  22013363.755        3090.604
  -2408948.758 8  -2025981.786 8  21505109.664       -1187.058
  -3332097.376 5  -2594273.793 5  23904325.118       -1803.465
  -2636395.513 6  -2072572.096 5  23650993.360       -2970.000
   4200130.215 7   3473712.300 7  22435618.656        2794.446
  -2636084.779 7  -2241553.422 8  21742954.056       -1183.481
 92 10 20 17 34 30.0010000  0  6 20  3 26 23 16 17                   0.001042950
   9919308.292 7   3914382.760 8  22031045.315        3104.071
  -2444468.681 8  -2053659.652 8  21498350.811       -1181.011
  -3386056.424 5  -2636319.679 5  23894056.999       -1793.728
  -2725392.633 6  -2141920.450 5  23634057.745       -2963.036
   4284175.255 7   3539201.893 7  22451611.354        2808.678
  -2671467.063 7  -2269124.026 8  21736220.519       -1175.105
 92 10 20 17 35  0.0010000  0  6 20  3 26 23 16 17                   0.001050480
  10012639.608 7   3987108.368 8  22048806.060        3117.662
  -2479797.303 8  -2081188.435 8  21491627.767       -1174.723
  -3439710.758 5  -2678128.087 5  23883845.890       -1783.437
  -2814168.204 6  -2211096.108 5  23617163.828       -2955.841
   4368657.359 7   3605032.052 7  22467687.544        2823.152
  -2706586.947 7  -2296490.167 8  21729537.505       -1166.452
 92 10 20 17 35 30.0010000  0  6 20  3 26 23 16 17                   0.001058010
  10106373.493 7   4060147.706 8  22066643.178        3131.119
  -2514939.770 7  -2108572.180 8  21484939.857       -1168.411
  -3493068.139 6  -2719705.131 5  23873692.876       -1773.933
  -2902739.094 6  -2280112.342 5  23600309.863       -2948.873
   4453570.481 7   3671198.073 7  22483846.118        2837.562
  -2741446.297 7  -2323653.294 8  21722903.877       -1157.771
 92 10 20 17 36  0.0010000  0  6 20  3 26 23 16 17                   0.001065550
  10200517.349 7   4133506.489 8  22084558.117        3145.104
  -2549884.633 7  -2135801.933 8  21478289.630       -1161.480
  -3546140.988 6  -2761060.468 5  23863593.511       -1764.371
  -2991079.184 6  -2348948.719 5  23583499.416       -2940.381
   4538912.138 7   3737698.037 7  22500086.134        2851.968
  -2776030.893 7  -2350602.312 8  21716322.831       -1147.808
 92 10 20 17 36 30.0010000  0  6 20  3 26 23 16 17                   0.001073120
  10295063.237 7   4207178.533 7  22102549.704        3157.990
  -2584634.963 8  -2162880.109 8  21471676.838       -1155.368
  -3598953.862 6  -2802213.233 5  23853543.153       -1756.448
  -3079179.919 6  -2417598.592 5  23566734.420       -2932.926
   4624672.224 7   3804524.040 7  22516405.147        2865.448
  -2810319.197 7  -2377320.467 8  21709798.249       -1138.095
 92 10 20 17 37  0.0010000  0  6 20  3 26 23 16 17                   0.001080700
  10390000.034 7   4281155.179 7  22120616.197        3170.906
  -2619197.427 8  -2189811.891 8  21465100.230       -1149.206
  -3651522.239 6  -2843175.481 5  23843539.561       -1748.349
  -3167052.709 6  -2486070.794 5  23550012.346       -2925.541
   4710838.192 7   3871666.297 7  22532802.244        2878.674
  -2844317.585 7  -2403812.718 8  21703328.351       -1128.752
 92 10 20 17 37 30.0010000  0  6 20  3 26 23 16 17                   0.001088280
  10485320.766 7   4355430.997 7  22138754.838        3183.747
  -2653574.646 8  -2216599.328 8  21458558.200       -1142.873
  -3703857.078 5  -2883955.775 5  23833580.572       -1740.633
  -3254706.316 6  -2554372.225 5  23533330.825       -2918.076
   4797390.738 7   3939109.792 7  22549273.563        2891.401
  -2878033.607 7  -2430084.932 8  21696913.009       -1119.016
 92 10 20 17 38  0.0010000  0  6 20  3 26 23 16 17                   0.001095890
  10581024.817 7   4430005.512 7  22156966.581        3196.618
  -2687762.354 8  -2243239.087 8  21452052.732       -1136.397
  -3755950.149 5  -2924547.649 5  23823667.949       -1732.085
  -3342127.945 6  -2622492.888 5  23516695.248       -2910.087
   4884317.092 7   4006844.579 7  22565815.292        2903.755
  -2911455.417 7  -2456127.885 8  21690553.223       -1109.033
 92 10 20 17 38 30.0010000  0  6 20  3 26 23 16 17                   0.001103510
  10677115.718 7   4504881.470 7  22175251.653        3209.538
  -2721752.279 8  -2269724.738 8  21445584.361       -1129.717
  -3807779.556 5  -2964934.077 5  23813804.465       -1722.998
  -3429314.744 6  -2690430.606 5  23500104.465       -2902.148
   4971612.377 7   4074866.827 7  22582426.561        2916.048
  -2944581.172 7  -2481940.160 8  21684249.427       -1099.333
 92 10 20 17 39  0.0010000  0  6 20  3 26 23 16 17                   0.001111140
  10773595.296 7   4580060.287 7  22193611.313        3222.354
  -2755537.973 8  -2296051.262 8  21439155.503       -1122.947
  -3859328.070 5  -3005101.630 5  23803995.257       -1713.611
  -3516252.430 6  -2758174.158 5  23483560.089       -2893.684
   5059278.229 7   4143177.814 7  22599108.543        2928.331
  -2977414.984 7  -2507524.931 8  21678001.191       -1089.644
 92 10 20 17 39 30.0010000  0  6 20  3 26 23 16 17                   0.001118810
  10870452.159 7   4655533.091 7  22212042.962        3234.595
  -2789126.464 8  -2322224.109 8  21432763.666       -1116.654
  -3910598.691 5  -3045052.682 5  23794238.721       -1704.479
  -3602937.186 6  -2825720.661 5  23467065.279       -2885.420
   5147313.078 7   4211776.347 7  22615861.167        2940.441
  -3009961.393 7  -2532885.749 8  21671808.049       -1080.273
 92 10 20 17 40  0.0010000  0  6 20  3 26 23 16 17                   0.001126530
  10967673.034 7   4731289.537 7  22230543.844        3246.812
  -2822526.806 8  -2348250.345 8  21426407.826       -1110.188
  -3961586.721 6  -3084783.558 5  23784534.659       -1694.847
  -3689368.550 6  -2893069.696 5  23450618.585       -2876.693
   5235709.582 7   4280656.688 7  22632682.830        2952.735
  -3042232.073 7  -2558031.715 8  21665667.160       -1071.182
 92 10 20 17 40 30.0010000  0  6 20  3 26 23 16 17                   0.001134280
  11065260.904 7   4807331.957 7  22249113.850        3258.895
  -2855730.547 8  -2374123.388 8  21420089.341       -1103.727
  -4012292.446 5  -3124294.436 5  23774885.597       -1685.657
  -3775545.981 6  -2960220.857 5  23434218.699       -2868.614
   5324485.594 7   4349832.730 7  22649576.472        2965.651
  -3074234.626 7  -2582968.768 9  21659576.997       -1062.431
 92 10 20 17 41  0.0010000  0  6 20  3 26 23 16 17                   0.001142040
  11163204.860 7   4883651.856 7  22267751.896        3270.602
  -2888744.269 8  -2399848.375 8  21413806.970       -1097.470
  -4062724.781 6  -3163592.292 5  23765289.603       -1676.625
  -3861494.739 6  -3027193.828 5  23417863.629       -2861.461
   5413650.224 7   4419311.592 7  22666544.368        2978.457
  -3105980.254 7  -2607705.587 9  21653535.801       -1054.159
 92 10 20 17 41 30.0010000  0  6 20  3 26 23 16 17                   0.001149750
  11261500.841 7   4960246.039 7  22286457.535        3282.436
  -2921567.316 8  -2425424.770 8  21407560.973       -1090.926
  -4112880.408 5  -3202674.517 5  23755744.873       -1667.029
  -3947237.035 6  -3094005.913 5  23401547.046       -2854.681
   5503197.940 7   4489088.964 7  22683584.711        2991.248
  -3137480.147 7  -2632250.942 9  21647541.090       -1045.882
 92 10 20 17 42  0.0010000  0  6 20  3 26 23 16 17                   0.001157430
  11360150.508 7   5037115.843 7  22305229.511        3294.062
  -2954193.227 8  -2450847.536 8  21401352.303       -1084.442
  -4162743.106 6  -3241528.505 5  23746256.599       -1657.411
  -4032773.297 6  -3160657.473 5  23385270.782       -2847.940
   5593123.002 7   4559160.391 7  22700696.795        3003.700
  -3168736.033 7  -2656606.149 9  21641593.278       -1037.954
 92 10 20 17 42 30.0010000  0  6 20  3 26 23 16 17                   0.001165010
  11459147.633 7   5114256.371 7  22324068.088        3305.674
  -2986623.596 8  -2476117.975 8  21395181.075       -1077.865
  -4212311.088 6  -3280152.885 5  23736823.480       -1647.196
  -4118118.193 6  -3227159.939 5  23369030.097       -2841.639
   5683429.435 7   4629528.937 7  22717881.228        3016.658
  -3199750.271 7  -2680773.086 9  21635691.353       -1029.658
 92 10 20 17 43  0.0010000  0  6 20  3 26 23 16 17                   0.001172550
  11558492.763 7   5191668.095 7  22342972.205        3317.296
  -3018853.411 8  -2501232.118 8  21389047.829       -1071.019
  -4261564.867 6  -3318532.409 5  23727451.067       -1636.416
  -4203260.163 6  -3293504.282 5  23352828.504       -2834.352
   5774117.636 7   4700194.988 7  22735138.351        3029.113
  -3230512.404 7  -2704743.561 9  21629837.566       -1021.064
 92 10 20 17 43 30.0010000  0  6 20  3 26 23 16 17                   0.001180050
  11658183.328 7   5269348.963 7  22361943.229        3328.708
  -3050880.220 8  -2526188.075 8  21382953.418       -1064.305
  -4310491.133 6  -3356656.712 5  23718140.196       -1625.412
  -4288171.330 6  -3359668.727 5  23336669.325       -2826.209
   5865174.475 7   4771148.317 7  22752465.546        3041.379
  -3261011.576 7  -2728509.115 9  21624033.794       -1012.126
 92 10 20 17 44  0.0010000  0  6 20  3 26 23 16 17                   0.001187600
  11758216.453 7   5347296.797 7  22380978.651        3340.138
  -3082702.259 8  -2550984.456 8  21376898.071       -1057.386
  -4359088.662 6  -3394524.876 5  23708892.607       -1614.548
  -4372825.489 6  -3425632.956 5  23320560.062       -2817.497
   5956598.694 7   4842387.901 7  22769863.162        3053.639
  -3291241.400 7  -2752064.795 9  21618281.107       -1003.054
 92 10 20 17 44 30.0010000  0  6 20  3 26 23 16 17                   0.001195200
  11858587.787 7   5425508.134 7  22400078.716        3351.120
  -3114319.002 8  -2575620.887 8  21370881.228       -1050.726
  -4407365.057 6  -3432142.836 5  23699706.054       -1604.040
  -4457222.526 6  -3491396.804 5  23304499.951       -2808.815
   6048391.595 7   4913914.741 7  22787330.649        3065.698
  -3321199.361 7  -2775408.661 9  21612580.244        -994.327
 92 10 20 17 45  0.0010000  0  6 20  3 26 23 16 17                   0.001202850
  11959289.518 7   5503976.922 7  22419242.181        3362.053
  -3145733.521 8  -2600099.725 8  21364903.295       -1043.955
  -4455330.318 6  -3469518.314 5  23690579.559       -1594.021
  -4541341.622 6  -3556944.118 6  23288491.684       -2799.239
   6140533.262 7   4985713.394 7  22804864.541        3076.928
  -3350896.731 7  -2798549.458 9  21606929.225        -985.760
 92 10 20 17 45 30.0010000  0  6 20  3 26 23 16 17                   0.001210600
  12060327.593 7   5582707.836 7  22438469.391        3373.558
  -3176934.904 8  -2624412.503 8  21358965.796       -1036.548
  -4502987.541 6  -3506653.799 5  23681509.779       -1583.469
  -4625164.491 6  -3622260.574 6  23272541.407       -2789.119
   6233025.923 7   5057785.526 7  22822465.534        3089.017
  -3380329.348 7  -2821483.961 9  21601328.491        -976.742
 92 10 20 17 46  0.0010000  0  6 20  3 26 23 16 17                   0.001218440
  12161699.357 7   5661698.731 7  22457759.806        3384.572
  -3207920.946 8  -2648557.447 8  21353069.368       -1029.349
  -4550337.367 6  -3543549.757 5  23672499.162       -1573.267
  -4708691.203 6  -3687346.270 6  23256647.085       -2779.498
   6325873.663 7   5130134.354 6  22840134.544        3100.799
  -3409505.625 7  -2844218.694 9  21595776.584        -968.313
 92 10 20 17 46 30.0010000  0  6 20  3 26 23 16 17                   0.001226330
  12263399.044 7   5740945.159 7  22477112.768        3395.486
  -3238692.458 8  -2672535.257 8  21347213.521       -1022.146
  -4597388.353 6  -3580212.820 5  23663545.710       -1563.381
  -4791932.223 6  -3752209.354 6  23240807.055       -2769.667
   6419071.425 6   5202755.913 6  22857869.417        3112.369
  -3438430.564 7  -2866757.630 9  21590273.034        -959.998
 92 10 20 17 47  0.0010000  0  6 20  3 26 23 16 17                   0.001234280
  12365419.266 7   5820441.349 7  22496526.577        3405.980
  -3269252.263 8  -2696348.084 8  21341398.238       -1015.250
  -4644153.206 6  -3616652.921 5  23654646.719       -1553.926
  -4874882.691 6  -3816846.055 6  23225022.373       -2760.484
   6512596.690 7   5275632.684 6  22875666.556        3122.785
  -3467110.552 7  -2889105.658 9  21584815.175        -951.845
 92 10 20 17 47 30.0010000  0  6 20  3 26 23 16 17                   0.001242220
  12467759.760 7   5900187.112 7  22516001.956        3416.858
  -3299595.986 8  -2719992.527 8  21335624.035       -1007.722
  -4690618.702 6  -3652859.777 5  23645805.288       -1543.503
  -4957562.349 6  -3881271.682 6  23209288.874       -2751.357
   6606443.901 6   5348760.315 6  22893525.042        3133.648
  -3495529.663 7  -2911250.416 9  21579406.777        -942.612
 92 10 20 17 48  0.0010000  0  6 20  3 26 23 16 17                   0.001250170
  12570424.487 7   5980185.518 7  22535538.131        3427.362
  -3329714.157 8  -2743461.220 8  21329892.783       -1000.389
  -4736769.101 6  -3688821.097 5  23637022.652       -1533.273
  -5039968.808 6  -3945484.475 6  23193607.401       -2742.705
   6700610.902 7   5422137.149 6  22911444.627        3143.941
  -3523669.774 7  -2933177.762 9  21574051.984        -933.435
 92 10 20 17 48 30.0010000  0  6 20  3 26 23 16 17                   0.001258060
  12673408.950 7   6060433.069 7  22555135.236        3438.255
  -3359606.726 8  -2766754.136 8  21324204.260        -992.600
  -4782612.648 6  -3724543.316 5  23628298.699       -1522.738
  -5122118.400 6  -4009497.109 6  23177974.085       -2733.891
   6795085.418 6   5495753.591 6  22929422.800        3154.385
  -3551527.717 7  -2954885.264 9  21568750.864        -923.827
 92 10 20 17 49  0.0010000  0  6 20  3 26 23 16 17                   0.001265880
  12776710.008 7   6140927.321 7  22574792.526        3448.794
  -3389271.970 8  -2789869.896 8  21318559.609        -984.980
  -4828124.026 6  -3760006.681 5  23619637.436       -1511.005
  -5204018.103 6  -4073314.990 6  23162388.664       -2725.845
   6889869.172 6   5569610.984 6  22947458.645        3164.941
  -3579101.350 7  -2976371.188 9  21563503.518        -914.122
 92 10 20 17 49 30.0010000  0  6 20  3 26 23 16 17                   0.001273670
  12880322.541 7   6221664.290 7  22594508.988        3458.809
  -3418710.080 8  -2812808.695 8  21312957.777        -977.641
  -4873286.276 6  -3795197.989 5  23611043.644       -1499.675
  -5285676.165 6  -4136944.587 6  23146849.878       -2717.741
   6984980.373 7   5643723.553 6  22965557.745        3175.968
  -3606387.663 7  -2997633.268 9  21558310.801        -904.962
 92 10 20 17 50  0.0010000  0  6 20  3 26 23 16 17                   0.001281470
  12984241.630 7   6302640.113 7  22614284.305        3469.048
  -3447921.351 8  -2835570.731 8  21307398.794        -969.994
  -4918101.310 6  -3830118.778 5  23602515.171       -1487.986
  -5367078.772 6  -4200375.123 6  23131358.875       -2709.225
   7080435.010 7   5718103.713 6  22983723.170        3187.628
  -3633399.087 7  -3018681.130 9  21553170.770        -895.884
 92 10 20 17 50 30.0010000  0  6 20  3 26 23 16 17                   0.001289300
  13088472.942 7   6383859.231 7  22634119.095        3479.983
  -3476894.944 8  -2858147.562 8  21301885.231        -961.548
  -4962558.350 6  -3864760.575 5  23594055.286       -1475.415
  -5448222.258 6  -4263603.764 6  23115918.763       -2699.771
   7176248.206 7   5792763.268 6  23001955.986        3200.197
  -3660133.121 7  -3039512.837 9  21548083.473        -886.190
 92 10 20 17 51  0.0010000  0  6 20  3 26 23 16 17                   0.001297190
  13193045.496 6   6465344.262 7  22654018.470        3491.764
  -3505596.680 8  -2880512.553 8  21296423.073        -951.950
  -5006614.413 6  -3899089.910 5  23585671.931       -1461.732
  -5529048.128 6  -4326584.874 6  23100538.477       -2688.360
   7272450.854 6   5867726.315 6  23020261.745        3213.507
  -3686559.851 7  -3060105.098 9  21543054.643        -875.510
 92 10 20 17 51 30.0010000  0  6 20  3 26 23 16 17                   0.001305180
  13297975.688 7   6547107.959 7  22673986.476        3503.730
  -3534005.192 8  -2902649.068 8  21291017.177        -942.000
  -5050272.044 6  -3933108.823 5  23577364.631       -1448.581
  -5609519.026 6  -4389289.393 6  23085225.220       -2676.216
   7369051.113 7   5942999.171 6  23038643.749        3226.524
  -3712665.769 7  -3080447.371 9  21538087.053        -864.799
 92 10 20 17 52  0.0010000  0  6 20  3 26 23 16 17                   0.001313240
  13403261.333 7   6629148.641 7  22694021.717        3515.262
  -3562117.851 7  -2924555.028 9  21285667.188        -932.359
  -5093532.677 6  -3966818.364 6  23569131.962       -1435.561
  -5689636.794 6  -4451718.744 6  23069979.227       -2665.038
   7466024.395 6   6018562.700 6  23057097.604        3238.276
  -3738455.658 7  -3100543.379 9  21533179.372        -854.643
 92 10 20 17 52 30.0010000  0  6 20  3 26 23 16 17                   0.001321300
  13508887.500 6   6711454.644 7  22714121.831        3526.296
  -3589944.455 8  -2946238.106 9  21280372.184        -923.129
  -5136407.302 6  -4000227.159 6  23560972.056       -1422.818
  -5769422.703 6  -4513889.506 6  23054795.537       -2654.078
   7563343.142 6   6094395.390 6  23075616.793        3249.467
  -3763950.815 7  -3120409.740 9  21528327.549        -845.213
 92 10 20 17 53  0.0010000  0  6 20  3 26 23 16 17                   0.001329350
  13614835.186 7   6794011.192 6  22734283.042        3536.889
  -3617498.906 8  -2967709.135 8  21275128.844        -914.037
  -5178899.832 6  -4033338.147 6  23552886.616       -1410.039
  -5848890.515 6  -4575812.400 6  23039673.695       -2643.989
   7660987.198 7   6170481.582 6  23094198.158        3260.255
  -3789169.240 7  -3140060.445 9  21523528.442        -836.004
 92 10 20 17 53 30.0010000  0  6 20  3 26 23 16 17                   0.001337380
  13721099.791 6   6876814.704 6  22754504.445        3547.261
  -3644781.203 8  -2988968.058 9  21269937.548        -905.098
  -5221007.059 6  -4066148.917 6  23544873.616       -1397.232
  -5928067.548 6  -4637508.708 6  23024605.551       -2634.555
   7758961.730 7   6246825.303 6  23112842.831        3271.221
  -3814105.832 7  -3159491.553 9  21518783.194        -826.520
 92 10 20 17 54  0.0010000  0  6 20  3 26 23 16 17                   0.001345420
  13827670.584 7   6959856.779 6  22774784.278        3557.341
  -3671797.105 8  -3010019.430 8  21264796.607        -896.274
  -5262730.538 6  -4098660.702 6  23536934.080       -1384.450
  -6006955.022 6  -4698979.388 6  23009594.840       -2624.596
   7857268.482 6   6323427.873 6  23131550.312        3282.615
  -3838762.658 7  -3178704.660 9  21514091.555        -817.304
 92 10 20 17 54 30.0010000  0  6 20  3 26 23 16 17                   0.001353530
  13934537.798 7   7043129.841 6  22795120.607        3567.080
  -3698551.376 8  -3030866.923 8  21259705.263        -887.532
  -5304073.342 6  -4130875.822 6  23529067.138       -1371.658
  -6085535.418 6  -4760210.813 6  22994641.091       -2613.908
   7955922.387 6   6400300.933 6  23150323.055        3294.215
  -3863133.604 7  -3197695.008 9  21509453.754        -807.474
 92 10 20 17 55  0.0010000  0  6 20  3 26 23 16 17                   0.001361740
  14041688.391 7   7126623.722 6  22815511.421        3576.415
  -3725051.811 8  -3051516.607 9  21254661.913        -879.200
  -5345044.832 6  -4162801.595 6  23521270.551       -1359.706
  -6163793.266 6  -4821190.903 6  22979749.021       -2603.106
   8054909.002 6   6477433.268 6  23169160.143        3305.039
  -3887217.797 7  -3216461.894 9  21504871.047        -797.931
 92 10 20 17 55 30.0010000  0  6 20  3 26 23 16 17                   0.001370030
  14149113.344 6   7210331.366 6  22835954.056        3585.243
  -3751302.563 8  -3071971.745 9  21249666.862        -871.085
  -5385667.565 6  -4194455.604 6  23513539.667       -1348.520
  -6241721.234 6  -4881913.927 6  22964920.197       -2591.942
   8154213.142 6   6554813.013 6  23188057.051        3315.018
  -3911023.973 7  -3235012.153 9  21500340.574        -789.133
 92 10 20 17 56  0.0010000  0  6 20  3 26 23 16 17                   0.001378360
  14256810.507 6   7294251.154 6  22856447.430        3594.499
  -3777300.513 8  -3092229.892 8  21244719.666        -862.410
  -5425944.472 6  -4225840.137 6  23505875.211       -1336.465
  -6319305.747 6  -4942369.328 6  22950155.958       -2580.593
   8253812.413 6   6632422.780 6  23207009.661        3324.819
  -3934563.954 7  -3253354.980 9  21495860.995        -780.201
 92 10 20 17 56 30.0010000  0  6 20  3 26 23 16 17                   0.001386670
  14364777.119 6   7378380.900 6  22876992.936        3603.259
  -3803043.623 8  -3112289.444 9  21239821.027        -854.017
  -5465858.041 6  -4256941.536 6  23498280.281       -1324.456
  -6396574.111 6  -5002578.374 6  22935452.978       -2570.733
   8353685.902 6   6710246.189 6  23226014.525        3333.378
  -3957841.167 7  -3271493.064 9  21491431.543        -771.867
 92 10 20 17 57  0.0010000  0  6 20  3 26 23 16 17                   0.001394930
  14473003.678 6   7462713.168 6  22897586.711        3611.916
  -3828536.189 8  -3132153.799 9  21234969.845        -845.574
  -5505410.530 6  -4287761.596 6  23490753.562       -1312.302
  -6473558.133 6  -5062565.900 6  22920802.648       -2561.651
   8453814.459 6   6788268.349 6  23245069.182        3342.004
  -3980886.142 8  -3289450.186 9  21487046.166        -764.194
 92 10 20 17 57 30.0010000  0  6 20  3 26 23 16 17                   0.001403130
  14581492.203 6   7547249.599 6  22918231.007        3620.750
  -3853771.236 8  -3151817.456 9  21230168.040        -836.799
  -5544591.815 6  -4318292.339 6  23483297.550       -1299.550
  -6550271.201 6  -5122342.254 6  22906205.195       -2552.469
   8554208.638 6   6866497.503 6  23264174.196        3351.137
  -4003688.808 7  -3307218.472 9  21482707.433        -755.799
 92 10 20 17 58  0.0010000  0  6 20  3 26 23 16 17                   0.001411280
  14690236.565 6   7631985.356 6  22938924.812        3629.002
  -3878749.473 7  -3171281.008 9  21225414.842        -828.447
  -5583381.345 6  -4348517.857 6  23475916.720       -1286.300
  -6626716.493 6  -5181909.963 6  22891658.393       -2543.647
   8654878.486 6   6944941.437 6  23283330.087        3360.440
  -4026246.291 8  -3324795.725 9  21478415.042        -747.868
 92 10 20 17 58 30.0010000  0  6 20  3 26 23 16 17                   0.001419430
  14799234.117 6   7716918.423 6  22959666.644        3637.511
  -3903468.744 7  -3190542.786 9  21220710.707        -819.649
  -5621769.552 6  -4378430.628 6  23468612.095       -1272.961
  -6702879.080 6  -5241257.388 6  22877165.109       -2533.649
   8755838.884 6   7023611.777 6  23302542.184        3370.289
  -4048557.397 8  -3342181.014 9  21474169.442        -739.593
 92 10 20 17 59  0.0010000  0  6 20  3 26 23 16 17                   0.001427630
  14908482.171 6   7802046.667 6  22980456.203        3645.565
  -3927926.751 8  -3209600.963 9  21216056.618        -811.138
  -5659762.397 6  -4408035.357 5  23461382.154       -1259.994
  -6778728.991 6  -5300361.179 6  22862730.871       -2523.026
   8857092.752 6   7102510.794 6  23321810.806        3379.906
  -4070618.743 8  -3359371.657 9  21469971.777        -731.085
 92 10 20 17 59 30.0010000  0  6 20  3 26 23 16 17                   0.001435840
  15017971.103 6   7887362.616 6  23001290.685        3653.605
  -3952127.942 8  -3228459.036 9  21211451.228        -802.457
  -5697359.978 6  -4437332.077 5  23454227.245       -1246.505
  -6854256.362 6  -5359213.622 6  22848358.201       -2512.162
   8958631.215 6   7181631.597 6  23341133.217        3389.245
  -4092422.638 8  -3376361.697 9  21465822.420        -722.747
 92 10 20 18  0  0.0010000  0  6 20  3 26 23 16 17                   0.001444070
  15127710.375 6   7972873.625 6  23022174.012        3662.080
  -3976057.226 8  -3247105.230 9  21206897.799        -793.234
  -5734544.802 6  -4466307.161 5  23447151.054       -1232.814
  -6929445.224 6  -5417802.289 6  22834050.127       -2500.794
   9060459.016 6   7260977.855 6  23360509.527        3398.972
  -4113976.391 8  -3393156.817 9  21461720.881        -714.370
 92 10 20 18  0 30.0010000  0  6 20  3 26 23 16 17                   0.001452320
  15237689.412 6   8058571.482 6  23043102.429        3669.666
  -3999720.447 7  -3265544.097 9  21202394.969        -784.661
  -5771340.196 6  -4494978.793 5  23440149.015       -1220.348
  -7004315.912 6  -5476143.024 6  22819802.978       -2490.792
   9162563.195 6   7340539.494 6  23379939.095        3407.836
  -4135285.337 8  -3409761.187 9  21457665.406        -706.283
 92 10 20 18  1  0.0010000  0  6 20  3 26 23 16 17                   0.001460600
  15347894.022 6   8144445.109 6  23064074.392        3677.256
  -4023127.005 8  -3283782.974 9  21197940.611        -775.978
  -5807760.675 6  -4523358.285 5  23433218.152       -1207.783
  -7078893.365 6  -5534255.283 6  22805610.854       -2481.097
   9264938.036 6   7420311.985 6  23399420.498        3417.238
  -4156346.296 8  -3426172.314 9  21453657.592        -697.804
 92 10 20 18  1 30.0010000  0  6 20  3 26 23 16 17                   0.001468920
  15458322.019 6   8230492.785 6  23085087.580        3684.663
  -4046273.588 8  -3301819.249 9  21193535.881        -767.319
  -5843808.330 6  -4551447.244 5  23426358.430       -1195.518
  -7153185.051 6  -5592144.840 6  22791474.001       -2471.555
   9367590.757 6   7500301.023 6  23418954.804        3426.256
  -4177159.033 7  -3442390.021 9  21449696.855        -689.652
 92 10 20 18  2  0.0010000  0  6 20  3 26 23 16 17                   0.001477270
  15568967.815 6   8316710.176 6  23106143.259        3691.855
  -4069160.494 8  -3319653.199 9  21189180.607        -758.636
  -5879499.462 6  -4579258.419 5  23419567.030       -1183.705
  -7227185.115 6  -5649807.165 6  22777391.701       -2461.711
   9470507.964 6   7580496.154 6  23438539.446        3434.921
  -4197727.592 8  -3458417.468 9  21445782.504        -681.361
 92 10 20 18  2 30.0010000  0  6 20  3 26 23 16 17                   0.001485630
  15679827.359 6   8403094.124 6  23127238.394        3698.852
  -4091786.739 8  -3337284.061 9  21184874.865        -749.980
  -5914822.201 6  -4606782.549 5  23412844.826       -1171.000
  -7300887.322 6  -5707237.412 6  22763366.679       -2451.582
   9573676.806 6   7660887.378 6  23458172.294        3442.960
  -4218039.793 8  -3474245.155 9  21441917.001        -672.759
 92 10 20 18  3  0.0010000  0  6 20  3 26 23 16 17                   0.001493980
  15790900.355 6   8489644.397 6  23148375.462        3705.927
  -4114148.123 8  -3354708.514 9  21180619.812        -741.033
  -5949754.854 6  -4634002.703 5  23406197.066       -1157.891
  -7374269.106 6  -5764417.976 6  22749402.964       -2440.590
   9677081.979 6   7741462.726 6  23477849.311        3450.588
  -4238096.238 8  -3489873.544 9  21438100.373        -664.513
 92 10 20 18  3 30.0010000  0  6 20  3 26 23 16 17                   0.001502300
  15902183.990 6   8576358.815 6  23169551.853        3712.758
  -4136241.845 8  -3371924.407 9  21176415.573        -732.254
  -5984292.938 6  -4660915.408 5  23399624.636       -1144.827
  -7447325.196 6  -5821344.734 7  22735500.531       -2429.961
   9780706.494 6   7822209.006 6  23497568.450        3457.543
  -4257910.009 8  -3505312.848 9  21434329.673        -656.645
 92 10 20 18  4  0.0010000  0  6 20  3 26 23 16 17                   0.001510580
  16013677.239 6   8663236.554 6  23190769.282        3719.692
  -4158063.566 8  -3388928.351 9  21172262.937        -723.146
  -6018430.358 6  -4687515.915 5  23393127.713       -1131.273
  -7520062.436 6  -5878023.068 7  22721659.171       -2419.739
   9884549.525 6   7903125.561 6  23517328.911        3464.921
  -4277484.652 8  -3520565.813 9  21430605.030        -648.730
 92 10 20 18  4 30.0010000  0  6 20  3 26 23 16 17                   0.001518890
  16125449.327 6   8750331.571 6  23212039.227        3731.343
  -4179539.223 8  -3405662.630 9  21168176.107        -709.140
  -6052084.118 6  -4713739.550 5  23386723.229       -1112.970
  -7592422.247 6  -5934407.295 7  22707889.623       -2404.657
   9988689.525 6   7984273.534 6  23537146.960        3477.450
  -4296744.754 8  -3535573.673 9  21426939.947        -635.777
 92 10 20 18  5  0.0010000  0  6 20  3 26 23 16 17                   0.001527220
  16237462.876 6   8837614.761 6  23233354.254        3736.611
  -4200700.829 8  -3422152.194 9  21164149.494        -701.349
  -6085309.359 6  -4739629.247 5  23380400.596       -1101.695
  -7664438.661 6  -5990523.944 7  22694185.222       -2396.117
  10093104.783 6   8065635.987 6  23557016.737        3484.051
  -4315729.947 8  -3550367.310 9  21423327.560        -629.510
 92 10 20 18  5 30.0010000  0  6 20  3 26 23 16 17                   0.001535540
  16349632.333 6   8925019.419 6  23254699.884        3741.122
  -4221628.948 8  -3438459.817 9  21160166.711        -694.258
  -6118200.277 6  -4765258.459 5  23374141.449       -1091.126
  -7736205.477 6  -6046446.087 7  22680528.095       -2388.422
  10197717.259 6   8147152.117 6  23576923.964        3489.871
  -4334532.495 8  -3565018.617 9  21419749.647        -624.239
 92 10 20 18  6  0.0010000  0  6 20  3 26 23 16 17                   0.001543810
  16461919.845 6   9012516.071 6  23276066.135        3744.624
  -4242356.477 8  -3454611.140 9  21156222.303        -687.849
  -6150773.566 6  -4790640.192 6  23367943.428       -1080.381
  -7807745.492 6  -6102191.490 6  22666914.651       -2380.896
  10302490.057 6   8228793.147 6  23596861.302        3494.751
  -4353190.944 7  -3579557.663 9  21416198.516        -619.631
 92 10 20 18  6 30.0010000  0  6 20  3 26 23 16 17                   0.001552030
  16574301.501 6   9100086.063 6  23297452.808        3745.510
  -4262901.898 8  -3470620.556 9  21152312.619        -683.944
  -6183028.740 6  -4815773.994 6  23361805.718       -1071.910
  -7879061.783 6  -6157762.594 6  22653343.567       -2375.362
  10407395.311 6   8310537.406 6  23616823.653        3497.056
  -4371714.630 8  -3593991.706 9  21412673.464        -617.246
 92 10 20 18  7  0.0010000  0  6 20  3 26 23 16 17                   0.001560150
  16686732.195 6   9187694.273 6  23318847.968        3749.839
  -4283304.804 8  -3486518.924 9  21148430.246        -676.472
  -6214997.529 6  -4840684.673 6  23355722.490       -1059.330
  -7950186.145 6  -6213184.135 6  22639809.045       -2366.239
  10512388.486 6   8392350.186 6  23636802.932        3502.450
  -4390144.275 8  -3608352.442 9  21409166.764        -611.288
 92 10 20 18  7 30.0010000  0  6 20  3 26 23 16 17                   0.001568220
  16799293.050 6   9275403.902 6  23340266.689        3754.192
  -4303479.513 8  -3502239.481 9  21144591.362        -668.728
  -6246583.606 6  -4865297.184 6  23349711.682       -1046.334
  -8021030.099 6  -6268387.151 6  22626327.469       -2356.610
  10617546.761 6   8474291.599 6  23656814.508        3508.161
  -4408384.424 8  -3622565.549 9  21405695.425        -604.588
 92 10 20 18  8  0.0010000  0  6 20  3 26 23 16 17                   0.001576260
  16911993.620 6   9363222.413 6  23361713.812        3759.040
  -4323410.827 8  -3517770.391 9  21140798.572        -660.339
  -6277770.855 6  -4889598.858 6  23343777.829       -1033.003
  -8091571.984 6  -6323354.825 6  22612904.502       -2346.194
  10722885.455 6   8556373.596 6  23676859.792        3514.387
  -4426406.162 8  -3636608.453 9  21402266.228        -596.795
 92 10 20 18  8 30.0010000  0  6 20  3 26 23 16 17                   0.001584300
  17024844.218 6   9451157.821 6  23383188.140        3764.288
  -4343083.339 8  -3533099.613 9  21137054.982        -651.418
  -6308564.436 6  -4913593.834 6  23337917.344       -1019.967
  -8161798.082 6  -6378076.420 6  22599540.883       -2335.578
  10828422.908 6   8638610.461 6  23696942.458        3521.448
  -4444185.010 8  -3650462.082 9  21398883.312        -588.677
 92 10 20 18  9  0.0010000  0  6 20  3 26 23 16 17                   0.001592360
  17137853.701 6   9539217.036 6  23404693.256        3769.638
  -4362482.979 8  -3548216.206 9  21133363.478        -642.152
  -6338971.079 6  -4937287.277 6  23332131.561       -1007.253
  -8231702.953 6  -6432547.687 6  22586237.736       -2324.804
  10934173.712 6   8721013.598 6  23717066.377        3528.600
  -4461724.194 8  -3664128.972 9  21395545.982        -580.680
 92 10 20 18  9 30.0010000  0  6 20  3 26 23 16 17                   0.001600430
  17251022.831 6   9627400.651 6  23426229.038        3774.841
  -4381603.816 8  -3563115.568 9  21129724.946        -632.880
  -6368997.202 6  -4960684.187 6  23326417.537        -994.590
  -8301285.024 6  -6486767.436 6  22572996.809       -2314.046
  11040136.806 6   8803582.148 6  23737230.957        3535.405
  -4479033.754 8  -3677616.917 9  21392252.283        -573.415
 92 10 20 18 10  0.0010000  0  6 20  3 26 23 16 17                   0.001608510
  17364346.065 6   9715704.325 6  23447794.632        3779.952
  -4400446.575 8  -3577798.236 9  21126138.978        -623.531
  -6398640.850 6  -4983783.127 6  23320776.544        -981.775
  -8370549.085 6  -6540739.390 6  22559816.603       -2303.627
  11146294.790 6   8886302.555 6  23757432.351        3541.693
  -4496131.990 8  -3690940.229 9  21388998.534        -566.591
 92 10 20 18 10 30.0010000  0  6 20  3 26 23 16 17                   0.001616570
  17477823.646 6   9804128.299 6  23469388.089        3785.288
  -4419005.766 8  -3592259.947 9  21122607.183        -613.811
  -6427890.590 6  -5006575.103 6  23315209.565        -968.163
  -8439502.021 7  -6594468.917 6  22546694.696       -2293.163
  11252644.133 6   8969172.087 6  23777669.803        3548.285
  -4513025.072 7  -3704103.642 9  21385783.641        -559.545
 92 10 20 18 11  0.0010000  0  6 20  3 26 23 16 17                   0.001624620
  17591460.049 6   9892675.971 6  23491012.644        3790.384
  -4437271.368 8  -3606492.883 9  21119131.180        -604.149
  -6456730.841 6  -5029047.988 6  23309720.787        -954.519
  -8508137.839 6  -6647951.300 7  22533633.813       -2282.424
  11359180.299 6   9052187.138 6  23797942.807        3554.174
  -4529702.552 8  -3717099.089 9  21382609.456        -552.212
 92 10 20 18 11 30.0010000  0  6 20  3 26 23 16 17                   0.001632660
  17705259.896 6   9981351.105 6  23512667.562        3796.277
  -4455233.979 8  -3620489.717 9  21115712.995        -593.493
  -6485137.656 6  -5051183.140 6  23304315.204        -939.211
  -8576435.223 7  -6701170.008 7  22520636.708       -2270.579
  11465909.244 6   9135352.495 6  23818252.929        3561.208
  -4546142.926 8  -3729909.743 9  21379481.332        -543.625
 92 10 20 18 12  0.0010000  0  6 20  3 26 23 16 17                   0.001640700
  17819231.253 6  10070159.809 6  23534355.727        3801.759
  -4472880.167 8  -3634239.998 9  21112355.251        -583.118
  -6513088.440 6  -5072962.947 6  23298996.400        -924.167
  -8644373.833 6  -6754109.145 7  22507708.705       -2258.618
  11572850.227 6   9218683.014 5  23838603.239        3568.261
  -4562320.918 7  -3742515.968 9  21376402.934        -534.848
 92 10 20 18 12 30.0010000  0  6 20  3 26 23 16 17                   0.001648750
  17933361.979 6  10159092.709 6  23556075.438        3806.824
  -4490217.030 8  -3647749.230 9  21109056.264        -572.951
  -6540581.994 6  -5094386.451 6  23293765.063        -908.844
  -8711950.183 6  -6806766.005 7  22494849.710       -2246.521
  11680001.001 6   9302177.041 5  23858992.881        3574.925
  -4578236.338 8  -3754917.594 9  21373374.172        -526.458
 92 10 20 18 13  0.0010000  0  6 20  3 26 23 16 17                   0.001656780
  18047641.558 6  10248141.605 5  23577820.832        3811.814
  -4507249.490 8  -3661021.275 9  21105814.889        -562.672
  -6567622.571 6  -5115457.019 6  23288619.686        -893.714
  -8779162.526 7  -6859139.182 7  22482059.254       -2234.194
  11787347.675 6   9385823.699 5  23879419.941        3581.501
  -4593909.764 8  -3767130.620 9  21370391.807        -518.448
 92 10 20 18 13 30.0010000  0  6 20  3 26 23 16 17                   0.001664830
  18162065.227 6  10337302.753 5  23599596.460        3816.548
  -4523977.372 8  -3674055.990 9  21102631.692        -552.502
  -6594212.848 6  -5136176.682 6  23283559.317        -878.874
  -8846018.600 7  -6911234.791 7  22469337.222       -2222.798
  11894884.422 6   9469618.464 5  23899884.602        3587.743
  -4609354.764 8  -3779165.686 9  21367452.611        -511.063
 92 10 20 18 14  0.0010000  0  6 20  3 26 23 16 17                   0.001672850
  18276634.751 6  10426577.569 5  23621397.397        3821.347
  -4540393.565 8  -3686847.833 9  21099507.576        -542.059
  -6620358.297 6  -5156549.729 6  23278584.573        -864.167
  -8912529.739 7  -6963061.607 7  22456680.515       -2211.470
  12002607.973 6   9553558.817 5  23920384.191        3593.790
  -4624574.004 8  -3791024.811 9  21364556.554        -503.632
 92 10 20 18 14 30.0010000  0  6 20  3 26 23 16 17                   0.001680870
  18391351.308 6  10515966.950 5  23643227.835        3826.220
  -4556492.265 8  -3699392.269 9  21096444.046        -531.469
  -6646057.929 6  -5176575.384 6  23273693.860        -849.395
  -8978711.988 7  -7014632.147 7  22444086.763       -2200.923
  12110514.892 6   9637642.027 5  23940918.536        3599.844
  -4639576.788 8  -3802715.274 9  21361701.202        -496.725
 92 10 20 18 15  0.0010000  0  6 20  3 26 23 16 17                   0.001688890
  18506206.141 6  10605464.080 5  23665083.832        3830.816
  -4572276.836 8  -3711691.926 9  21093440.485        -520.955
  -6671330.296 6  -5196268.126 6  23268884.675        -835.397
  -9044583.502 7  -7065960.545 7  22431551.742       -2190.469
  12218596.636 6   9721861.469 5  23961485.478        3605.766
  -4654367.253 8  -3814240.300 9  21358886.560        -489.174
 92 10 20 18 15 30.0010000  0  6 20  3 26 23 16 17                   0.001696920
  18621198.405 6  10695068.303 5  23686966.921        3835.300
  -4587742.721 8  -3723743.277 9  21090497.401        -510.325
  -6696179.770 6  -5215631.329 6  23264156.103        -821.210
  -9110141.885 7  -7117044.958 7  22419076.417       -2180.084
  12326865.951 6   9806227.110 5  23982088.436        3612.346
  -4668924.858 8  -3825583.878 9  21356116.447        -481.433
 92 10 20 18 16  0.0010000  0  6 20  3 26 23 16 17                   0.001704960
  18736321.067 6  10784774.124 5  23708872.858        3839.620
  -4602891.940 8  -3735547.847 9  21087615.178        -499.770
  -6720602.263 6  -5234661.818 6  23259508.665        -806.834
  -9175383.648 7  -7167882.653 7  22406661.382       -2169.197
  12435328.078 6   9890742.940 5  24002727.728        3618.605
  -4683255.510 8  -3836750.599 9  21353389.047        -473.879
 92 10 20 18 16 30.0010000  0  6 20  3 26 23 16 17                   0.001713030
  18851569.626 6  10874578.056 5  23730805.114        3843.793
  -4617723.970 8  -3747105.274 9  21084792.342        -489.069
  -6744591.766 6  -5253354.920 6  23254943.777        -792.316
  -9240293.130 7  -7218461.419 7  22394309.312       -2157.684
  12543976.498 6   9975403.974 5  24023403.191        3624.710
  -4697357.988 8  -3847739.538 9  21350705.762        -466.104
 92 10 20 18 17  0.0010000  0  6 20  3 26 23 16 17                   0.001721110
  18966941.712 6  10964478.231 5  23752759.530        3847.639
  -4632235.533 8  -3758412.986 9  21082031.314        -478.571
  -6768149.930 6  -5271711.886 6  23250459.103        -778.135
  -9304844.197 7  -7268760.905 7  22382025.817       -2145.714
  12652807.523 6  10060207.235 5  24044113.068        3630.812
  -4711220.885 8  -3858541.774 9  21348067.641        -458.204
 92 10 20 18 17 30.0010000  0  6 20  3 26 23 16 17                   0.001729220
  19082437.799 6  11054475.065 5  23774737.473        3851.867
  -4646421.412 8  -3769466.915 9  21079331.502        -467.523
  -6791265.052 6  -5289723.622 6  23246060.618        -762.919
  -9369028.600 7  -7318774.667 7  22369811.553       -2133.399
  12761835.693 6  10145164.176 5  24064859.726        3637.546
  -4724849.207 8  -3869161.235 9  21345474.237        -450.566
 92 10 20 18 18  0.0010000  0  6 20  3 26 23 16 17                   0.001737330
  19198056.962 6  11144567.736 5  23796739.190        3855.970
  -4660277.138 8  -3780263.576 9  21076694.408        -456.491
  -6813918.952 6  -5307376.014 6  23241750.262        -747.513
  -9432842.644 7  -7368499.854 7  22357667.891       -2120.977
  12871050.196 6  10230266.286 5  24085642.886        3643.214
  -4738246.077 8  -3879600.336 9  21342925.459        -442.551
 92 10 20 18 18 30.0010000  0  6 20  3 26 23 16 17                   0.001745450
  19313799.474 6  11234756.557 5  23818763.962        3860.454
  -4673797.586 8  -3790798.998 9  21074122.067        -444.807
  -6836104.957 6  -5324663.770 6  23237528.713        -731.252
  -9496282.251 7  -7417933.254 7  22345595.587       -2108.147
  12980442.401 6  10315506.843 5  24106460.095        3649.744
  -4751396.685 8  -3889847.545 9  21340422.384        -434.006
 92 10 20 18 19  0.0010000  0  6 20  3 26 23 16 17                   0.001753590
  19429677.887 6  11325051.282 5  23840814.238        3864.816
  -4686964.774 8  -3801059.127 9  21071616.475        -433.132
  -6857794.285 6  -5341564.492 6  23233402.044        -714.492
  -9559341.125 7  -7467069.992 7  22333596.114       -2095.784
  13090035.660 6  10400904.089 6  24127315.505        3656.373
  -4764286.575 8  -3899891.600 9  21337969.062        -425.354
 92 10 20 18 19 30.0010000  0  6 20  3 26 23 16 17                   0.001761740
  19545683.356 6  11415444.997 5  23862889.364        3868.874
  -4699782.275 8  -3811046.795 9  21069177.393        -421.505
  -6878974.732 6  -5358068.697 6  23229371.698        -697.501
  -9622032.192 7  -7515920.117 7  22321666.532       -2083.519
  13199814.207 6  10486445.682 5  24148205.922        3662.160
  -4776921.492 8  -3909736.974 9  21335564.746        -416.864
 92 10 20 18 20  0.0010000  0  6 20  3 26 23 16 17                   0.001769870
  19661803.839 6  11505928.321 5  23884986.029        3872.548
  -4712256.980 8  -3820767.339 9  21066803.177        -410.205
  -6899656.069 6  -5374183.988 6  23225436.658        -681.214
  -9684355.029 7  -7564483.311 7  22309806.124       -2071.178
  13309751.212 6  10572110.777 5  24169126.432        3667.146
  -4789303.680 8  -3919385.420 9  21333208.637        -408.417
 92 10 20 18 20 30.0010000  0  6 20  3 26 23 16 17                   0.001778010
  19778031.223 6  11596494.986 5  23907104.087        3875.887
  -4724392.019 7  -3830223.220 9  21064494.094        -399.068
  -6919854.805 6  -5389923.213 6  23221590.139        -665.418
  -9746303.349 7  -7612754.673 7  22298017.730       -2058.678
  13419841.996 6  10657895.677 5  24190076.257        3672.210
  -4801438.686 8  -3928841.254 9  21330899.645        -400.626
 92 10 20 18 21  0.0010000  0  6 20  3 26 23 16 17                   0.001786130
  19894353.443 6  11687135.467 5  23929239.592        3878.796
  -4736194.210 7  -3839419.733 9  21062247.759        -388.063
  -6939593.247 6  -5405303.773 6  23217835.714        -650.652
  -9807877.716 7  -7660734.636 7  22286300.616       -2046.445
  13530075.015 6  10743791.441 5  24211052.925        3676.413
  -4813338.442 8  -3938113.757 9  21328634.783        -392.965
 92 10 20 18 21 30.0010000  0  6 20  3 26 23 16 17                   0.001794230
  20010765.628 6  11777846.121 5  23951391.814        3881.911
  -4747663.541 8  -3848356.877 9  21060065.290        -376.824
  -6958891.276 6  -5420341.190 6  23214163.433        -636.083
  -9869082.226 7  -7708426.412 7  22274653.839       -2033.967
  13640435.592 6  10829786.585 5  24232053.249        3680.857
  -4825013.350 8  -3947211.081 9  21326412.951        -385.444
 92 10 20 18 22  0.0010000  0  6 20  3 26 23 16 17                   0.001802330
  20127263.689 6  11868623.676 5  23973562.228        3884.533
  -4758799.134 8  -3857033.954 9  21057946.527        -365.809
  -6977759.399 6  -5435043.575 6  23210570.149        -621.879
  -9929917.086 7  -7755830.144 7  22263077.124       -2021.872
  13750923.728 6  10915881.129 5  24253077.785        3684.791
  -4836464.060 8  -3956133.692 9  21324233.381        -378.051
 92 10 20 18 22 30.0010000  0  6 20  3 26 23 16 17                   0.001810410
  20243835.926 6  11959459.032 5  23995745.213        3887.122
  -4769606.927 8  -3865455.605 9  21055889.691        -354.706
  -6996198.888 6  -5449411.962 6  23207062.492        -607.120
  -9990393.777 7  -7802954.789 7  22251568.806       -2009.713
  13861526.194 5  11002064.776 5  24274124.134        3688.879
  -4847703.581 8  -3964891.756 9  21322094.390        -371.043
 92 10 20 18 23  0.0010000  0  6 20  3 26 23 16 17                   0.001818480
  20360488.663 6  12050357.087 5  24017942.474        3890.002
  -4780075.961 8  -3873613.291 9  21053897.250        -343.146
  -7014181.469 6  -5463424.313 6  23203640.418        -591.342
 -10050514.682 7  -7849802.172 7  22240128.220       -1998.074
  13972253.958 5  11088346.032 5  24295194.387        3693.360
  -4858725.756 8  -3973480.446 9  21319997.463        -363.549
 92 10 20 18 23 30.0010000  0  6 20  3 26 23 16 17                   0.001826560
  20477234.440 6  12141327.650 5  24040159.394        3893.044
  -4790188.124 7  -3881492.895 9  21051973.021        -331.240
  -7031670.122 6  -5477051.784 6  23200312.887        -574.644
 -10110276.148 7  -7896369.493 7  22228756.323       -1985.949
  14083140.844 5  11174751.309 5  24316295.457        3699.105
  -4869516.954 8  -3981889.153 9  21317943.924        -355.802
 92 10 20 18 24  0.0010000  0  6 20  3 26 23 16 17                   0.001834660
  20594073.236 5  12232370.667 5  24062392.762        3896.325
  -4799938.802 7  -3889090.820 9  21050117.569        -318.832
  -7048652.162 6  -5490284.508 6  23197081.852        -557.299
 -10169660.545 7  -7942642.997 7  22217455.674       -1973.039
  14194202.032 5  11261292.369 5  24337430.834        3705.067
  -4880072.079 8  -3990113.921 9  21315935.675        -347.859
 92 10 20 18 24 30.0010000  0  6 20  3 26 23 16 17                   0.001842790
  20711011.256 5  12323490.993 5  24084646.288        3899.582
  -4809316.611 8  -3896398.195 9  21048333.412        -306.451
  -7065111.702 6  -5503110.069 6  23193949.671        -539.927
 -10228660.216 7  -7988616.736 7  22206227.968       -1960.379
  14305452.273 5  11347980.766 5  24358601.690        3711.624
  -4890397.870 8  -3998159.991 9  21313970.504        -340.410
 92 10 20 18 25  0.0010000  0  6 20  3 26 23 16 17                   0.001850940
  20828044.860 5  12414685.876 5  24106915.971        3902.543
  -4818320.001 8  -3903413.806 9  21046620.337        -294.071
  -7081049.126 6  -5515528.787 6  23190917.811        -522.869
 -10287287.569 7  -8034300.328 8  22195071.811       -1948.238
  14416897.768 5  11434821.365 5  24379809.607        3717.970
  -4900494.975 8  -4006027.853 9  21312049.106        -332.861
 92 10 20 18 25 30.0010000  0  6 20  3 26 23 16 17                   0.001859130
  20945165.470 5  12505948.498 5  24129203.661        3905.224
  -4826952.761 7  -3910140.637 9  21044977.275        -281.864
  -7096492.297 6  -5527562.400 6  23187978.680        -506.969
 -10345543.523 7  -8079694.540 8  22183986.206       -1935.754
  14528520.559 5  11521800.087 5  24401050.808        3723.133
  -4910368.789 8  -4013721.716 9  21310170.525        -325.531
 92 10 20 18 26  0.0010000  0  6 20  3 26 23 16 17                   0.001867310
  21062348.816 5  12597259.989 5  24151503.501        3906.920
  -4835234.102 7  -3916593.629 9  21043401.507        -270.504
  -7111471.366 6  -5539234.328 6  23185127.330        -491.632
 -10403442.175 7  -8124810.337 8  22172968.223       -1924.349
  14640262.627 5  11608871.673 5  24422314.261        3726.293
  -4920036.662 8  -4021255.132 9  21308330.820        -318.975
 92 10 20 18 26 30.0010000  0  6 20  3 26 23 16 17                   0.001875470
  21179577.344 5  12688606.740 5  24173811.482        3908.311
  -4843176.200 7  -3922782.260 9  21041889.863        -259.124
  -7125995.053 6  -5550551.478 6  23182363.953        -476.632
 -10461008.779 7  -8169667.384 8  22162013.517       -1913.355
  14752094.820 5  11696013.560 5  24443595.252        3729.214
  -4929497.981 8  -4028627.564 9  21306530.207        -311.614
 92 10 20 18 27  0.0010000  0  6 20  3 26 23 16 17                   0.001883600
  21296847.692 6  12779986.063 5  24196127.351        3909.700
  -4850777.440 7  -3928705.306 9  21040443.476        -247.789
  -7140072.240 6  -5561520.687 6  23179685.559        -461.880
 -10518240.362 7  -8214263.372 8  22151122.948       -1901.972
  14864005.309 6  11783216.446 5  24464891.496        3731.469
  -4938729.871 8  -4035821.237 9  21304773.263        -303.840
 92 10 20 18 27 30.0010000  0  6 20  3 26 23 16 17                   0.001891700
  21414159.698 5  12871397.806 5  24218450.376        3911.052
  -4858032.958 7  -3934358.945 9  21039062.688        -236.148
  -7153704.439 6  -5572143.160 6  23177090.996        -446.776
 -10575117.471 7  -8258583.155 8  22140299.511       -1889.894
  14975984.543 6  11870472.914 5  24486200.315        3733.699
  -4947723.252 8  -4042829.063 9  21303062.218        -295.712
 92 10 20 18 28  0.0010000  0  6 20  3 26 23 16 17                   0.001899770
  21531513.095 5  12962841.878 5  24240781.834        3912.513
  -4864937.715 7  -3939739.282 9  21037748.758        -224.308
  -7166864.195 6  -5582397.466 6  23174585.840        -430.647
 -10631630.319 7  -8302619.107 8  22129544.876       -1877.568
  15088030.496 6  11957781.330 5  24507522.187        3736.296
  -4956473.822 8  -4049647.673 9  21301397.071        -287.699
 92 10 20 18 28 30.0010000  0  6 20  3 26 23 16 17                   0.001907830
  21648908.637 6  13054318.730 5  24263123.229        3913.890
  -4871486.189 8  -3944841.994 9  21036502.741        -212.385
  -7179550.399 6  -5592282.802 6  23172171.890        -415.041
 -10687769.084 7  -8346363.542 8  22118862.080       -1864.952
  15200168.096 5  12045161.147 5  24528861.463        3739.563
  -4964988.179 8  -4056282.240 9  21299776.922        -279.995
 92 10 20 18 29  0.0010000  0  6 20  3 26 23 16 17                   0.001915880
  21766341.933 6  13145824.989 5  24285470.778        3915.143
  -4877677.720 7  -3949666.546 9  21035324.580        -200.428
  -7191764.845 6  -5601800.531 6  23169848.696        -399.047
 -10743522.947 7  -8389808.069 8  22108253.153       -1851.852
  15312397.192 5  12132612.292 5  24550217.906        3742.593
  -4973290.217 8  -4062751.354 9  21298197.035        -273.394
 92 10 20 18 29 30.0010000  0  6 20  3 26 23 16 17                   0.001923910
  21883817.868 6  13237364.485 5  24307825.401        3916.538
  -4883502.565 7  -3954205.379 9  21034215.965        -188.123
  -7203485.688 6  -5610933.641 6  23167618.901        -382.225
 -10798881.975 7  -8432944.925 8  22097718.470       -1838.780
  15424730.500 6  12220144.629 5  24571594.417        3746.356
  -4981393.079 8  -4069065.269 9  21296654.794        -266.858
 92 10 20 18 30  0.0010000  0  6 20  3 26 23 16 17                   0.001931930
  22001331.421 6  13328933.292 5  24330188.079        3917.705
  -4888960.543 7  -3958458.365 9  21033176.974        -175.896
  -7214702.627 6  -5619674.102 6  23165484.708        -365.757
 -10853850.552 7  -8475777.538 8  22087258.191       -1825.820
  15537182.933 6  12307769.812 5  24592993.255        3750.693
  -4989313.451 8  -4075236.982 9  21295147.877        -261.111
 92 10 20 18 30 30.0010000  0  6 20  3 26 23 16 17                   0.001939970
  22118872.118 6  13420523.272 5  24352555.627        3918.295
  -4894056.929 8  -3962429.561 9  21032207.345        -164.017
  -7225441.298 6  -5628041.888 6  23163438.907        -349.853
 -10908441.672 7  -8518316.016 8  22076869.810       -1813.683
  15649766.000 6  12395496.745 5  24614417.213        3754.759
  -4997062.361 8  -4081275.085 9  21293673.416        -255.449
 92 10 20 18 31  0.0010000  0  6 20  3 26 23 16 17                   0.001948010
  22236432.553 6  13512128.621 5  24374927.206        3919.005
  -4898794.300 7  -3966121.011 9  21031305.749        -152.023
  -7235688.039 6  -5636026.315 6  23161488.558        -333.303
 -10962663.690 7  -8560566.886 8  22066551.734       -1801.289
  15762465.127 6  12483314.164 5  24635863.358        3758.437
  -5004638.643 8  -4087178.675 9  21292232.145        -249.571
 92 10 20 18 31 30.0010000  0  6 20  3 26 23 16 17                   0.001956040
  22354005.558 5  13603743.757 5  24397299.513        3919.555
  -4903174.808 7  -3969534.404 9  21030472.068        -139.918
  -7245441.762 6  -5643626.618 6  23159634.056        -316.746
 -11016527.564 7  -8602538.696 8  22056301.800       -1789.329
  15875279.681 6  12571221.496 5  24657331.004        3762.713
  -5012031.230 8  -4092939.116 9  21290825.378        -242.989
 92 10 20 18 32  0.0010000  0  6 20  3 26 23 16 17                   0.001964080
  22471595.893 5  13695372.404 5  24419676.739        3920.008
  -4907188.853 7  -3972662.232 9  21029708.066        -127.654
  -7254698.842 6  -5650839.923 6  23157873.956        -300.413
 -11070025.514 7  -8644225.366 8  22046121.278       -1777.127
  15988215.648 5  12659223.412 5  24678822.009        3766.388
  -5019221.248 8  -4098541.729 9  21289456.876        -236.130
 92 10 20 18 32 30.0010000  0  6 20  3 26 23 16 17                   0.001972120
  22589208.703 5  13787018.573 5  24442057.416        3920.837
  -4910826.791 7  -3975496.980 9  21029015.827        -115.009
  -7263452.958 6  -5657661.287 6  23156208.483        -283.002
 -11123152.532 7  -8685622.997 8  22036010.997       -1764.622
  16101254.318 5  12747305.383 5  24700332.377        3769.285
  -5026186.953 8  -4103969.547 9  21288131.711        -228.271
 92 10 20 18 33  0.0010000  0  6 20  3 26 23 16 17                   0.001980150
  22706846.067 5  13878683.836 5  24464443.480        3921.529
  -4914080.942 7  -3978032.697 9  21028396.374        -102.205
  -7271685.073 6  -5664075.888 6  23154640.525        -266.070
 -11175891.797 7  -8726718.475 8  22025974.865       -1751.465
  16214377.700 5  12835453.325 5  24721859.381        3772.166
  -5032916.676 8  -4109213.463 9  21286851.040        -220.433
 92 10 20 18 33 30.0010000  0  6 20  3 26 23 16 17                   0.001988170
  22824500.216 5  13970362.203 5  24486832.529        3922.093
  -4916954.037 7  -3980271.468 9  21027849.923         -89.450
  -7279419.873 6  -5670102.976 6  23153168.375        -249.501
 -11228250.320 7  -8767517.280 8  22016012.024       -1738.852
  16327582.300 5  12923664.605 5  24743401.866        3774.763
  -5039408.526 8  -4114272.041 9  21285615.475        -212.420
 92 10 20 18 34  0.0010000  0  6 20  3 26 23 16 17                   0.001996180
  22942169.709 5  14062052.501 5  24509224.465        3922.453
  -4919442.909 7  -3982210.851 9  21027376.319         -76.705
  -7286663.901 6  -5675747.646 6  23151790.658        -233.464
 -11280223.370 7  -8808015.744 8  22006122.100       -1726.104
  16440855.403 5  13011929.201 5  24764957.139        3776.756
  -5045664.558 8  -4119146.868 9  21284425.168        -204.690
 92 10 20 18 34 30.0020000  0  6 20  3 26 23 16 17                   0.002004170
  23059846.960 5  14153748.883 5  24531618.235        3922.518
  -4921554.015 7  -3983855.871 9  21026974.787         -64.121
  -7293435.402 6  -5681024.124 6  23150501.529        -217.864
 -11331820.139 7  -8848220.943 8  21996303.116       -1713.507
  16554187.702 5  13100239.967 5  24786523.346        3778.759
  -5051694.506 8  -4123845.509 9  21283277.523        -197.171
 92 10 20 18 35  0.0020000  0  6 20  3 26 23 16 17                   0.002012160
  23177516.135 5  14245438.952 5  24554009.963        3922.236
  -4923290.810 7  -3985209.219 9  21026643.967         -51.636
  -7299750.628 6  -5685945.055 6  23149299.673        -202.963
 -11383046.657 7  -8888137.695 8  21986555.014       -1701.450
  16667581.573 5  13188598.694 5  24808102.140        3781.082
  -5057506.702 8  -4128374.479 9  21282171.250        -190.052
 92 10 20 18 35 30.0020000  0  6 20  3 26 23 16 17                   0.002020160
  23295187.883 5  14337131.027 5  24576401.973        3922.524
  -4924641.202 7  -3986261.459 9  21026387.215         -38.579
  -7305604.447 6  -5690506.435 6  23148185.386        -187.109
 -11433906.928 7  -8927769.005 8  21976876.335       -1689.030
  16781055.864 5  13277020.057 5  24829695.766        3783.721
  -5063091.154 8  -4132725.992 9  21281108.415        -182.351
 92 10 20 18 36  0.0020000  0  6 20  3 26 23 16 17                   0.002028150
  23412860.985 5  14428824.180 5  24598793.927        3922.547
  -4925601.683 7  -3987009.896 9  21026204.294         -25.528
  -7310976.509 6  -5694692.431 6  23147162.631        -170.753
 -11484388.541 7  -8967105.314 8  21967270.104       -1676.275
  16894598.953 5  13365495.017 5  24851301.702        3785.967
  -5068453.559 8  -4136904.460 9  21280088.011        -175.017
 92 10 20 18 36 30.0020000  0  6 20  3 26 23 16 17                   0.002036130
  23530533.293 5  14520516.677 5  24621187.033        3922.315
  -4926169.567 7  -3987452.396 9  21026096.098         -12.542
  -7315839.986 6  -5698482.118 6  23146237.464        -153.359
 -11534479.833 7  -9006137.429 8  21957738.105       -1663.242
  17008213.968 5  13454026.088 5  24872922.127        3788.238
  -5073593.525 8  -4140909.633 9  21279109.809        -167.680
 92 10 20 18 37  0.0020000  0  7 20  3 26 23 16 17 21                0.002044000
  23648192.004 5  14612198.577 5  24643576.101        3921.651
  -4926352.814 7  -3987595.201 9  21026061.243           0.198
  -7320176.516 6  -5701861.211 6  23145412.175        -135.689
 -11584185.487 7  -9044869.090 8  21948279.443       -1650.238
  17121882.651 5  13542598.905 5  24894552.034        3789.799
  -5078521.872 8  -4144749.887 9  21278171.877        -160.752
   -193243.59015   -163899.34911  25125835.754       -2946.636
 92 10 20 18 37 30.0020000  0  7 20  3 26 23 16 17 21                0.002051940
  23765828.337 5  14703863.105 5  24665960.930        3921.006
  -4926154.998 7  -3987441.047 9  21026098.605          12.995
  -7323973.442 6  -5704819.799 6  23144689.123        -117.275
 -11633493.411 7  -9083290.810 8  21938896.140       -1636.765
  17235594.944 5  13631205.757 5  24916190.521        3791.317
  -5083245.333 8  -4148430.486 9  21277273.161        -154.020
   -281586.550 5   -232737.842 3  25109025.248       -2942.720
 92 10 20 18 38  0.0020000  0  7 20  3 26 23 16 17 21                0.002059850
  23883445.014 5  14795512.253 5  24688344.293        3920.080
  -4925569.116 7  -3986984.513 9  21026210.288          25.804
  -7327222.569 6  -5707351.555 6  23144071.071         -99.469
 -11682393.720 7  -9121394.898 8  21929590.281       -1623.406
  17349363.580 5  13719856.481 5  24937840.144        3793.318
  -5087768.816 8  -4151955.277 9  21276412.335        -147.619
   -369812.736 5   -301485.447 5  25092235.108       -2939.093
 92 10 20 18 38 30.0020000  0  7 20  3 26 23 16 17 21                0.002067760
  24001040.089 5  14887144.589 5  24710722.036        3919.490
  -4924592.595 7  -3986223.602 9  21026396.169          39.004
  -7329939.507 6  -5709468.635 6  23143554.169         -82.045
 -11730896.654 7  -9159189.338 8  21920360.559       -1610.327
  17463202.370 5  13808561.891 5  24959503.155        3795.844
  -5092093.037 8  -4155324.791 9  21275589.316        -140.817
   -457915.124 5   -370136.504 5  25075470.272       -2934.622
 92 10 20 18 39  0.0020000  0  7 20  3 26 23 16 17 21                0.002075660
  24118606.487 5  14978754.593 5  24733093.866        3918.188
  -4923227.075 7  -3985159.572 9  21026656.000          51.754
  -7332165.928 6  -5711203.475 6  23143130.634         -66.597
 -11779020.487 7  -9196688.426 9  21911203.058       -1597.894
  17577105.528 5  13897317.430 5  24981178.640        3797.647
  -5096227.764 8  -4158546.660 9  21274802.512        -134.941
   -545893.907 5   -438691.326 5  25058727.416       -2930.896
 92 10 20 18 39 30.0020000  0  7 20  3 26 23 16 17 21                0.002083550
  24236129.467 5  15070330.743 5  24755458.572        3916.546
  -4921482.985 7  -3983800.538 9  21026987.660          64.286
  -7333936.993 6  -5712583.491 6  23142793.120         -51.472
 -11826778.532 7  -9233902.433 8  21902115.350       -1586.058
  17691054.855 5  13986108.975 5  25002862.784        3798.903
  -5100197.150 8  -4161639.678 9  21274046.994        -129.748
   -633773.645 5   -507168.897 5  25042004.731       -2927.864
 92 10 20 18 40  0.0020000  0  7 20  3 26 23 16 17 21                0.002091420
  24353601.916 5  15161867.523 5  24777812.008        3914.825
  -4919362.388 7  -3982148.139 9  21027391.151          76.842
  -7335255.095 6  -5713610.533 6  23142542.582         -36.403
 -11874185.792 7  -9270843.117 9  21893093.487       -1574.499
  17805035.613 5  14074925.008 5  25024553.110        3799.778
  -5104008.789 8  -4164609.779 9  21273321.645        -124.349
   -721563.169 5   -575576.192 5  25025299.562       -2924.775
 92 10 20 18 40 30.0020000  0  7 20  3 26 23 16 17 21                0.002099250
  24471017.051 5  15253359.607 5  24800154.799        3912.836
  -4916867.395 7  -3980203.983 9  21027866.111          89.296
  -7336116.484 6  -5714281.728 6  23142378.722         -20.972
 -11921249.015 7  -9307515.719 9  21884137.546       -1562.971
  17919037.173 5  14163757.282 5  25046246.894        3800.370
  -5107654.558 8  -4167450.628 9  21272627.855        -118.661
   -809272.015 5   -643920.603 5  25008610.571       -2922.453
 92 10 20 18 41  0.0020000  0  7 20  3 26 23 16 17 21                0.002107040
  24588370.337 5  15344803.558 5  24822488.155        3910.834
  -4913997.609 7  -3977967.789 9  21028411.945         101.921
  -7336509.191 6  -5714587.686 6  23142304.853          -4.863
 -11967960.349 7  -9343914.123 9  21875249.090       -1551.008
  18033049.813 5  14252598.172 5  25067942.905        3800.564
  -5111132.741 8  -4170160.890 9  21271966.085        -112.920
   -896912.083 5   -712211.441 5  24991933.214       -2919.963
 92 10 20 18 41 30.0020000  0  7 20  3 26 23 16 17 21                0.002114800
  24705666.413 5  15436202.882 5  24844809.576        3908.950
  -4910743.791 7  -3975432.342 9  21029031.124         114.907
  -7336395.129 6  -5714498.760 6  23142326.981          12.574
 -12014311.498 7  -9380031.867 9  21866428.429       -1538.969
  18147081.196 5  14341453.661 5  25089642.902        3801.684
  -5114425.596 8  -4172726.728 9  21271339.339        -106.503
   -984464.064 5   -780433.645 5  24975272.006       -2916.606
 92 10 20 18 42  0.0020000  0  7 20  3 26 23 16 17 21                0.002122550
  24822917.185 5  15527566.920 5  24867120.122        3907.852
  -4907089.354 7  -3972584.735 9  21029726.706         128.699
  -7335755.776 6  -5714000.545 6  23142448.548          30.155
 -12060287.479 7  -9415857.264 9  21857679.473       -1525.925
  18261162.603 5  14430348.135 5  25111352.143        3803.928
  -5117507.456 8  -4175128.178 9  21270752.893         -98.757
  -1071901.097 5   -848566.245 5  24958633.010       -2912.285
 92 10 20 18 42 30.0020000  0  7 20  3 26 23 16 17 21                0.002130290
  24940131.808 5  15618902.830 5  24889425.169        3906.390
  -4903020.555 7  -3969414.231 9  21030500.837         142.324
  -7334596.843 6  -5713097.458 6  23142669.192          47.083
 -12105868.557 7  -9451374.950 9  21849005.478       -1512.807
  18375301.597 5  14519287.449 5  25133071.818        3805.337
  -5120361.718 8  -4177352.255 9  21270210.050         -91.684
  -1159207.644 5   -916597.187 5  24942017.542       -2908.067
 92 10 20 18 43  0.0020000  0  7 20  3 26 23 16 17 21                0.002138030
  25057300.899 5  15710203.217 5  24911721.444        3904.867
  -4898541.831 7  -3965924.323 9  21031352.907         156.088
  -7332930.393 6  -5711798.916 6  23142985.824          64.058
 -12151053.934 7  -9486584.306 9  21840407.001       -1499.679
  18489481.360 5  14608258.567 5  25154799.748        3806.637
  -5123009.467 8  -4179415.429 9  21269705.899         -84.856
  -1246378.833 5   -984522.608 5  24925428.951       -2903.331
 92 10 20 18 43 30.0020000  0  7 20  3 26 23 16 17 21                0.002145770
  25174429.683 5  15801472.217 5  24934010.311        3903.758
  -4893643.472 7  -3962107.421 9  21032285.152         170.305
  -7330746.089 6  -5710096.796 6  23143400.837          81.516
 -12195840.741 7  -9521483.075 9  21831884.253       -1485.992
  18603714.962 5  14697271.638 5  25176537.872        3808.754
  -5125445.985 8  -4181314.004 9  21269242.160         -77.635
  -1333402.771 5  -1052333.348 5  24908868.728       -2898.448
 92 10 20 18 44  0.0020000  0  7 20  3 26 23 16 17 21                0.002153510
  25291521.472 5  15892712.342 5  24956292.539        3902.202
  -4888317.616 7  -3957957.388 9  21033298.868         184.378
  -7328040.559 6  -5707988.559 6  23143915.190          98.700
 -12240212.591 7  -9556058.506 9  21823440.608       -1472.456
  18718003.078 5  14786327.200 5  25198285.808        3810.099
  -5127665.651 8  -4183043.604 9  21268819.873         -70.569
  -1420283.327 5  -1120032.374 5  24892336.199       -2893.718
 92 10 20 18 44 30.0020000  0  7 20  3 26 23 16 17 21                0.002161230
  25408554.701 5  15983906.837 5  24978563.029        3899.852
  -4882580.878 7  -3953487.214 9  21034390.563         197.783
  -7324819.586 6  -5705478.706 6  23144527.886         116.088
 -12284193.050 7  -9590328.955 9  21815071.569       -1459.687
  18832312.817 5  14875399.605 5  25220038.629        3810.585
  -5129693.213 8  -4184623.519 9  21268433.950         -64.681
  -1507030.333 5  -1187627.280 5  24875830.156       -2889.397
 92 10 20 18 45  0.0020000  0  7 20  3 26 23 16 17 21                0.002168940
  25525522.993 5  16075050.756 5  25000821.259        3897.845
  -4876435.276 7  -3948698.413 9  21035560.313         211.625
  -7321063.412 6  -5702551.781 6  23145243.170         134.204
 -12327787.166 7  -9624298.352 9  21806775.854       -1446.676
  18946649.749 5  14964493.191 5  25241796.761        3811.841
  -5131531.180 8  -4186055.686 9  21268084.471         -57.909
  -1593639.922 5  -1255115.150 5  24859348.352       -2884.697
 92 10 20 18 45 30.0020000  0  7 20  3 26 23 16 17 21                0.002176640
  25642424.516 5  16166142.628 5  25023067.282        3895.384
  -4869878.146 7  -3943588.963 9  21036808.131         225.202
  -7316770.623 6  -5699206.723 6  23146059.686         151.848
 -12370994.480 7  -9657966.365 9  21798553.425       -1433.891
  19061016.755 5  15053610.177 5  25263560.532        3812.477
  -5133161.862 8  -4187326.337 9  21267774.276         -50.851
  -1680114.372 5  -1322497.691 5  24842894.182       -2880.185
 92 10 20 18 46  0.0020000  0  7 20  3 26 23 16 17 21                0.002184330
  25759246.837 5  16257172.793 5  25045299.323        3892.607
  -4862917.147 7  -3938164.811 9  21038132.723         238.573
  -7311958.953 6  -5695457.346 6  23146975.144         168.738
 -12413823.807 7  -9691339.812 9  21790403.487       -1421.675
  19175391.740 5  15142733.421 5  25285325.884        3812.557
  -5134586.496 8  -4188436.434 9  21267502.675         -44.318
  -1766447.989 5  -1389770.453 5  24826463.658       -2875.314
 92 10 20 18 46 30.0020000  0  7 20  3 26 23 16 17 21                0.002192000
  25875984.172 5  16348136.728 5  25067515.096        3889.861
  -4855553.475 7  -3932426.863 9  21039534.115         252.164
  -7306642.217 6  -5691314.414 6  23147986.692         185.620
 -12456286.287 7  -9724427.426 9  21782323.202       -1409.088
  19289773.540 5  15231861.944 5  25307092.852        3812.830
  -5135821.154 8  -4189398.497 9  21267267.987         -37.987
  -1852639.539 5  -1456932.601 5  24810062.632       -2870.755
 92 10 20 18 47  0.0020000  0  7 20  3 26 23 16 17 21                0.002199650
  25992642.599 5  16439039.195 5  25089712.357        3887.467
  -4847776.622 7  -3926366.966 9  21041013.850         266.189
  -7300824.102 6  -5686780.815 6  23149094.504         202.233
 -12498368.286 7  -9757218.554 9  21774315.274       -1396.321
  19404165.459 5  15320998.365 5  25328861.151        3813.275
  -5136853.940 8  -4190203.259 9  21267071.373         -30.977
  -1938696.030 5  -1523989.460 5  24793686.733       -2866.251
 92 10 20 18 47 30.0020000  0  7 20  3 26 23 16 17 21                0.002207280
  26109225.113 5  16529882.521 5  25111897.734        3884.748
  -4839579.195 7  -3919979.371 9  21042573.857         280.131
  -7294512.893 6  -5681862.980 6  23150295.045         218.488
 -12540068.738 7  -9789712.396 9  21766379.989       -1383.662
  19518562.258 5  15410138.558 5  25350630.111        3813.035
  -5137687.258 8  -4190852.598 9  21266912.823         -24.630
  -2024614.332 5  -1590938.663 5  24777336.726       -2861.592
 92 10 20 18 48  0.0020000  0  6 20  3 26 23 17 21                   0.002214900
  26225706.533 5  16620647.032 5  25134064.521        3881.605
  -4830981.817 7  -3913280.104 9  21044210.385         293.803
  -7287733.445 6  -5676580.266 6  23151585.013         234.433
 -12581404.377 7  -9821921.943 9  21758513.684       -1371.031
  -5138360.481 8  -4191377.191 9  21266784.870         -19.379
  -2110413.459 5  -1657795.018 5  24761009.183       -2857.670
 92 10 20 18 48 30.0020000  0  6 20  3 26 23 17 21                   0.002222500
  26342109.684 5  16711350.574 5  25156214.457        3878.648
  -4821957.072 7  -3906247.837 9  21045927.498         307.722
  -7280452.456 6  -5670906.766 6  23152970.743         251.094
 -12622338.559 7  -9853818.675 9  21750724.167       -1357.800
  -5138859.546 8  -4191766.064 9  21266690.217         -13.707
  -2196092.888 5  -1724558.120 5  24744705.324       -2854.252
 92 10 20 18 49  0.0020000  0  6 20  3 26 23 17 21                   0.002230040
  26458424.034 5  16801984.937 5  25178349.361        3875.668
  -4812510.859 7  -3898887.150 9  21047725.052         321.798
  -7272665.711 6  -5664839.176 6  23154452.295         267.957
 -12662872.604 7  -9885403.598 9  21743010.238       -1344.456
  -5139176.588 8  -4192013.122 9  21266629.509          -7.555
  -2281662.536 5  -1791235.681 5  24728421.907       -2850.357
 92 10 20 18 49 30.0020000  0  6 20  3 26 23 17 21                   0.002237530
  26574644.955 5  16892546.412 5  25200467.025        3872.374
  -4802643.777 7  -3891198.510 9  21049602.444         335.759
  -7264373.497 6  -5658377.704 6  23156030.046         284.763
 -12703006.689 7  -9916676.870 9  21735373.363       -1331.065
  -5139314.237 8  -4192120.360 9  21266603.287          -1.530
  -2367111.767 5  -1857819.377 5  24712161.320       -2846.339
 92 10 20 18 50  0.0020000  0  6 20  3 26 23 17 21                   0.002244980
  26690759.160 5  16983024.798 5  25222562.682        3868.762
  -4792364.402 7  -3883188.594 9  21051558.410         349.448
  -7255580.490 6  -5651526.006 6  23157703.753         301.607
 -12742746.175 7  -9947642.666 9  21727810.901       -1318.093
  -5139270.079 8  -4192085.947 9  21266611.890           4.656
  -2452449.374 5  -1924316.118 5  24695921.031       -2842.751
 92 10 20 18 50 30.0020000  0  6 20  3 26 23 17 21                   0.002252390
  26806766.760 5  17073420.114 5  25244637.444        3865.270
  -4781668.571 7  -3874854.208 9  21053593.540         363.477
  -7246272.266 6  -5644272.841 6  23159474.889         319.041
 -12782092.707 7  -9978302.266 9  21720323.323       -1305.044
  -5139027.129 8  -4191896.629 9  21266657.950          11.687
  -2537670.390 5  -1990722.033 5  24679704.277       -2838.358
 92 10 20 18 51  0.0020000  0  6 20  3 26 23 17 21                   0.002259810
  26922675.506 5  17163738.368 5  25266693.844        3862.115
  -4770544.074 7  -3866185.763 9  21055710.637         378.037
  -7236439.891 6  -5636611.249 6  23161346.241         336.491
 -12821042.677 7 -10008652.863 9  21712911.604       -1291.491
  -5138563.498 8  -4191535.361 9  21266745.697          19.257
  -2622738.593 5  -2057008.859 5  24663515.377       -2832.718
 92 10 20 18 51 30.0020000  0  6 20  3 26 23 17 21                   0.002267230
  27038486.240 5  17253980.300 5  25288730.926        3858.669
  -4758985.576 7  -3857179.154 9  21057910.194         392.394
  -7226089.441 6  -5628545.942 6  23163315.940         353.709
 -12859591.928 7 -10038691.192 9  21705575.892       -1278.448
  -5137879.389 8  -4191002.273 9  21266875.758          26.519
  -2707641.983 5  -2123167.281 5  24647357.791       -2827.507
 92 10 20 18 52  0.0020000  0  6 20  3 26 23 17 21                   0.002274660
  27154187.463 5  17344136.810 5  25310748.124        3854.904
  -4746999.805 7  -3847839.605 8  21060190.892         406.617
  -7215219.853 6  -5620076.138 6  23165384.347         371.135
 -12897755.672 7 -10068429.143 9  21698313.941       -1265.766
  -5136985.691 8  -4190305.865 9  21267046.100          33.081
  -2792395.058 5  -2189208.569 5  24631229.624       -2822.713
 92 10 20 18 52 30.0020000  0  6 20  3 26 23 17 21                   0.002282090
  27269780.243 5  17434208.836 5  25332746.244        3851.242
  -4734582.033 7  -3838163.413 8  21062553.956         421.050
  -7203823.016 6  -5611195.448 6  23167553.307         388.516
 -12935539.616 7 -10097871.130 9  21691123.898       -1253.277
  -5135899.246 8  -4189459.276 9  21267252.838          39.304
  -2877004.007 5  -2255137.532 5  24615129.300       -2817.783
 92 10 20 18 53  0.0020000  0  6 20  3 26 23 17 21                   0.002289510
  27385264.734 5  17524196.487 5  25354722.780        3847.781
  -4721727.475 7  -3828146.889 8  21065000.264         435.810
  -7191908.312 6  -5601911.246 6  23169821.087         405.912
 -12972950.253 7 -10127022.246 9  21684004.777       -1240.757
  -5134625.289 8  -4188466.575 9  21267495.339          45.512
  -2961462.410 5  -2320949.182 5  24599058.364       -2812.801
 92 10 20 18 53 30.0020000  0  6 20  3 26 23 17 21                   0.002296920
  27500629.574 5  17614090.995 5  25376674.254        3843.306
  -4708443.010 7  -3817795.386 8  21067528.113         449.812
  -7179479.226 7  -5592226.205 6  23172185.830         422.912
 -13010003.506 7 -10155894.870 9  21676953.427       -1229.207
  -5133186.238 8  -4187345.231 9  21267769.100          50.695
  -3045791.452 5  -2386659.971 5  24583010.356       -2809.033
 92 10 20 18 54  0.0020000  0  6 20  3 26 23 17 21                   0.002304300
  27615864.808 5  17703884.418 5  25398604.269        3838.846
  -4694734.669 7  -3807113.553 8  21070136.458         463.776
  -7166539.771 6  -5582143.488 6  23174648.143         439.502
 -13046704.414 7 -10184492.945 9  21669969.413       -1217.542
  -5131584.527 8  -4186097.135 9  21268073.639          55.958
  -3130004.592 5  -2452280.575 5  24566984.302       -2805.261
 92 10 20 18 54 30.0020000  0  6 20  3 26 23 17 21                   0.002311660
  27730957.175 5  17793566.532 5  25420506.831        3834.049
  -4680611.461 7  -3796108.476 8  21072824.089         477.675
  -7153116.145 6  -5571683.493 6  23177202.019         455.385
 -13083053.872 7 -10212817.168 9  21663051.872       -1205.577
  -5129821.205 8  -4184723.114 9  21268408.926          61.901
  -3214100.550 5  -2517809.745 5  24550982.101       -2800.841
 92 10 20 18 55  0.0020000  0  6 20  3 26 23 17 21                   0.002318990
  27845912.532 5  17883141.939 5  25442381.890        3829.707
  -4666063.394 7  -3784772.323 8  21075592.643         492.126
  -7139213.704 6  -5560850.373 6  23179847.226         471.783
 -13119026.178 7 -10240847.498 9  21656206.821       -1192.327
  -5127865.525 8  -4183199.195 9  21268781.338          68.555
  -3298057.740 5  -2583230.830 5  24535007.181       -2796.255
 92 10 20 18 55 30.0020000  0  6 20  3 26 23 17 21                   0.002326290
  27960749.837 5  17972625.288 5  25464233.420        3826.043
  -4651067.230 7  -3773087.013 8  21078445.877         507.441
  -7124795.965 7  -5549615.734 6  23182591.783         489.324
 -13154582.136 7 -10268553.408 9  21649440.773       -1177.927
  -5125691.464 8  -4181505.121 9  21269195.494          76.420
  -3381861.150 5  -2648532.088 5  24519059.029       -2790.591
 92 10 20 18 56  0.0020000  0  5  3 26 23 17 21                      0.002333530
  -4635608.146 7  -3761040.982 8  21081387.558         522.907
  -7109855.360 6  -5537973.666 6  23185433.976         506.667
 -13189699.005 7 -10295917.159 9  21642758.500       -1163.313
  -5123283.980 8  -4179629.155 9  21269653.456          83.838
  -3465484.428 5  -2713692.948 5  24503145.795       -2784.370
 92 10 20 18 56 30.0020000  0  5  3 26 23 17 21                      0.002340780
  -4619688.436 7  -3748636.023 8  21084417.092         537.973
  -7094392.981 6  -5525925.007 6  23188376.492         523.956
 -13224384.100 7 -10322944.472 9  21636157.631       -1149.269
  -5120668.609 8  -4177591.195 9  21270151.231          90.200
  -3548928.057 5  -2778713.830 5  24487266.916       -2778.738
 92 10 20 18 57  0.0020000  0  5  3 26 23 17 21                      0.002347990
  -4603317.863 7  -3735879.752 8  21087532.484         553.139
  -7078405.688 7  -5513467.364 6  23191418.843         541.917
 -13258651.292 7 -10349646.159 9  21629636.804       -1135.453
  -5117875.012 8  -4175414.354 9  21270682.723          95.868
  -3632207.158 5  -2843606.499 5  24471419.016       -2773.262
 92 10 20 18 57 30.0020000  0  5  3 26 23 17 21                      0.002355180
  -4586506.002 7  -3722779.601 8  21090731.831         567.536
  -7061891.769 6  -5500599.336 6  23194561.391         558.867
 -13292529.364 7 -10376044.606 9  21623189.978       -1123.085
  -5114929.392 8  -4173119.055 9  21271243.135         100.587
  -3715324.555 5  -2908373.206 5  24455603.179       -2767.745
 92 10 20 18 58  0.0020000  0  5  3 26 23 17 21                      0.002362350
  -4569259.176 7  -3709340.526 8  21094013.588         582.151
  -7044873.381 6  -5487338.202 6  23197799.597         575.757
 -13326036.315 7 -10402153.903 9  21616813.711       -1110.697
  -5111843.434 8  -4170714.405 9  21271830.499         105.405
  -3798272.976 5  -2973008.277 5  24439818.788       -2762.065
 92 10 20 18 58 30.0020000  0  5  3 26 23 17 21                      0.002369500
  -4551573.736 7  -3695559.671 8  21097379.269         596.814
  -7027344.838 6  -5473679.567 6  23201134.789         593.036
 -13359170.773 7 -10427972.921 9  21610508.785       -1098.176
  -5108604.126 8  -4168190.254 9  21272447.031         110.946
  -3881051.089 5  -3037510.557 5  24424066.151       -2756.172
 92 10 20 18 59  0.0020000  0  5  3 26 23 17 21                      0.002376660
  -4533437.965 7  -3681427.933 8  21100830.575         611.987
  -7009283.996 6  -5459606.156 6  23204571.593         610.955
 -13391918.484 7 -10453490.588 9  21604277.559       -1085.114
  -5105176.109 8  -4165519.059 9  21273099.311         117.688
  -3963640.924 5  -3101866.174 5  24408348.364       -2749.936
 92 10 20 18 59 30.0020000  0  5  3 26 23 17 21                      0.002383850
  -4514845.801 7  -3666940.539 8  21104368.402         627.364
  -6990684.362 6  -5445112.905 6  23208110.588         628.880
 -13424271.468 7 -10478700.678 9  21598120.905       -1071.680
  -5101536.001 8  -4162682.612 9  21273792.190         125.011
  -4046048.705 5  -3166079.948 5  24392666.959       -2743.962
 92 10 20 19  0  0.0020000  0  5  3 26 23 17 21                      0.002391030
  -4495794.241 7  -3652095.171 8  21107993.760         642.766
  -6971544.885 6  -5430199.031 6  23211752.458         647.300
 -13456214.948 7 -10503591.670 9  21592042.170       -1057.699
  -5097672.879 8  -4159672.370 9  21274527.341         132.832
  -4128289.721 5  -3230163.737 5  24377016.640       -2738.574
 92 10 20 19  0 30.0020000  0  5  3 26 23 17 21                      0.002398220
  -4476275.200 7  -3636885.532 8  21111708.416         658.376
  -6951848.073 6  -5414850.845 6  23215499.886         665.973
 -13487737.097 7 -10528154.336 9  21586043.993       -1043.759
  -5093570.529 8  -4156475.729 9  21275308.061         140.718
  -4210365.346 5  -3294118.648 5  24361398.473       -2733.121
 92 10 20 19  1  0.0020000  0  5  3 26 23 17 21                      0.002405410
  -4456280.204 7  -3621305.027 8  21115513.384         674.264
  -6931589.223 6  -5399064.728 6  23219354.456         684.261
 -13518838.183 7 -10552388.935 9  21580125.491       -1029.876
  -5089227.362 8  -4153091.441 9  21276134.649         148.555
  -4292276.737 5  -3357945.603 5  24345811.843       -2727.787
 92 10 20 19  1 30.0020000  0  5  3 26 23 17 21                      0.002412590
  -4435808.223 7  -3605352.864 8  21119408.908         690.211
  -6910790.402 6  -5382857.846 6  23223313.195         702.202
 -13549530.838 7 -10576305.247 9  21574285.152       -1016.426
  -5084656.168 8  -4149529.480 9  21277004.466         156.022
  -4374019.887 5  -3421641.465 5  24330256.630       -2721.760
 92 10 20 19  2  0.0020000  0  5  3 26 23 17 21                      0.002419780
  -4414858.141 7  -3589028.132 8  21123395.559         706.227
  -6889453.936 6  -5366232.016 6  23227374.443         720.111
 -13579818.218 7 -10599905.770 9  21568521.796       -1002.850
  -5079865.456 8  -4145796.451 9  21277916.096         163.155
  -4455574.258 5  -3485190.229 5  24314737.159       -2715.089
 92 10 20 19  2 30.0020000  0  5  3 26 23 17 21                      0.002426980
  -4393421.350 7  -3572324.150 8  21127475.112         722.582
  -6867576.891 6  -5349184.974 6  23231537.868         738.275
 -13609700.769 7 -10623190.859 9  21562834.770        -989.436
  -5074874.551 8  -4141907.420 9  21278865.788         169.443
  -4536919.723 6  -3548576.206 5  24299258.800       -2708.192
 92 10 20 19  3  0.0020000  0  5  3 26 23 17 21                      0.002434180
  -4371492.782 7  -3555236.962 8  21131647.896         738.918
  -6845153.689 6  -5331712.350 6  23235805.165         756.297
 -13639177.017 7 -10646159.333 9  21557226.012        -975.882
  -5069695.777 8  -4137872.015 9  21279851.476         175.660
  -4618055.487 5  -3611798.754 5  24283818.847       -2701.085
 92 10 20 19  3 30.0020000  0  5  3 26 23 17 21                      0.002441370
  -4349077.994 7  -3537770.897 8  21135912.990         755.067
  -6822195.341 7  -5313822.728 6  23240174.151         774.145
 -13668246.950 7 -10668811.194 9  21551694.104        -962.143
  -5064332.267 8  -4133692.655 9  21280871.821         181.782
  -4698988.412 5  -3674863.257 5  24268416.738       -2694.745
 92 10 20 19  4  0.0020000  0  5  3 26 23 17 21                      0.002448530
  -4326186.735 7  -3519933.555 8  21140269.337         770.670
  -6798711.688 7  -5295523.764 6  23244643.238         791.159
 -13696904.209 7 -10691141.523 9  21546240.499        -948.548
  -5058795.094 8  -4129377.968 9  21281925.548         187.251
  -4779747.381 5  -3737792.248 5  24253048.956       -2689.380
 92 10 20 19  4 30.0020000  0  5  3 26 23 17 21                      0.002455630
  -4302825.524 7  -3501730.037 8  21144714.949         786.424
  -6774721.471 6  -5276830.081 6  23249208.338         808.188
 -13725156.605 7 -10713156.331 9  21540864.209        -934.974
  -5053087.191 8  -4124930.253 9  21283011.620         193.427
  -4860357.082 5  -3800604.900 5  24237708.154       -2684.779
 92 10 20 19  5  0.0020000  0  5  3 26 23 17 21                      0.002462670
  -4278997.793 7  -3483162.976 8  21149249.040         801.913
  -6750231.906 6  -5257747.297 6  23253868.443         824.496
 -13753002.004 7 -10734854.042 9  21535565.427        -921.345
  -5047179.452 8  -4120326.811 9  21284136.078         200.358
  -4940823.670 5  -3863306.023 5  24222396.735       -2679.705
 92 10 20 19  5 30.0020000  0  5  3 26 23 17 21                      0.002469660
  -4254703.158 7  -3464232.086 8  21153871.840         817.416
  -6725245.889 6  -5238277.663 6  23258622.690         841.259
 -13780432.510 7 -10756228.431 9  21530345.442        -907.425
  -5041063.474 8  -4115561.110 9  21285300.112         207.115
  -5021139.503 6  -3925889.680 5  24207112.105       -2674.622
 92 10 20 19  6  0.0020000  0  5  3 26 23 17 21                      0.002476600
  -4229946.599 7  -3444941.249 8  21158582.708         832.743
  -6699756.588 6  -5218415.832 6  23263472.714         858.051
 -13807451.898 7 -10777282.469 9  21525203.412        -894.022
  -5034752.033 8  -4110643.099 9  21286501.141         213.514
  -5101295.677 6  -3988348.928 5  24191859.583       -2668.951
 92 10 20 19  6 30.0020000  0  5  3 26 23 17 21                      0.002483530
  -4204725.428 7  -3425288.403 8  21163381.957         848.398
  -6673748.204 6  -5198149.567 6  23268422.068         875.772
 -13834066.613 7 -10798021.186 9  21520139.078        -880.404
  -5028242.832 8  -4105571.000 9  21287739.874         220.264
  -5181265.970 6  -4050663.382 5  24176642.028       -2662.307
 92 10 20 19  7  0.0020000  0  5  3 26 23 17 21                      0.002490460
  -4179037.015 7  -3405271.454 8  21168270.402         863.971
  -6647213.626 6  -5177473.266 6  23273470.954         893.287
 -13860279.410 7 -10818446.694 9  21515151.023        -867.130
  -5021538.233 8  -4100346.627 9  21289016.018         226.638
  -5261028.277 6  -4112815.756 5  24161463.995       -2655.152
 92 10 20 19  7 30.0020000  0  5  3 26 23 17 21                      0.002497390
  -4152888.004 7  -3384895.610 8  21173246.804         879.366
  -6620160.386 6  -5156392.799 6  23278619.226         910.391
 -13886106.407 7 -10838571.607 9  21510236.434        -854.405
  -5014655.027 8  -4094983.095 9  21290325.794         232.544
  -5340594.089 6  -4174814.984 5  24146322.523       -2648.922
 92 10 20 19  8  0.0020000  0  5  3 26 23 17 21                      0.002504340
  -4126267.103 7  -3364152.045 8  21178312.767         895.442
  -6592592.020 6  -5134910.945 6  23283865.594         927.751
 -13911544.531 7 -10858393.484 9  21505395.364        -841.243
  -5007577.354 8  -4089468.027 9  21291672.502         239.509
  -5419956.126 6  -4236655.443 5  24131220.965       -2641.775
 92 10 20 19  8 30.0020000  0  5  3 26 23 17 21                      0.002511280
  -4099152.484 7  -3343023.771 8  21183472.227         912.042
  -6564495.903 6  -5113017.829 6  23289212.673         945.321
 -13936578.432 7 -10877900.392 9  21500631.342        -827.644
  -5000281.189 8  -4083782.678 9  21293061.330         246.866
  -5499107.366 6  -4298331.633 5  24116158.385       -2635.090
 92 10 20 19  9  0.0020000  0  5  3 26 23 17 21                      0.002518190
  -4071545.039 7  -3321511.470 8  21188725.952         928.211
  -6535879.397 6  -5090719.231 6  23294657.933         962.481
 -13961210.476 7 -10897094.146 9  21495944.565        -814.586
  -4992766.450 8  -4077927.041 9  21294491.042         254.008
  -5578070.021 6  -4359860.895 5  24101132.045       -2629.329
 92 10 20 19  9 30.0020000  0  5  3 26 23 17 21                      0.002525080
  -4043459.921 7  -3299626.963 8  21194070.130         944.044
  -6506757.765 6  -5068027.034 6  23300199.028         978.996
 -13985455.962 7 -10915986.712 9  21491330.962        -801.631
  -4985049.852 8  -4071914.112 9  21295959.205         260.417
  -5656872.558 6  -4421265.451 5  24086136.765       -2624.049
 92 10 20 19 10  0.0020000  0  5  3 26 23 17 21                      0.002531920
  -4014904.014 7  -3277375.618 8  21199503.919         959.825
  -6477137.372 6  -5044946.190 6  23305836.083         995.981
 -14009314.102 7 -10934577.427 9  21486790.715        -788.663
  -4977152.037 8  -4065759.966 9  21297461.906         266.303
  -5735513.372 6  -4482543.927 5  24071171.762       -2618.266
 92 10 20 19 10 30.0020000  0  5  3 26 23 17 21                      0.002538730
  -3985866.777 7  -3254749.212 8  21205029.664         975.782
  -6446998.635 6  -5021461.473 6  23311571.327        1013.228
 -14032776.743 7 -10952859.983 9  21482325.766        -775.523
  -4969075.513 8  -4059466.589 9  21298998.810         272.115
  -5813971.072 6  -4543679.719 5  24056241.172       -2612.055
 92 10 20 19 11  0.0020000  0  5  3 26 23 17 21                      0.002545530
  -3956353.385 7  -3231751.771 8  21210645.784         991.537
  -6416345.524 6  -4997575.931 6  23317403.988        1030.237
 -14055850.304 7 -10970839.324 9  21477934.715        -762.659
  -4960826.462 8  -4053038.768 9  21300568.344         277.779
  -5892236.621 6  -4604665.780 5  24041348.421       -2605.619
 92 10 20 19 11 30.0020000  0  5  3 26 23 17 21                      0.002552300
  -3926367.681 7  -3208386.299 8  21216351.956        1007.417
  -6385184.959 6  -4973294.972 6  23323334.044        1047.263
 -14078531.070 7 -10988512.637 9  21473618.903        -749.261
  -4952409.728 8  -4046480.277 9  21302169.874         283.390
  -5970308.901 6  -4665501.319 5  24026491.143       -2599.055
 92 10 20 19 12  0.0020000  0  5  3 26 23 17 21                      0.002559060
  -3895894.588 7  -3184641.043 8  21222151.029        1023.856
  -6353501.731 6  -4948606.734 6  23329362.931        1064.934
 -14100801.730 7 -11005866.366 9  21469380.837        -735.689
  -4943816.712 8  -4039784.425 9  21303805.042         289.535
  -6048168.178 6  -4726170.806 5  24011675.311       -2591.605
 92 10 20 19 12 30.0020000  0  5  3 26 23 17 21                      0.002565840
  -3864922.161 7  -3160506.710 8  21228045.171        1040.916
  -6321279.747 6  -4923498.718 6  23335494.853        1083.334
 -14122666.611 7 -11022903.902 9  21465220.175        -721.842
  -4935024.402 8  -4032933.272 9  21305478.165         296.774
  -6125805.384 6  -4786667.321 5  23996901.590       -2584.070
 92 10 20 19 13  0.0020000  0  5  3 26 23 17 21                      0.002572620
  -3833438.555 7  -3135974.046 8  21234036.342        1057.913
  -6288509.969 6  -4897963.804 6  23341730.628        1101.314
 -14144116.246 7 -11039617.864 9  21461138.212        -708.011
  -4926010.879 8  -4025909.752 9  21307193.319         304.195
  -6203218.548 6  -4846989.178 5  23982169.981       -2576.788
 92 10 20 19 13 30.0020000  0  5  3 26 23 17 21                      0.002579410
  -3801442.692 7  -3111042.229 8  21240124.637        1074.881
  -6255200.223 6  -4872008.160 6  23348069.737        1119.357
 -14165151.785 7 -11056009.168 9  21457135.116        -694.594
  -4916780.078 8  -4018716.915 9  21308949.600         311.068
  -6280407.956 6  -4907136.702 5  23967481.460       -2569.210
 92 10 20 19 14  0.0020000  0  5  3 26 23 17 21                      0.002586220
  -3768936.330 7  -3085712.620 8  21246310.444        1091.883
  -6221343.532 6  -4845626.335 6  23354512.399        1137.536
 -14185793.920 7 -11072093.937 9  21453207.132        -681.645
  -4907341.346 8  -4011362.064 9  21310745.748         318.074
  -6357368.286 6  -4967105.739 5  23952835.435       -2561.696
 92 10 20 19 14 30.0020000  0  5  3 26 23 17 21                      0.002593050
  -3735914.626 7  -3059981.430 8  21252594.553        1109.378
  -6186932.912 6  -4818812.879 6  23361060.403        1156.461
 -14206035.349 7 -11087866.446 9  21449355.452        -667.654
  -4897681.244 8  -4003834.702 9  21312584.007         325.857
  -6434107.241 6  -5026902.228 5  23938233.080       -2554.282
 92 10 20 19 15  0.0020000  0  5  3 26 23 17 21                      0.002599880
  -3702369.302 7  -3033842.246 8  21258978.226        1126.879
  -6151964.121 6  -4791564.485 6  23367715.257        1174.841
 -14225853.383 7 -11103309.051 9  21445584.060        -653.440
  -4887796.811 8  -3996132.553 9  21314465.003         333.136
  -6510627.280 6  -5086528.187 5  23923671.516       -2546.933
 92 10 20 19 15 30.0020000  0  5  3 26 23 17 21                      0.002606710
  -3668294.081 7  -3007290.147 8  21265462.526        1144.630
  -6116432.398 6  -4763877.444 6  23374476.848        1193.956
 -14245237.171 7 -11118413.267 9  21441895.953        -638.838
  -4877693.911 8  -3988260.165 9  21316387.584         340.521
  -6586926.983 6  -5145982.450 5  23909151.940       -2539.725
 92 10 20 19 16  0.0020000  0  5  3 26 23 17 21                      0.002613540
  -3633683.660 7  -2980321.004 8  21272048.668        1162.414
  -6080331.970 6  -4735747.250 6  23381345.993        1212.547
 -14264173.112 7 -11133168.538 9  21438292.349        -623.539
  -4867351.065 8  -3980200.814 9  21318355.730         348.878
  -6663006.879 6  -5205265.411 5  23894674.522       -2532.335
 92 10 20 19 16 30.0020000  0  5  3 26 23 17 21                      0.002620360
  -3598549.498 7  -2952943.771 8  21278734.559        1179.618
  -6043687.465 6  -4707193.106 6  23388319.334        1230.240
 -14282655.123 7 -11147570.085 9  21434775.254        -608.723
  -4856760.639 8  -3971948.527 9  21320371.063         356.955
  -6738868.673 6  -5264378.419 5  23880238.624       -2525.065
 92 10 20 19 17  0.0020000  0  5  3 26 23 17 21                      0.002627150
  -3562897.891 7  -2925163.316 8  21285518.580        1196.848
  -6006521.077 6  -4678232.274 6  23395392.019        1247.395
 -14300698.635 7 -11161629.952 9  21431341.710        -594.348
  -4845934.524 8  -3963512.590 9  21322431.197         364.670
  -6814500.370 6  -5323312.125 5  23865845.810       -2517.097
 92 10 20 19 17 30.0020000  0  5  3 26 23 17 21                      0.002633940
  -3526732.021 7  -2896982.134 8  21292400.408        1213.982
  -5968832.090 6  -4648864.230 6  23402563.802        1265.037
 -14318314.785 7 -11175356.807 9  21427989.732        -580.246
  -4834868.550 8  -3954889.749 9  21324536.781         373.031
  -6889891.451 6  -5382058.313 5  23851499.103       -2509.058
 92 10 20 19 18  0.0020000  0  5  3 26 23 17 21                      0.002640730
  -3490056.445 7  -2868403.765 8  21299379.677        1230.794
  -5930625.734 6  -4619093.070 6  23409834.256        1281.996
 -14335517.252 7 -11188761.309 9  21424715.927        -566.705
  -4823560.819 8  -3946078.527 9  21326688.650         380.607
  -6965041.781 6  -5440616.946 5  23837198.873       -2501.053
 92 10 20 19 18 30.0020000  0  5  3 26 23 17 21                      0.002647520
  -3452873.479 7  -2839430.050 8  21306455.798        1247.761
  -5891909.446 6  -4588924.546 6  23417201.808        1298.923
 -14352322.420 7 -11201856.226 9  21421517.822        -553.816
  -4812043.344 8  -3937103.882 9  21328880.503         387.015
  -7039960.198 6  -5498994.840 5  23822942.768       -2493.753
 92 10 20 19 19  0.0020000  0  6  3 26 23 28 17 21                   0.002654130
  -3415182.498 7  -2810060.473 8  21313628.151        1264.693
  -5852681.881 6  -4558357.599 6  23424666.410        1316.272
 -14368744.712 7 -11214652.803 9  21418392.824        -541.032
  -2669921.33315   -183085.79111  25246915.125       -3246.185
  -4800341.148 8  -3927985.281 9  21331107.133         393.074
  -7114666.291 6  -5557207.296 5  23808726.169       -2486.775
 92 10 20 19 19 30.0020000  0  6  3 26 23 28 17 21                   0.002660870
  -3376984.835 7  -2780296.081 8  21320896.720        1281.530
  -5812933.745 6  -4527385.021 6  23432230.254        1333.434
 -14384778.127 7 -11227146.364 9  21415341.776        -527.999
  -2767272.587 5   -258957.875 1  25228390.564       -3244.010
  -4788456.845 8  -3918724.772 9  21333368.625         399.086
  -7189171.934 6  -5615263.546 5  23794548.780       -2480.371
 92 10 20 19 20  0.0020000  0  6  3 26 23 28 17 21                   0.002667590
  -3338280.590 7  -2750136.958 8  21328261.682        1298.577
  -5772677.945 6  -4496016.882 6  23439890.283        1350.271
 -14400419.417 7 -11239334.366 9  21412365.549        -514.586
  -2864566.881 5   -334771.460 2  25209876.305       -3242.431
  -4776395.862 8  -3909326.612 9  21335663.496         405.016
  -7263482.816 6  -5673168.029 5  23780407.685       -2473.715
 92 10 20 19 20 30.0020000  0  6  3 26 23 28 17 21                   0.002674290
  -3299059.820 7  -2719575.343 8  21335724.874        1316.029
  -5731911.395 6  -4464250.748 6  23447647.734        1367.546
 -14415645.440 7 -11251198.800 9  21409468.024        -500.291
  -2961807.810 5   -410543.446 3  25191371.588       -3240.197
  -4764145.918 8  -3899781.207 9  21337994.554         411.894
  -7337587.702 6  -5730911.995 5  23766306.128       -2466.557
 92 10 20 19 21  0.0020000  0  6  3 26 23 28 17 21                   0.002680980
  -3259314.163 7  -2688604.719 8  21343288.329        1333.501
  -5690615.753 6  -4432072.314 6  23455506.479        1385.398
 -14430436.595 7 -11262724.343 9  21406653.421        -485.734
  -3058968.894 5   -486253.330 4  25172881.832       -3237.275
  -4751671.292 8  -3890060.706 9  21340368.740         419.721
  -7411465.984 6  -5788479.389 5  23752247.279       -2458.581
 92 10 20 19 21 30.0020000  0  6  3 26 23 28 17 21                   0.002687650
  -3219042.121 7  -2657223.943 8  21350951.994        1351.144
  -5648791.862 6  -4399482.287 6  23463465.412        1402.819
 -14444788.634 7 -11273907.746 9  21403922.323        -471.188
  -3156042.726 5   -561895.171 5  25154409.277       -3234.247
  -4738959.250 8  -3880155.223 9  21342788.255         427.828
  -7485098.064 6  -5845854.971 5  23738234.752       -2450.199
 92 10 20 19 22  0.0020000  0  6  3 26 23 28 17 21                   0.002694320
  -3178248.479 7  -2625436.714 8  21358714.660        1368.345
  -5606453.434 6  -4366491.308 6  23471522.164        1419.833
 -14458720.251 7 -11284763.522 9  21401271.218        -457.470
  -3253023.337 5   -637464.386 5  25135955.045       -3230.819
  -4726015.753 8  -3870069.398 9  21345250.890         435.115
  -7558478.991 6  -5903034.831 5  23724270.358       -2441.857
 92 10 20 19 22 30.0020000  0  6  3 26 23 28 17 21                   0.002701000
  -3136929.850 7  -2593240.387 8  21366577.104        1386.049
  -5563587.757 6  -4333089.494 6  23479679.119        1437.933
 -14472240.750 7 -11295298.963 9  21398698.020        -443.990
  -3349876.358 5   -712934.142 5  25117524.034       -3225.962
  -4712854.215 8  -3859813.633 9  21347755.827         442.291
  -7631598.262 6  -5960010.795 5  23710356.073       -2432.911
 92 10 20 19 23  0.0020000  0  6  3 26 23 28 17 21                   0.002707740
  -3095069.640 7  -2560622.074 8  21374543.052        1404.395
  -5520169.236 6  -4299256.884 6  23487941.056        1456.467
 -14485356.248 7 -11305518.819 9  21396202.199        -430.407
  -3446575.670 5   -788284.153 5  25099122.068       -3220.813
  -4699474.573 8  -3849387.945 9  21350301.692         449.575
  -7704446.531 6  -6016775.594 5  23696493.891       -2423.786
 92 10 20 19 23 30.0020000  0  6  3 26 23 28 17 21                   0.002714520
  -3052655.036 7  -2527571.755 8  21382614.532        1422.879
  -5476195.010 6  -4264991.264 6  23496309.232        1475.006
 -14498054.761 7 -11315413.728 9  21393785.711        -416.363
  -3543123.197 5   -863515.892 5  25080749.118       -3215.845
  -4685875.978 8  -3838791.636 9  21352889.322         456.932
  -7777025.154 6  -6073330.293 5  23682682.851       -2415.059
 92 10 20 19 24  0.0020000  0  6  3 26 23 28 17 21                   0.002721340
  -3009693.206 7  -2494095.041 8  21390790.034        1441.077
  -5431665.554 6  -4230292.995 6  23504782.886        1493.697
 -14510335.941 7 -11324983.473 9  21391448.519        -402.120
  -3639529.916 5   -938637.917 5  25062402.761       -3211.354
  -4672065.504 8  -3828030.222 9  21355517.312         463.921
  -7849356.282 6  -6129692.156 6  23668918.855       -2406.964
 92 10 20 19 24 30.0020000  0  6  3 26 23 28 17 21                   0.002728170
  -2966191.262 7  -2460197.438 8  21399067.964        1458.731
  -5386582.246 6  -4195163.149 6  23513361.708        1511.666
 -14522186.160 7 -11334217.383 9  21389193.392        -388.090
  -3735821.667 5  -1013670.326 5  25044077.748       -3208.439
  -4658037.680 8  -3817099.449 9  21358186.464         471.241
  -7921455.658 6  -6185873.403 6  23655198.824       -2399.790
 92 10 20 19 25  0.0020000  0  6  3 26 23 28 17 21                   0.002734950
  -2922177.183 7  -2425900.785 8  21407443.267        1475.411
  -5340984.782 6  -4159632.677 6  23522038.030        1528.229
 -14533627.202 7 -11343132.471 9  21387016.046        -374.493
  -3832054.320 5  -1088656.695 5  25025764.675       -3206.942
  -4643790.189 8  -3805997.505 9  21360897.538         478.783
  -7993350.113 6  -6241894.965 6  23641517.169       -2392.977
 92 10 20 19 25 30.0020000  0  6  3 26 23 28 17 21                   0.002741700
  -2877662.115 7  -2391213.755 8  21415914.122        1492.131
  -5294888.546 6  -4123713.566 6  23530809.931        1544.927
 -14544659.068 7 -11351728.699 9  21384916.461        -360.912
  -3928242.278 6  -1163608.278 5  25007461.223       -3205.289
  -4629307.571 8  -3794712.355 9  21363653.611         486.748
  -8065029.464 6  -6297748.946 6  23627877.001       -2385.446
 92 10 20 19 26  0.0020000  0  6  3 26 23 28 17 21                   0.002748390
  -2832643.499 7  -2356134.336 8  21424480.872        1508.887
  -5248294.227 6  -4087406.324 6  23539676.281        1561.303
 -14555291.773 7 -11360013.923 9  21382893.460        -347.804
  -4024375.900 6  -1238517.511 5  24989167.559       -3203.541
  -4614591.839 8  -3783245.552 9  21366454.003         494.403
  -8136477.459 6  -6353422.647 6  23614280.304       -2377.513
 92 10 20 19 26 30.0020000  0  6  3 26 23 28 17 21                   0.002755060
  -2787121.998 7  -2320663.072 8  21433143.283        1525.617
  -5201214.681 6  -4050720.967 6  23548635.201        1577.276
 -14565536.639 7 -11367996.903 9  21380943.932        -335.378
  -4120455.262 6  -1313384.443 5  24970885.006       -3201.717
  -4599646.296 8  -3771599.672 9  21369297.902         501.720
  -8207680.140 6  -6408905.179 6  23600730.956       -2369.329
 92 10 20 19 27  0.0020000  0  6  3 26 23 28 17 21                   0.002761700
  -2741103.613 7  -2284804.636 7  21441900.760        1542.112
  -5153655.996 6  -4013662.297 6  23557685.274        1593.303
 -14575414.442 7 -11375693.893 9  21379064.034        -322.970
  -4216475.791 6  -1388205.575 5  24952612.903       -3199.433
  -4584496.408 8  -3759794.572 9  21372180.887         508.150
  -8278641.578 6  -6464199.712 6  23587227.602       -2361.474
 92 10 20 19 27 30.0020000  0  6  3 26 23 28 17 21                   0.002768330
  -2694594.291 7  -2248563.639 7  21450751.365        1558.430
  -5105622.014 6  -3976233.227 6  23566826.006        1608.986
 -14584918.612 7 -11383099.704 9  21377255.351        -310.603
  -4312422.192 6  -1462968.894 5  24934354.616       -3196.806
  -4569172.664 8  -3747853.976 9  21375096.918         513.397
  -8349377.121 6  -6519318.214 6  23573766.620       -2354.235
 92 10 20 19 28  0.0020000  0  6  3 26 23 28 17 21                   0.002774940
  -2647592.493 7  -2211938.914 7  21459695.274        1574.744
  -5057115.262 6  -3938435.775 6  23576056.905        1624.741
 -14594052.077 7 -11390216.690 9  21375517.139        -298.359
  -4408286.622 6  -1537668.360 5  24916111.815       -3194.236
  -4553695.149 8  -3735793.604 9  21378042.599         518.485
  -8419898.495 6  -6574269.858 6  23560346.226       -2347.211
 92 10 20 19 28 30.0020000  0  6  3 26 23 28 17 21                   0.002781540
  -2600093.448 7  -2174926.709 7  21468734.074        1591.604
  -5008128.012 6  -3900263.922 6  23585378.794        1641.089
 -14602809.753 7 -11397040.842 9  21373850.800        -285.633
  -4504068.476 6  -1612303.508 5  24897884.693       -3191.158
  -4538053.856 8  -3723605.576 9  21381018.969         524.212
  -8490202.903 6  -6629052.417 6  23546968.091       -2339.843
 92 10 20 19 29  0.0020000  0  6  3 26 23 28 17 21                   0.002788140
  -2552088.965 7  -2137520.653 7  21477868.920        1608.394
  -4958650.880 6  -3861710.339 6  23594794.271        1657.177
 -14611188.066 7 -11403569.390 9  21372256.346        -273.030
  -4599753.935 5  -1686863.529 5  24879676.279       -3187.851
  -4522236.040 8  -3711280.011 9  21384028.665         530.220
  -8560287.810 6  -6683663.932 6  23533632.046       -2332.500
 92 10 20 19 29 30.0020000  0  6  3 26 23 28 17 21                   0.002794720
  -2503578.725 7  -2099720.505 7  21487100.149        1625.492
  -4908697.606 6  -3822785.720 6  23604300.202        1673.054
 -14619191.928 7 -11409806.149 9  21370733.069        -260.703
  -4695332.401 5  -1761340.146 5  24861488.520       -3184.117
  -4506228.867 8  -3698806.896 9  21387074.806         537.046
  -8630143.089 6  -6738096.518 6  23520338.059       -2324.434
 92 10 20 19 30  0.0020000  0  6  3 26 23 28 17 21                   0.002801290
  -2454548.154 7  -2061514.890 7  21496430.432        1643.180
  -4858264.191 6  -3783487.018 6  23613897.069        1689.240
 -14626824.291 7 -11415753.440 9  21369280.855        -247.892
  -4790798.833 5  -1835729.483 5  24843322.869       -3180.006
  -4490004.118 8  -3686164.252 9  21390162.447         544.842
  -8699750.528 6  -6792335.980 6  23507092.361       -2315.836
 92 10 20 19 30 30.0020000  0  6  3 26 23 28 17 21                   0.002807850
  -2404985.570 7  -2022894.739 8  21505862.081        1660.965
  -4807343.109 6  -3743808.305 6  23623587.070        1705.670
 -14634067.182 7 -11421397.233 9  21367902.599        -234.624
  -4886129.575 5  -1910013.135 5  24825182.353       -3175.093
  -4473539.761 8  -3673334.896 9  21393295.731         552.948
  -8769100.581 6  -6846374.910 6  23493895.555       -2307.408
 92 10 20 19 31  0.0020000  0  6  3 26 23 28 17 21                   0.002814400
  -2354881.635 7  -1983852.748 7  21515396.389        1678.993
  -4755923.787 6  -3703741.327 6  23633371.937        1722.261
 -14640892.853 7 -11426715.922 9  21366603.799        -220.437
  -4981298.505 5  -1984170.597 5  24807072.920       -3169.597
  -4456827.224 8  -3660312.148 9  21396476.067         561.071
  -8838194.474 6  -6900214.224 6  23480747.837       -2299.018
 92 10 20 19 31 30.0020000  0  6  3 26 23 28 17 21                   0.002820930
  -2304245.345 7  -1944395.953 7  21525032.541        1696.573
  -4704008.955 6  -3663288.218 6  23643251.096        1738.877
 -14647294.288 7 -11431704.045 9  21365385.563        -206.384
  -5076310.917 5  -2058206.174 5  24788993.894       -3164.769
  -4439881.643 8  -3647107.797 9  21399700.756         568.648
  -8907048.095 6  -6953866.288 6  23467645.567       -2291.350
 92 10 20 19 32  0.0020000  0  6  3 26 23 28 17 21                   0.002827430
  -2253087.599 7  -1904532.806 7  21534767.703        1713.840
  -4651588.504 6  -3622441.175 6  23653226.225        1756.003
 -14653275.528 7 -11436364.739 9  21364247.300        -192.298
  -5171186.396 5  -2132135.039 5  24770940.129       -3160.203
  -4422719.577 8  -3633734.775 9  21402966.664         575.501
  -8975685.269 6  -7007349.707 6  23454584.460       -2284.412
 92 10 20 19 32 30.0020000  0  6  3 26 23 28 17 21                   0.002833920
  -2201402.393 7  -1864258.664 7  21544602.961        1731.631
  -4598635.139 6  -3581178.846 6  23663303.875        1774.194
 -14658829.437 7 -11440692.455 9  21363190.459        -177.942
  -5265922.495 5  -2205955.307 5  24752911.455       -3155.524
  -4405343.831 8  -3620195.252 9  21406273.106         582.924
  -9044104.906 6  -7060663.632 6  23441564.224       -2276.930
 92 10 20 19 33  0.0020000  0  6  3 26 23 28 17 21                   0.002840400
  -2149181.394 7  -1823567.011 7  21554540.541        1749.682
  -4545140.844 6  -3539495.004 6  23673483.859        1792.095
 -14663958.354 7 -11444688.994 9  21362214.609        -164.156
  -5360524.270 5  -2279670.837 5  24734908.247       -3151.166
  -4387745.826 8  -3606482.524 9  21409621.768         590.384
  -9112292.230 6  -7113796.501 6  23428588.777       -2268.687
 92 10 20 19 33 30.0020000  0  6  3 26 23 28 17 21                   0.002846890
  -2096421.474 7  -1782455.434 7  21564580.682        1767.446
  -4491111.622 6  -3497394.339 6  23683764.709        1809.724
 -14668692.273 7 -11448377.754 9  21361313.872        -151.443
  -5454992.951 5  -2353282.681 5  24716928.999       -3146.932
  -4369918.954 8  -3592591.475 9  21413014.049         598.065
  -9180229.695 6  -7166734.749 6  23415660.276       -2260.448
 92 10 20 19 34  0.0020000  0  6  3 26 23 28 17 21                   0.002853390
  -2043124.427 7  -1740925.303 7  21574723.180        1785.517
  -4436559.901 6  -3454886.547 6  23694146.253        1826.941
 -14673044.252 7 -11451768.910 9  21360485.723        -138.657
  -5549336.805 5  -2426797.287 5  24698975.677       -3142.445
  -4351862.603 8  -3578521.604 9  21416450.012         605.851
  -9247913.673 6  -7219475.440 6  23402780.550       -2251.715
 92 10 20 19 34 30.0020000  0  6  3 26 23 28 17 21                   0.002859900
  -1989284.150 7  -1698971.881 7  21584968.336        1803.798
  -4381500.345 6  -3411983.008 6  23704623.670        1843.689
 -14677015.722 7 -11454863.532 9  21359730.097        -125.897
  -5643532.706 5  -2500196.577 5  24681051.006       -3136.968
  -4333561.884 8  -3564261.322 9  21419932.599         614.329
  -9315320.081 6  -7271999.834 6  23389953.444       -2241.967
 92 10 20 19 35  0.0020000  0  6  3 26 23 28 17 21                   0.002866430
  -1934895.198 7  -1656590.914 7  21595318.102        1821.974
  -4325950.019 6  -3368697.085 6  23715194.744        1859.803
 -14680596.791 7 -11457653.981 9  21359048.688        -112.786
  -5737552.855 5  -2573458.932 5  24663159.687       -3131.147
  -4315014.298 8  -3549808.667 9  21423461.887         622.150
  -9382435.669 6  -7324297.642 6  23377181.844       -2232.413
 92 10 20 19 35 30.0020000  0  6  3 26 23 28 17 21                   0.002872970
  -1879956.988 7  -1613781.949 7  21605772.316        1840.201
  -4269898.109 6  -3325020.298 6  23725860.640        1876.846
 -14683768.728 7 -11460125.606 9  21358445.435         -98.676
  -5831398.206 5  -2646585.062 5  24645301.791       -3125.377
  -4296220.096 8  -3535163.847 9  21427038.248         630.556
  -9449262.991 6  -7376370.821 6  23364465.284       -2222.971
 92 10 20 19 36  0.0020000  0  6  3 26 23 28 17 21                   0.002879510
  -1824475.547 7  -1570549.694 7  21616329.877        1858.456
  -4213341.680 6  -3280950.373 6  23736622.688        1893.677
 -14686512.657 7 -11462263.724 9  21357923.456         -84.204
  -5925072.590 6  -2719578.018 5  24627476.632       -3119.366
  -4277179.974 8  -3520327.404 9  21430661.759         638.918
  -9515809.085 6  -7428224.884 6  23351801.674       -2213.418
 92 10 20 19 36 30.0020000  0  6  3 26 23 28 17 21                   0.002886050
  -1768446.590 7  -1526890.789 7  21626992.275        1876.638
  -4156275.308 6  -3236483.117 6  23747482.019        1910.745
 -14688824.883 7 -11464065.473 9  21357483.602         -69.792
  -6018560.245 6  -2792425.450 5  24609687.247       -3113.102
  -4257889.639 8  -3505295.988 9  21434332.631         647.071
  -9582073.180 6  -7479859.188 6  23339191.996       -2204.218
 92 10 20 19 37  0.0020000  0  6  3 26 23 28 17 21                   0.002892580
  -1711868.969 7  -1482804.370 7  21637758.411        1894.988
  -4098695.831 6  -3191616.004 6  23758439.535        1928.000
 -14690693.506 7 -11465521.515 9  21357128.309         -54.897
  -6111871.088 6  -2865135.105 5  24591930.294       -3107.506
  -4238356.939 8  -3490075.714 9  21438049.577         655.221
  -9648064.339 6  -7531280.803 6  23326634.100       -2195.098
 92 10 20 19 37 30.0020000  0  6  3 26 23 28 17 21                   0.002899110
  -1654739.845 7  -1438288.204 7  21648630.134        1913.197
  -4040591.606 6  -3146340.006 6  23769495.949        1945.163
 -14692131.430 7 -11466641.990 9  21356854.676         -41.218
  -6205006.787 6  -2937708.290 5  24574207.559       -3101.596
  -4218571.751 8  -3474658.697 9  21441814.401         663.371
  -9713771.387 6  -7582481.061 6  23314130.430       -2185.597
 92 10 20 19 38  0.0020000  0  6  3 26 23 28 17 21                   0.002905660
  -1597064.131 7  -1393346.123 7  21659605.548        1931.579
  -3981990.846 6  -3100677.108 6  23780647.824        1961.495
 -14693165.416 7 -11467447.692 9  21356657.864         -27.783
  -6297960.916 6  -3010139.961 5  24556518.585       -3095.418
  -4198558.111 8  -3459063.666 9  21445623.005         670.801
  -9779192.352 6  -7633458.404 6  23301681.122       -2175.972
 92 10 20 19 38 30.0020000  0  6  3 26 23 28 17 21                   0.002912230
  -1538832.811 7  -1347971.112 7  21670686.637        1950.303
  -3922896.438 6  -3054629.545 6  23791892.853        1977.940
 -14693790.726 7 -11467934.951 9  21356539.007         -13.851
  -6390723.539 5  -3082422.424 5  24538866.637       -3088.691
  -4178318.991 8  -3443292.928 9  21449474.498         678.543
  -9844317.138 6  -7684204.927 6  23289288.281       -2165.602
 92 10 20 19 39  0.0020000  0  6  3 26 23 28 17 21                   0.002918830
  -1480040.534 7  -1302158.971 7  21681874.172        1969.013
  -3863315.367 6  -3008202.751 6  23803230.447        1994.135
 -14694000.762 7 -11468098.620 9  21356498.724          -0.125
  -6483289.188 5  -3154551.426 5  24521252.229       -3082.208
  -4157840.132 8  -3427335.390 9  21453371.350         686.737
  -9909126.962 6  -7734706.017 6  23276955.558       -2155.103
 92 10 20 19 39 30.0020000  0  6  3 26 23 28 17 21                   0.002925440
  -1420690.516 7  -1255912.238 7  21693167.575        1987.359
  -3803251.021 6  -2961399.389 6  23814660.002        2009.910
 -14693804.894 7 -11467945.977 9  21356535.546          13.332
  -6575652.838 5  -3226523.027 5  24503675.526       -3075.614
  -4137123.675 8  -3411192.700 9  21457313.760         694.272
  -9973629.865 6  -7784967.971 6  23264681.334       -2145.270
 92 10 20 19 40  0.0020000  0  6  3 26 23 28 17 21                   0.002932050
  -1360799.458 7  -1209243.919 7  21704564.662        2005.332
  -3742723.755 6  -2914235.334 6  23826178.030        2025.435
 -14693196.908 7 -11467472.226 9  21356651.260          27.301
  -6667833.085 5  -3298351.718 5  24486134.670       -3069.433
  -4116181.288 8  -3394873.979 9  21461299.142         702.197
 -10037854.981 6  -7835013.457 6  23252459.168       -2136.326
 92 10 20 19 40 30.0020000  0  6  3 26 23 28 17 21                   0.002938630
  -1300363.869 7  -1162151.293 7  21716065.421        2023.374
  -3681717.152 6  -2866697.743 6  23837787.033        2041.515
 -14692169.133 7 -11466671.354 9  21356846.423          40.995
  -6759821.529 5  -3370030.891 5  24468629.362       -3063.074
  -4094988.152 8  -3378359.860 9  21465332.099         710.581
 -10101807.224 6  -7884846.320 6  23240289.481       -2127.305
 92 10 20 19 41  0.0020000  0  6  3 26 23 28 17 21                   0.002945200
  -1239390.945 7  -1114639.956 7  21727667.849        2041.256
  -3620222.269 6  -2818779.662 6  23849489.405        2058.289
 -14690740.736 7 -11465558.326 9  21357118.574          54.227
  -6851620.059 5  -3441562.153 5  24451159.696       -3056.857
  -4073550.974 8  -3361655.570 9  21469411.267         718.453
 -10165501.537 6  -7934478.187 6  23228168.731       -2119.052
 92 10 20 19 41 30.0020000  0  6  3 26 23 28 17 21                   0.002951770
  -1177877.537 7  -1066707.467 7  21739373.854        2059.487
  -3558216.615 6  -2770463.613 6  23861288.146        2075.542
 -14688914.260 7 -11464135.085 9  21357466.204          67.549
  -6943228.060 5  -3512944.959 5  24433726.640       -3050.306
  -4051876.393 8  -3344766.288 9  21473536.150         726.608
 -10228943.592 6  -7983913.471 6  23216096.230       -2110.313
 92 10 20 19 42  0.0020000  0  6  3 26 23 28 17 21                   0.002958360
  -1115824.934 7  -1018354.818 7  21751181.359        2077.196
  -3495697.074 6  -2721747.125 6  23873185.088        2092.533
 -14686706.101 7 -11462414.444 9  21357886.383          79.593
  -7034642.920 5  -3584177.257 5  24416330.437       -3043.820
  -4029962.811 8  -3327690.780 9  21477706.035         734.271
 -10292130.691 6  -8033150.113 6  23204072.014       -2102.013
 92 10 20 19 42 30.0020000  0  6  3 26 23 28 17 21                   0.002964980
  -1053242.926 7   -969589.692 7  21763090.375        2094.735
  -3432671.796 6  -2672636.564 6  23885178.685        2109.133
 -14684146.030 7 -11460419.577 9  21358373.476          91.018
  -7125860.569 5  -3655255.866 5  24398972.852       -3037.216
  -4007830.240 8  -3310444.643 9  21481917.707         741.229
 -10355067.761 6  -8082191.923 6  23192095.563       -2093.890
 92 10 20 19 43  0.0020000  0  6  3 26 23 28 17 21                   0.002971640
   -990130.559 7   -920411.247 7  21775100.450        2112.695
  -3369143.900 6  -2623134.331 6  23897268.038        2126.005
 -14681232.867 7 -11458149.555 9  21358927.714         103.242
  -7216875.922 6  -3726176.830 5  24381653.293       -3030.387
  -3985477.458 8  -3293026.880 9  21486171.424         748.935
 -10417754.543 6  -8131038.680 6  23180167.002       -2085.151
 92 10 20 19 43 30.0020000  0  6  3 26 23 28 17 21                   0.002978310
   -926470.934 7   -870806.400 7  21787215.176        2131.161
  -3305108.221 6  -2573236.440 6  23909453.039        2143.046
 -14677939.207 7 -11455583.061 9  21359554.250         116.366
  -7307670.119 6  -3796925.496 5  24364376.532       -3022.548
  -3962881.396 8  -3275419.563 9  21490471.206         757.521
 -10480164.963 6  -8179670.113 6  23168290.405       -2075.505
 92 10 20 19 44  0.0020000  0  6  3 26 23 28 17 21                   0.002985020
   -862254.699 7   -820767.824 7  21799435.055        2149.702
  -3240561.083 6  -2522940.022 6  23921736.726        2159.959
 -14674250.703 7 -11452708.895 9  21360256.312         129.663
  -7398229.912 6  -3867491.487 5  24347143.215       -3014.741
  -3940028.964 8  -3257612.488 9  21494819.946         765.971
 -10542283.686 6  -8228074.251 6  23156469.628       -2065.732
 92 10 20 19 44 30.0020000  0  6  3 26 23 28 17 21                   0.002991740
   -797478.329 7   -770292.777 7  21811761.532        2168.597
  -3175511.953 6  -2472252.441 6  23934114.847        2176.624
 -14670141.236 7 -11449506.709 9  21361038.351         144.427
  -7488555.498 6  -3937875.004 5  24329954.575       -3007.068
  -3916907.814 8  -3239596.005 9  21499219.800         775.560
 -10604100.305 6  -8276242.998 6  23144706.083       -2055.352
 92 10 20 19 45  0.0020000  0  6  3 26 23 28 17 21                   0.002998450
   -732138.615 7   -719378.765 7  21824195.114        2187.248
  -3109970.177 6  -2421180.969 6  23946588.183        2192.776
 -14665585.113 7 -11445956.481 9  21361905.281         159.363
  -7578660.617 6  -4008086.709 5  24312808.045       -2999.950
  -3893500.189 8  -3221356.299 9  21503674.506         784.828
 -10665601.452 6  -8324165.896 6  23133002.816       -2044.512
 92 10 20 19 45 30.0030000  0  6  3 26 23 28 17 21                   0.003005140
   -666245.510 7   -668033.537 7  21836734.204        2205.236
  -3043957.583 6  -2369742.643 6  23959149.978        2207.876
 -14660590.518 7 -11442064.576 9  21362855.853         173.514
  -7668556.672 6  -4078135.513 5  24295701.466       -2992.952
  -3869825.283 8  -3202908.347 9  21508179.437         793.357
 -10726782.691 6  -8371839.537 6  23121360.336       -2034.124
 92 10 20 19 46  0.0030000  0  6  3 26 23 28 17 21                   0.003011800
   -599822.821 7   -616275.649 7  21849374.355        2222.867
  -2977506.313 6  -2317962.477 6  23971795.237        2222.202
 -14655179.287 7 -11437848.037 9  21363885.471         187.350
  -7758249.020 6  -4148025.572 5  24278633.450       -2986.368
  -3845907.085 8  -3184270.764 9  21512730.928         801.313
 -10787656.975 6  -8419273.985 6  23109776.123       -2024.133
 92 10 20 19 46 30.0030000  0  6  3 26 23 28 17 21                   0.003018440
   -532871.361 7   -564105.729 7  21862114.932        2240.453
  -2910628.380 6  -2265849.878 6  23984522.062        2236.359
 -14649346.056 7 -11433302.662 9  21364995.361         201.437
  -7847736.421 6  -4217755.935 5  24261604.452       -2979.312
  -3821748.024 8  -3165445.532 9  21517328.393         809.205
 -10848230.070 6  -8466473.772 6  23098249.956       -2014.117
 92 10 20 19 47  0.0030000  0  6  3 26 23 28 17 21                   0.003025050
   -465390.888 7   -511523.606 7  21874956.133        2257.865
  -2843320.586 6  -2213402.295 6  23997330.174        2250.676
 -14643110.288 7 -11428443.624 9  21366182.229         213.865
  -7937000.655 6  -4287312.404 5  24244618.309       -2971.820
  -3797368.888 8  -3146448.812 9  21521967.343         815.886
 -10908502.504 6  -8513439.254 6  23086780.034       -2004.295
 92 10 20 19 47 30.0030000  0  6  3 26 23 28 17 21                   0.003031690
   -397388.994 7   -458535.171 7  21887896.364        2275.483
  -2775576.879 6  -2160615.061 6  24010221.696        2265.609
 -14636506.726 7 -11423297.995 9  21367438.552         226.518
  -8026031.134 6  -4356686.689 5  24227677.175       -2963.577
  -3772785.197 8  -3127292.695 9  21526645.303         823.072
 -10968488.896 7  -8560181.853 6  23075365.367       -1994.934
 92 10 20 19 48  0.0030000  0  6  3 26 23 28 17 21                   0.003038330
   -328846.706 7   -405125.654 7  21900939.715        2294.047
  -2707363.844 6  -2107462.123 6  24023202.126        2281.983
 -14629510.690 7 -11417846.542 9  21368770.029         240.016
  -8114814.493 5  -4425868.454 5  24210781.547       -2955.006
  -3747972.630 8  -3107958.238 9  21531366.895         831.372
 -11028190.472 7  -8606702.517 6  23064004.872       -1985.011
 92 10 20 19 48 30.0030000  0  6  3 26 23 28 17 21                   0.003045010
   -259737.718 7   -351274.526 7  21914090.881        2312.904
  -2638649.238 6  -2053918.324 6  24036277.941        2298.875
 -14622107.173 7 -11412077.580 9  21370178.764         253.230
  -8203321.884 5  -4494835.166 5  24193937.443       -2945.578
  -3722896.248 8  -3088418.201 9  21536138.961         840.290
 -11087588.127 7  -8652986.380 6  23052701.775       -1975.055
 92 10 20 19 49  0.0030000  0  6  3 26 23 28 17 21                   0.003051720
   -190076.902 7   -296993.436 7  21927347.052        2330.935
  -2569434.178 6  -1999984.568 6  24049449.064        2315.509
 -14614333.891 7 -11406020.477 9  21371658.249         265.094
  -8291563.326 6  -4563594.656 5  24177145.411       -2937.271
  -3697564.081 8  -3068678.862 9  21540959.416         848.641
 -11146703.831 6  -8699050.520 6  23041451.908       -1966.102
 92 10 20 19 49 30.0030000  0  6  3 26 23 28 17 21                   0.003058450
   -119877.680 7   -242292.796 7  21940705.325        2348.964
  -2499721.676 6  -1945663.217 6  24062715.101        2332.102
 -14606190.873 7 -11399675.269 9  21373208.037         277.948
  -8379557.788 6  -4632161.708 5  24160400.741       -2928.972
  -3671973.911 8  -3048738.476 9  21545828.843         857.414
 -11205562.846 7  -8744914.635 6  23030251.128       -1957.819
 92 10 20 19 50  0.0030000  0  6  3 26 23 28 17 21                   0.003065190
    -49137.047 7   -187170.271 7  21954167.285        2366.997
  -2429520.530 6  -1890961.067 6  24076072.860        2348.101
 -14597670.616 7 -11393036.108 9  21374829.454         290.100
  -8467305.354 6  -4700536.346 5  24143703.471       -2920.677
  -3646116.941 8  -3028590.191 9  21550749.014         866.487
 -11264167.584 6  -8790580.629 6  23019099.141       -1949.042
 92 10 20 19 50 30.0030000  0  6  3 26 23 28 17 21                   0.003071930
     22145.490 7   -131625.492 7  21967731.726        2384.869
  -2358841.834 6  -1835886.823 6  24089522.907        2363.691
 -14588783.591 7 -11386111.174 9  21376520.702         302.301
  -8554793.037 6  -4768708.488 5  24127055.684       -2912.005
  -3619991.041 7  -3008232.365 9  21555720.604         875.158
 -11322504.723 6  -8836038.098 7  23007997.455       -1940.174
 92 10 20 19 51  0.0030000  0  6  3 26 23 28 17 21                   0.003078690
     93966.692 7    -75660.968 7  21981398.815        2402.713
  -2287699.742 6  -1780451.463 6  24103061.658        2378.761
 -14579523.377 7 -11378895.425 9  21378282.823         314.965
  -8642018.757 6  -4836676.503 5  24110457.747       -2903.339
  -3593605.021 8  -2987671.834 9  21560741.789         883.655
 -11380569.358 6  -8881283.224 7  22996947.767       -1930.893
 92 10 20 19 51 30.0030000  0  6  3 26 23 28 17 21                   0.003085430
    166315.358 7    -19285.425 7  21995166.304        2420.389
  -2216128.576 6  -1724681.774 6  24116681.119        2392.683
 -14569878.670 7 -11371380.058 9  21380118.133         327.901
  -8728983.544 6  -4904441.207 5  24093908.705       -2894.345
  -3566974.374 7  -2966920.691 9  21565809.682         891.725
 -11438352.658 7  -8926309.126 7  22985952.815       -1921.081
 92 10 20 19 52  0.0030000  0  6  3 26 23 28 17 21                   0.003092170
    239195.207 7     37504.004 7  22009034.823        2437.978
  -2144140.036 6  -1668586.880 6  24130379.785        2406.437
 -14559844.605 7 -11363561.316 9  21382027.719         341.101
  -8815679.224 6  -4971996.204 5  24077410.488       -2885.381
  -3540097.218 8  -2945977.476 9  21570924.320         899.785
 -11495820.844 6  -8971089.492 7  22975016.497       -1910.192
 92 10 20 19 52 30.0030000  0  6  3 26 23 28 17 21                   0.003098910
    312596.288 7     94699.592 7  22023002.512        2455.176
  -2071733.908 6  -1612166.588 6  24144158.427        2420.431
 -14549412.187 7 -11355432.155 9  21384012.786         354.287
  -8902114.212 6  -5039348.101 5  24060962.770       -2876.994
  -3512997.388 8  -2924860.737 9  21576081.389         906.921
 -11552972.518 7  -9015623.224 7  22964140.685       -1899.983
 92 10 20 19 53  0.0030000  0  6  3 26 23 28 17 21                   0.003105630
    386511.661 7    152295.941 7  22037068.254        2472.205
  -1998909.940 6  -1555420.698 6  24158016.068        2434.483
 -14538588.136 7 -11346997.824 9  21386072.431         367.189
  -8988300.299 6  -5106505.997 5  24044562.187       -2868.994
  -3485681.059 8  -2903575.291 9  21581279.642         914.051
 -11609818.729 7  -9059918.916 7  22953323.084       -1889.868
 92 10 20 19 53 30.0030000  0  6  3 26 23 28 17 21                   0.003112350
    460937.204 7    210289.825 7  22051230.821        2489.212
  -1925661.374 6  -1498343.979 6  24171954.363        2448.666
 -14527378.476 7 -11338263.017 9  21388205.583         379.744
  -9074255.552 6  -5173484.062 5  24028205.520       -2861.623
  -3458146.890 8  -2882120.113 9  21586519.473         921.451
 -11666359.425 7  -9103976.544 7  22942564.041       -1879.914
 92 10 20 19 54  0.0030000  0  6  3 26 23 28 17 21                   0.003119050
    535869.462 7    268678.541 7  22065489.917        2506.105
  -1851981.718 6  -1440931.323 6  24185975.278        2463.089
 -14515804.013 7 -11329243.970 9  21390407.679         391.781
  -9160001.151 6  -5240298.756 5  24011888.246       -2854.692
  -3430386.675 7  -2860488.792 9  21591802.077         929.157
 -11722618.693 7  -9147814.894 7  22931858.374       -1870.958
 92 10 20 19 54 30.0030000  0  6  3 26 23 28 17 21                   0.003125730
    611314.353 7    327466.712 7  22079846.949        2523.279
  -1777867.237 6  -1383179.811 6  24200078.474        2477.584
 -14503882.101 7 -11319954.156 9  21392676.517         402.744
  -9245526.259 6  -5306941.637 5  23995612.869       -2847.046
  -3402385.916 7  -2838670.035 9  21597130.299         937.660
 -11778618.002 7  -9191450.674 7  22921202.491       -1862.391
 92 10 20 19 55  0.0030000  0  6  3 26 23 28 17 21                   0.003132390
    687274.905 7    386656.704 7  22094301.514        2540.600
  -1703327.495 6  -1325096.973 6  24214263.001        2491.799
 -14491630.120 7 -11310407.159 9  21395008.164         414.039
  -9330807.475 6  -5373394.476 5  23979384.099       -2838.271
  -3374120.229 7  -2816644.834 9  21602508.714         946.688
 -11834356.050 7  -9234882.875 7  22910595.856       -1853.373
 92 10 20 19 55 30.0030000  0  6  3 26 23 28 17 21                   0.003139050
    763755.106 7    446251.610 6  22108855.059        2557.887
  -1628362.494 6  -1266682.742 6  24228528.102        2505.712
 -14479041.012 7 -11300597.474 9  21397403.775         425.217
  -9415821.765 6  -5439639.323 6  23963205.977       -2829.088
  -3345589.081 7  -2794412.785 9  21607938.146         955.299
 -11889824.146 7  -9278104.717 7  22900039.662       -1844.638
 92 10 20 19 56  0.0030000  0  6  3 26 23 28 17 21                   0.003145730
    840755.409 7    506251.799 6  22123508.184        2575.294
  -1552969.543 6  -1207935.065 6  24242875.075        2520.364
 -14466116.661 7 -11290526.547 9  21399863.453         436.463
  -9500541.172 6  -5505654.366 6  23947084.660       -2818.768
  -3316795.767 7  -2771976.454 9  21613417.195         964.098
 -11945028.401 7  -9321120.969 7  22889535.273       -1835.530
 92 10 20 19 56 30.0030000  0  6  3 26 23 28 17 21                   0.003152430
    918277.130 7    566658.286 6  22138259.940        2592.606
  -1477139.224 6  -1148846.556 6  24257306.065        2534.934
 -14452853.635 7 -11280191.734 9  21402387.125         447.964
  -9584947.273 6  -5571425.312 6  23931023.306       -2808.274
  -3287747.381 7  -2749341.361 9  21618944.757         972.369
 -11999951.219 7  -9363917.922 7  22879083.822       -1825.856
 92 10 20 19 57  0.0030000  0  6  3 26 23 28 17 21                   0.003159170
    996316.264 7    627467.926 6  22153110.443        2609.757
  -1400871.924 6  -1089417.530 6  24271819.659        2549.540
 -14439228.529 7 -11269574.771 9  21404979.570         460.369
  -9669042.386 6  -5636953.923 6  23915020.806       -2798.226
  -3258464.545 7  -2726523.589 9  21624516.828         979.827
 -12054577.114 7  -9406483.519 7  22868688.387       -1815.824
 92 10 20 19 57 30.0030000  0  6  3 26 23 28 17 21                   0.003165910
   1074870.931 7    688679.313 6  22168058.782        2627.063
  -1324169.292 6  -1029649.291 6  24286415.454        2563.885
 -14425233.201 7 -11258669.324 9  21407643.028         472.805
  -9752851.263 6  -5702259.512 6  23899072.046       -2788.998
  -3228958.502 7  -2703531.877 9  21630131.930         987.383
 -12108903.398 7  -9448815.627 7  22858350.034       -1805.898
 92 10 20 19 58  0.0030000  0  6  3 26 23 28 17 21                   0.003172650
   1153939.952 7    750291.468 6  22183104.805        2644.087
  -1247044.105 6   -969551.797 6  24301091.894        2577.853
 -14410869.565 7 -11247476.890 9  21410376.354         484.900
  -9836391.621 6  -5767355.820 6  23883174.922       -2780.429
  -3199221.763 7  -2680360.402 9  21635790.454         995.096
 -12162935.161 7  -9490918.278 7  22848068.390       -1796.096
 92 10 20 19 58 30.0030000  0  6  3 26 23 28 17 21                   0.003179390
   1233521.476 7    812302.988 6  22198249.231        2661.271
  -1169507.616 6   -909133.809 6  24315846.898        2591.274
 -14396132.294 7 -11235993.296 9  21413180.783         497.720
  -9919678.067 6  -5832254.285 6  23867325.995       -2771.824
  -3169258.890 7  -2657012.722 9  21641492.246        1002.523
 -12216672.834 7  -9532791.744 7  22837842.768       -1786.326
 92 10 20 19 59  0.0030000  0  6  3 26 23 28 17 21                   0.003186100
   1313618.961 7    874716.556 6  22213491.879        2678.491
  -1091567.535 6   -848401.353 6  24330678.734        2604.798
 -14381010.478 7 -11224210.075 9  21416058.687         510.380
 -10002705.089 6  -5896950.645 6  23851525.854       -2763.142
  -3139065.661 7  -2633485.549 9  21647237.697        1010.606
 -12270117.891 7  -9574437.193 7  22827672.583       -1776.645
 92 10 20 19 59 30.0030000  0  6  3 26 23 28 17 21                   0.003192770
   1394231.346 7    937531.314 6  22228831.490        2695.478
  -1013227.674 6   -787357.344 6  24345585.880        2617.924
 -14365516.975 7 -11212137.223 9  21419007.230         522.547
 -10085467.045 6  -5961440.415 6  23835776.543       -2754.141
  -3108623.140 7  -2609764.124 9  21653030.570        1018.816
 -12323275.034 7  -9615858.297 7  22817556.625       -1767.221
 92 10 20 20  0  0.0030000  0  6  3 26 23 28 17 21                   0.003199440
   1475351.838 7   1000742.041 6  22244268.742        2712.330
   -934488.736 6   -726002.355 6  24360569.209        2631.358
 -14349665.614 7 -11199785.511 9  21422023.501         534.276
 -10167945.039 6  -6025708.896 6  23820082.151       -2744.306
  -3077942.562 7  -2585857.190 9  21658869.055        1026.499
 -12376148.216 7  -9657058.151 7  22807495.450       -1757.525
 92 10 20 20  0 30.0030000  0  6  3 26 23 28 17 21                   0.003206120
   1556980.408 7   1064348.663 6  22259801.581        2729.250
   -855343.573 6   -664330.886 5  24375629.804        2644.910
 -14333456.589 7 -11187155.116 9  21425107.686         546.088
 -10250116.349 6  -6089738.434 6  23804445.536       -2733.798
  -3047027.165 7  -2561767.292 9  21664752.204        1034.396
 -12428721.080 7  -9698023.971 7  22797491.255       -1747.503
 92 10 20 20  1  0.0030000  0  6  3 26 23 28 17 21                   0.003212820
   1639109.309 7   1128345.140 6  22275430.232        2745.887
   -775791.632 6   -602342.427 5  24390768.672        2658.526
 -14316906.307 7 -11174258.799 9  21428257.165         557.283
 -10331971.300 6  -6153521.496 6  23788869.220       -2723.217
  -3015875.797 7  -2537493.522 9  21670680.320        1042.395
 -12480999.406 7  -9738760.279 7  22787543.153       -1737.805
 92 10 20 20  1 30.0030000  0  6  3 26 23 28 17 21                   0.003219530
   1721743.960 7   1192735.695 6  22291155.164        2762.808
   -695826.490 6   -540031.978 5  24405985.857        2672.454
 -14300013.568 7 -11161095.626 9  21431471.370         568.715
 -10413502.099 6  -6217051.901 6  23773353.940       -2712.267
  -2984480.344 8  -2513029.552 9  21676654.914        1050.488
 -12532983.525 7  -9779267.353 7  22777650.921       -1728.052
 92 10 20 20  2  0.0030000  0  6  3 26 23 28 17 21                   0.003226260
   1804888.016 7   1257523.236 6  22306977.250        2779.955
   -615437.711 6   -477391.431 5  24421283.307        2686.769
 -14282779.559 7 -11147666.538 9  21434751.080         580.292
 -10494702.501 6  -6280324.887 6  23757901.524       -2701.217
  -2952832.447 7  -2488368.873 9  21682677.616        1059.574
 -12584675.133 7  -9819546.491 7  22767814.698       -1718.031
 92 10 20 20  2 30.0030000  0  6  3 26 23 28 17 21                   0.003233010
   1888551.550 7   1322715.545 6  22322898.139        2797.317
   -534620.125 6   -414416.754 5  24436662.708        2701.032
 -14265189.400 7 -11133959.925 9  21438098.244         592.186
 -10575572.697 6  -6343340.565 6  23742512.791       -2690.278
  -2920896.496 7  -2463483.737 9  21688754.916        1069.340
 -12636072.905 7  -9859596.647 7  22758033.633       -1708.628
 92 10 20 20  3  0.0030000  0  6  3 26 23 28 17 21                   0.003239750
   1972739.276 6   1388316.292 6  22338918.041        2814.923
   -453374.798 6   -351108.713 5  24452123.226        2714.910
 -14247242.322 7 -11119975.191 9  21441513.449         604.263
 -10656119.236 6  -6406104.051 6  23727185.650       -2679.572
  -2888663.248 7  -2438366.943 9  21694888.462        1079.612
 -12687179.161 7  -9899419.669 7  22748308.185       -1698.419
 92 10 20 20  3 30.0030000  0  6  3 26 23 28 17 21                   0.003246480
   2057446.290 7   1454321.716 6  22355037.317        2832.112
   -371729.611 6   -287489.198 5  24467659.969        2728.189
 -14228937.229 7 -11105711.470 9  21444996.809         616.109
 -10736350.645 6  -6468621.951 6  23711917.984       -2669.034
  -2856120.459 7  -2413008.923 9  21701081.184        1089.984
 -12737976.672 7  -9939002.091 7  22738641.155       -1687.951
 92 10 20 20  4  0.0030000  0  6  3 26 23 28 17 21                   0.003253190
   2142673.984 7   1520732.829 6  22371255.384        2849.433
   -289684.470 6   -223557.981 5  24483272.563        2741.285
 -14210272.595 7 -11091167.634 9  21448548.788         628.221
 -10816257.672 6  -6530887.112 6  23696712.180       -2658.231
  -2823264.971 7  -2387407.298 9  21707333.145        1100.064
 -12788448.693 7  -9978330.910 7  22729036.674       -1676.945
 92 10 20 20  4 30.0030000  0  6  3 26 23 28 17 21                   0.003259900
   2228420.584 7   1587548.299 6  22387572.796        2866.644
   -207254.448 6   -159326.871 5  24498958.047        2753.994
 -14191238.944 7 -11076336.202 9  21452170.642         640.595
 -10895843.744 6  -6592902.174 6  23681567.592       -2647.560
  -2790126.596 7  -2361585.198 9  21713639.271        1108.919
 -12838598.512 7 -10017408.652 7  22719493.622       -1666.406
 92 10 20 20  5  0.0030000  0  6  3 26 23 28 17 21                   0.003266590
   2314677.462 6   1654761.379 6  22403987.051        2883.678
   -124449.217 6    -94803.420 5  24514715.847        2766.412
 -14171839.097 7 -11061219.461 9  21455862.227         652.952
 -10975109.513 6  -6654667.651 6  23666482.845       -2636.680
  -2756730.329 7  -2335562.177 9  21719994.309        1117.642
 -12888432.946 7 -10056240.627 7  22710010.627       -1655.968
 92 10 20 20  5 30.0030000  0  6  3 26 23 28 17 21                   0.003273260
   2401439.942 6   1722368.432 6  22420497.373        2900.398
    -41262.361 6    -29982.522 5  24530545.470        2779.607
 -14152065.735 7 -11045811.666 9  21459624.910         665.141
 -11054051.250 6  -6716180.618 6  23651461.093       -2625.994
  -2723083.555 7  -2309343.939 9  21726397.127        1125.230
 -12937973.811 7 -10094843.893 7  22700583.072       -1646.850
 92 10 20 20  6  0.0030000  0  6  3 26 23 28 17 21                   0.003279950
   2488710.118 7   1790371.102 6  22437104.324        2917.497
     42333.921 5     35157.350 5  24546453.193        2793.552
 -14131930.943 7 -11030122.232 9  21463456.579         677.347
 -11132661.771 6  -6777435.507 6  23636502.412       -2614.582
  -2689217.299 7  -2282954.673 9  21732841.716        1132.672
 -12987242.568 7 -10133235.083 7  22691207.932       -1637.730
 92 10 20 20  6 30.0030000  0  6  3 26 23 28 17 21                   0.003286650
   2576497.823 7   1858777.040 6  22453810.880        2934.787
    126349.724 6    100624.112 5  24562441.151        2807.676
 -14111424.516 7 -11014143.216 9  21467358.977         689.620
 -11210921.066 6  -6838416.729 6  23621610.042       -2602.501
  -2655116.569 7  -2256382.711 9  21739330.605        1140.906
 -13036234.309 7 -10171410.425 7  22681884.687       -1628.216
 92 10 20 20  7  0.0030000  0  6  3 26 23 28 17 21                   0.003293390
   2664799.933 7   1927583.809 6  22470614.158        2951.832
    210793.124 6    166424.104 5  24578510.742        2821.869
 -14090563.587 7 -10997887.980 9  21471328.867         701.110
 -11288807.505 6  -6899107.403 6  23606788.589       -2589.945
  -2620763.470 7  -2229614.084 9  21745867.969        1149.278
 -13084928.825 7 -10209354.183 7  22672618.692       -1617.985
 92 10 20 20  7 30.0030000  0  6  3 26 23 28 17 21                   0.003300190
   2753608.834 7   1996785.456 6  22487513.847        2968.507
    295657.824 6    232552.345 5  24594658.874        2835.640
 -14069372.078 7 -10981375.125 9  21475361.745         711.523
 -11366322.965 6  -6959509.017 6  23592038.144       -2577.654
  -2586172.018 7  -2202659.746 9  21752450.862        1156.802
 -13133314.565 7 -10247057.323 7  22663411.447       -1607.544
 92 10 20 20  8  0.0030000  0  6  3 26 23 28 17 21                   0.003307050
   2842920.468 7   2066378.864 6  22504509.321        2985.343
    380924.180 6    298993.610 5  24610885.676        2848.646
 -14047865.080 7 -10964616.453 9  21479454.603         722.490
 -11443453.810 6  -7019610.911 6  23577360.433       -2564.571
  -2551338.481 7  -2175516.746 9  21759079.472        1165.584
 -13181373.399 7 -10284505.731 7  22654265.809       -1596.390
 92 10 20 20  8 30.0030000  0  6  3 26 23 28 17 21                   0.003313930
   2932732.553 7   2136362.212 6  22521599.930        3001.985
    466561.024 6    365723.574 5  24627182.364        2860.779
 -14026025.867 7 -10947598.893 9  21483610.476         733.596
 -11520206.219 6  -7079417.950 6  23562754.824       -2552.165
  -2516242.558 7  -2148169.324 9  21765758.151        1174.324
 -13229104.280 7 -10321698.587 7  22645183.325       -1585.434
 92 10 20 20  9  0.0030000  0  6  3 26 23 28 17 21                   0.003320830
   3023050.090 7   2206739.433 6  22538786.882        3018.964
    552574.747 6    432747.159 5  24643549.895        2873.424
 -14003843.766 7 -10930314.163 9  21487831.395         745.390
 -11596590.955 6  -7138938.445 6  23548218.846       -2540.240
  -2480878.689 7  -2120613.079 9  21772487.800        1183.304
 -13276499.791 7 -10358630.109 7  22636164.388       -1574.358
 92 10 20 20  9 30.0030000  0  6  3 26 23 28 17 21                   0.003327730
   3113883.847 6   2277518.908 6  22556071.947        3036.348
    638972.723 6    500070.184 5  24659990.355        2886.323
 -13981288.310 7 -10912738.510 9  21492123.673         758.388
 -11672611.947 6  -7198175.554 6  23533752.510       -2527.745
  -2445228.337 7  -2092833.607 9  21779271.865        1193.514
 -13323565.363 7 -10395304.566 7  22627207.760       -1563.367
 92 10 20 20 10  0.0030000  0  6  3 26 23 28 17 21                   0.003334610
   3205232.276 6   2348699.407 6  22573454.973        3053.288
    725754.160 6    567692.040 5  24676504.252        2899.198
 -13958343.193 7 -10894859.207 9  21496489.852         771.306
 -11748269.193 6  -7257129.167 6  23519356.008       -2516.214
  -2409266.339 7  -2064811.305 9  21786115.663        1203.868
 -13370312.175 7 -10431730.618 7  22618311.849       -1553.054
 92 10 20 20 10 30.0030000  0  6  3 26 23 28 17 21                   0.003341460
   3297084.055 6   2420272.121 6  22590933.992        3069.950
    812926.752 6    635618.653 5  24693092.807        2912.607
 -13935017.897 7 -10876683.677 9  21500928.446         783.728
 -11823589.914 6  -7315820.620 6  23505023.138       -2504.978
  -2373004.158 7  -2036555.081 9  21793015.740        1213.589
 -13416748.859 7 -10467915.008 7  22609474.967       -1542.717
 92 10 20 20 11  0.0030000  0  6  3 26 23 28 17 21                   0.003348300
   3389434.377 6   2492233.326 6  22608507.164        3086.533
    900513.409 6    703867.952 5  24709759.880        2926.319
 -13911321.473 7 -10858218.944 9  21505437.595         795.979
 -11898561.977 6  -7374240.353 6  23490756.436       -2493.014
  -2336445.979 7  -2008068.219 9  21799972.453        1223.545
 -13462874.068 7 -10503856.701 7  22600697.823       -1532.375
 92 10 20 20 11 30.0030000  0  6  3 26 23 28 17 21                   0.003355140
   3482280.984 6   2564581.242 6  22626175.264        3103.165
    988500.671 6    772429.362 5  24726503.579        2939.622
 -13887265.659 7 -10839474.169 9  21510014.938         807.734
 -11973167.297 6  -7432374.304 6  23476559.344       -2480.447
  -2299594.322 7  -1979352.680 9  21806985.327        1233.349
 -13508693.497 7 -10539560.123 7  22591978.749       -1522.071
 92 10 20 20 12  0.0030000  0  6  3 26 23 28 17 21                   0.003361990
   3575622.283 6   2637314.638 6  22643937.827        3119.332
   1076880.203 6    841296.450 5  24743321.834        2952.215
 -13862873.786 7 -10820467.525 9  21514656.633         818.381
 -12047397.992 6  -7490216.366 6  23462433.577       -2468.191
  -2262464.459 7  -1950420.331 9  21814051.258        1241.819
 -13554206.936 7 -10575025.109 7  22583318.105       -1512.255
 92 10 20 20 12 30.0030000  0  6  3 26 23 28 17 21                   0.003368860
   3669445.959 6   2710423.901 6  22661791.309        3135.416
   1165625.210 6    910448.368 5  24760209.315        2964.114
 -13838160.989 7 -10801210.820 9  21519359.658         829.053
 -12121248.391 6  -7547762.078 6  23448379.705       -2454.993
  -2225087.848 7  -1921295.734 9  21821163.454        1249.903
 -13599431.302 7 -10610264.829 7  22574712.342       -1502.760
 92 10 20 20 13  0.0030000  0  6  3 26 23 28 17 21                   0.003375760
   3763754.958 7   2783911.345 6  22679737.983        3151.797
   1254720.982 6    979873.560 5  24777164.067        2975.653
 -13813128.843 7 -10781705.242 9  21524123.061         839.802
 -12194693.184 6  -7604991.763 6  23434403.149       -2441.187
  -2187464.734 7  -1891979.039 9  21828322.518        1258.407
 -13644365.474 7 -10645278.468 7  22566161.392       -1492.780
 92 10 20 20 13 30.0030000  0  6  3 26 23 28 17 21                   0.003382690
   3858554.164 6   2857780.779 6  22697778.062        3168.262
   1344161.185 6   1049567.150 6  24794184.183        2987.380
 -13787776.477 7 -10761950.155 9  21528947.200         850.606
 -12267721.508 6  -7661896.906 6  23420506.879       -2427.062
  -2149590.044 7  -1862466.314 9  21835530.027        1266.986
 -13688994.895 7 -10680054.611 7  22557668.562       -1482.353
 92 10 20 20 14  0.0030000  0  6  3 26 23 28 17 21                   0.003389650
   3953855.990 6   2932041.847 6  22715913.670        3185.033
   1433969.024 6   1119547.243 5  24811273.705        2999.796
 -13762085.010 7 -10741930.846 9  21533836.137         862.285
 -12340314.966 6  -7718463.209 6  23406693.572       -2412.364
  -2111439.396 7  -1832738.568 9  21842789.851        1276.394
 -13733299.850 7 -10714577.933 7  22549237.319       -1471.255
 92 10 20 20 14 30.0030000  0  6  3 26 23 28 17 21                   0.003396630
   4049659.510 6   3006693.839 6  22734144.611        3201.604
   1524145.900 6   1189814.860 5  24828433.514        3012.135
 -13736041.102 7 -10721636.893 9  21538792.377         873.868
 -12412467.884 6  -7774686.219 6  23392962.750       -2397.955
  -2073003.213 7  -1802788.306 9  21850103.908        1286.047
 -13777273.626 7 -10748843.218 7  22540869.000       -1460.239
 92 10 20 20 15  0.0030000  0  6  3 26 23 28 17 21                   0.003403640
   4145953.544 6   3081728.045 6  22752469.137        3217.772
   1614694.620 6   1260372.218 5  24845664.663        3024.340
 -13709658.643 7 -10701079.120 9  21543812.912         884.996
 -12484206.929 6  -7830586.745 6  23379311.128       -2384.835
  -2034277.300 7  -1772612.303 9  21857473.474        1295.535
 -13820914.388 7 -10782848.977 7  22532564.419       -1449.219
 92 10 20 20 15 30.0030000  0  6  3 26 23 28 17 21                   0.003410660
   4242731.372 6   3157139.269 6  22770885.634        3233.945
   1705604.680 6   1331211.165 5  24862964.277        3036.226
 -13682938.802 7 -10680258.466 9  21548897.490         896.313
 -12555557.516 6  -7886184.556 6  23365733.429       -2371.913
  -1995269.567 7  -1742216.684 9  21864896.337        1305.101
 -13864222.304 7 -10816595.369 7  22524323.385       -1438.116
 92 10 20 20 16  0.0030000  0  6  3 26 23 28 17 21                   0.003417670
   4339989.259 6   3232924.532 6  22789393.341        3249.778
   1796862.187 6   1402320.840 5  24880330.177        3047.660
 -13655884.160 7 -10659176.937 9  21554045.616         907.362
 -12626533.551 6  -7941490.533 6  23352226.940       -2359.814
  -1955978.793 7  -1711600.507 9  21872373.242        1314.152
 -13907209.701 7 -10850092.029 7  22516143.008       -1427.599
 92 10 20 20 16 30.0030000  0  6  3 26 23 28 17 21                   0.003424680
   4437726.775 6   3309083.556 6  22807991.436        3265.723
   1888464.699 6   1473699.319 5  24897761.210        3059.027
 -13628498.190 7 -10637837.236 9  21559256.918         918.168
 -12697146.757 6  -7996513.772 6  23338789.921       -2348.037
  -1916417.367 7  -1680773.448 9  21879901.378        1323.218
 -13949878.958 7 -10883340.803 7  22508023.588       -1417.085
 92 10 20 20 17  0.0030000  0  6  3 26 23 28 17 21                   0.003431670
   4535938.609 6   3385612.182 6  22826681.118        3281.348
   1980404.844 6   1545340.915 5  24915257.646        3070.016
 -13600792.515 7 -10616248.409 9  21564529.626         928.661
 -12767407.153 6  -8051262.089 6  23325419.867       -2336.138
  -1876584.748 7  -1649735.052 9  21887481.510        1332.028
 -13992232.101 7 -10916343.230 8  22499964.068       -1406.773
 92 10 20 20 17 30.0030000  0  6  3 26 23 28 17 21                   0.003438640
   4634614.340 6   3462502.260 6  22845458.560        3296.799
   2072666.776 6   1617233.241 5  24932814.733        3080.818
 -13572776.902 7 -10594418.069 9  21569860.436         939.032
 -12837309.176 6  -8105731.151 6  23312117.968       -2323.796
  -1836486.917 7  -1618490.017 9  21895111.879        1341.291
 -14034289.610 7 -10949115.292 8  22491960.770       -1397.165
 92 10 20 20 18  0.0030000  0  6  3 26 23 28 17 21                   0.003445590
   4733744.343 6   3539746.325 6  22864322.210        3311.685
   2165253.590 6   1689378.742 5  24950433.015        3091.752
 -13544456.886 7 -10572350.544 9  21575249.744         948.949
 -12906839.523 6  -8159910.627 6  23298886.699       -2311.396
  -1796115.013 7  -1587031.404 9  21902794.183        1350.072
 -14076072.418 7 -10981673.304 8  22484009.774       -1388.179
 92 10 20 20 18 30.0030000  0  6  3 26 23 28 17 21                   0.003452540
   4833335.766 6   3617349.926 6  22883274.040        3327.844
   2258179.456 5   1761788.380 5  24968115.733        3103.546
 -13515832.763 7 -10550046.040 9  21580696.654         959.669
 -12975975.389 6  -8213782.675 6  23285729.875       -2297.341
  -1755467.154 7  -1555357.759 9  21910529.255        1360.110
 -14117568.770 7 -11014008.126 8  22476113.410       -1377.858
 92 10 20 20 19  0.0030000  0  6  3 26 23 28 17 21                   0.003459520
   4933420.751 6   3695338.154 6  22902319.973        3344.350
   2351467.433 6   1834480.200 5  24985867.911        3115.678
 -13486873.658 7 -10527480.534 9  21586207.559         971.010
 -13044666.777 6  -8267308.423 6  23272658.973       -2282.002
  -1714512.869 7  -1523445.352 9  21918322.560        1370.154
 -14158744.191 7 -11046092.840 8  22468278.027       -1367.200
 92 10 20 20 19 30.0030000  0  6  3 26 23 28 17 21                   0.003466540
   5034002.755 6   3773713.640 6  22921459.622        3360.900
   2445121.836 5   1907457.565 5  25003689.925        3128.029
 -13457572.455 7 -10504648.446 9  21591783.261         982.502
 -13112893.434 6  -8320472.010 6  23259675.922       -2266.258
  -1673254.854 7  -1491296.275 9  21926173.696        1380.463
 -14199598.548 7 -11077927.397 8  22460503.656       -1356.235
 92 10 20 20 20  0.0030000  0  6  3 26 23 28 17 21                   0.003473590
   5135077.759 6   3852473.299 6  22940693.918        3377.257
   2539139.100 5   1980717.688 5  25021580.469        3139.800
 -13427933.537 7 -10481553.207 9  21597423.674         993.348
 -13180647.592 6  -8373267.421 6  23246782.578       -2250.711
  -1631701.124 7  -1458916.759 9  21934081.132        1389.577
 -14240122.141 7 -11109504.196 8  22452792.334       -1345.287
 92 10 20 20 20 30.0030000  0  6  3 26 23 28 17 21                   0.003480700
   5236646.748 6   3931617.846 6  22960022.126        3393.697
   2633516.327 5   2054258.252 5  25039540.184        3151.688
 -13397960.532 7 -10458197.646 9  21603127.387        1004.694
 -13247925.828 6  -8425691.991 6  23233979.879       -2234.738
  -1589867.045 7  -1426318.812 9  21942042.299        1399.159
 -14280303.905 7 -11140814.637 8  22445145.829       -1333.746
 92 10 20 20 21  0.0030000  0  6  3 26 23 28 17 21                   0.003487850
   5338704.807 6   4011143.525 6  22979443.189        3409.708
   2728251.892 5   2128078.115 5  25057568.288        3163.748
 -13367647.042 7 -10434576.747 9  21608896.012        1015.938
 -13314721.548 6  -8477740.550 6  23221269.050       -2218.684
  -1547744.168 7  -1393495.803 9  21950057.539        1408.841
 -14320141.721 7 -11171857.061 8  22437564.647       -1322.414
 92 10 20 20 21 30.0030000  0  6  3 26 23 28 17 21                   0.003495040
   5441228.413 6   4091031.958 6  22998952.847        3424.755
   2823331.337 5   2202165.899 5  25075661.537        3174.644
 -13337007.050 7 -10410701.442 9  21614726.717        1026.518
 -13381055.661 6  -8529429.435 6  23208646.319       -2203.728
  -1505333.823 7  -1360448.802 9  21958127.844        1418.166
 -14359648.830 7 -11202641.789 8  22430046.092       -1311.548
 92 10 20 20 22  0.0030000  0  6  3 26 23 28 17 21                   0.003502220
   5544193.204 6   4171264.160 6  23018546.901        3439.347
   2918719.092 5   2276493.894 5  25093813.235        3184.612
 -13306058.774 7 -10386585.918 9  21620615.581        1036.707
 -13446953.424 7  -8580778.309 6  23196106.510       -2189.494
  -1462664.042 7  -1327199.646 9  21966247.681        1426.436
 -14398844.727 7 -11233184.012 8  22422587.556       -1301.566
 92 10 20 20 22 30.0030000  0  6  3 26 23 28 17 21                   0.003509400
   5647600.065 6   4251840.819 6  23038223.940        3454.171
   3014409.813 5   2351058.038 5  25112022.244        3194.472
 -13274793.649 7 -10362223.501 9  21626565.200        1047.478
 -13512421.888 7  -8631792.667 7  23183648.103       -2175.129
  -1419735.844 7  -1293749.131 9  21974416.898        1435.397
 -14437730.794 7 -11263484.816 8  22415187.979       -1290.954
 92 10 20 20 23  0.0030000  0  6  3 26 23 28 17 21                   0.003516570
   5751455.515 6   4332767.063 6  23057986.998        3469.252
   3110393.297 5   2425850.232 5  25130287.073        3204.355
 -13243204.567 7 -10337608.647 9  21632576.211        1058.378
 -13577457.816 6  -8682469.983 7  23171272.353       -2160.844
  -1376529.874 7  -1260082.177 9  21982638.716        1444.800
 -14476297.531 7 -11293536.805 8  22407849.087       -1280.318
 92 10 20 20 23 30.0030000  0  6  3 26 23 28 17 21                   0.003523710
   5855752.636 6   4414037.436 6  23077833.940        3483.671
   3206649.142 5   2500854.732 5  25148604.944        3212.793
 -13211307.054 7 -10312753.458 9  21638645.699        1067.994
 -13642083.883 7  -8732827.907 7  23158974.049       -2147.431
  -1333061.228 7  -1226210.548 9  21990910.529        1453.072
 -14514560.570 7 -11323352.131 8  22400568.068       -1270.670
 92 10 20 20 24  0.0030000  0  6  3 26 23 28 17 21                   0.003530840
   5960495.684 6   4495655.284 6  23097766.379        3498.543
   3303181.433 5   2576074.639 5  25166974.357        3222.312
 -13179113.567 7 -10287667.645 9  21644772.048        1077.740
 -13706285.631 7  -8782855.234 7  23146756.723       -2133.118
  -1289329.907 7  -1192134.219 9  21999232.918        1462.044
 -14552531.098 7 -11352939.521 8  22393342.690       -1261.142
 92 10 20 20 24 30.0030000  0  6  3 26 23 28 17 21                   0.003537960
   6065676.013 6   4577613.882 6  23117781.163        3513.251
   3399998.217 6   2651516.140 5  25185398.024        3232.182
 -13146639.266 7 -10262363.010 9  21650951.838        1087.038
 -13770064.698 7  -8832553.179 7  23134619.955       -2118.774
  -1245324.323 7  -1157844.208 9  22007606.551        1471.666
 -14590218.583 7 -11382306.354 8  22386170.928       -1251.519
 92 10 20 20 25  0.0030000  0  6  3 26 23 28 17 21                   0.003545080
   6171283.938 6   4659905.668 6  23137877.850        3527.228
   3497108.436 5   2727186.390 5  25203877.989        3242.057
 -13113901.607 7 -10236853.146 9  21657181.785        1095.689
 -13833417.070 7  -8881918.633 7  23122564.400       -2104.519
  -1201037.685 7  -1123335.167 9  22016033.798        1480.823
 -14627637.088 7 -11411463.611 8  22379050.176       -1242.956
 92 10 20 20 25 30.0030000  0  6  3 26 23 28 17 21                   0.003552220
   6277323.667 6   4742533.904 6  23158056.733        3541.993
   3594540.007 5   2803106.971 5  25222418.524        3253.348
 -13080885.417 7 -10211126.272 9  21663464.426        1105.589
 -13896316.012 7  -8930930.770 7  23110595.598       -2088.530
  -1156461.628 7  -1088600.620 9  22024516.064        1491.091
 -14664785.464 7 -11440410.361 8  22371981.091       -1233.353
 92 10 20 20 26  0.0030000  0  6  3 26 23 28 17 21                   0.003559370
   6383808.311 6   4825508.845 6  23178319.903        3556.587
   3692312.195 5   2879292.982 5  25241024.062        3264.486
 -13047563.165 7 -10185160.898 9  21669805.336        1115.869
 -13958734.305 7  -8979568.395 7  23098717.680       -2072.910
  -1111572.792 7  -1053622.351 9  22033058.291        1501.298
 -14701636.142 7 -11469125.172 9  22364968.595       -1223.369
 92 10 20 20 26 30.0030000  0  6  3 26 23 28 17 21                   0.003566530
   6490725.991 6   4908821.222 6  23198665.229        3570.847
   3790405.709 5   2955729.391 5  25259690.478        3274.756
 -13013935.625 7 -10158957.634 9  21676204.656        1125.803
 -14020692.532 7  -9027847.494 7  23086927.325       -2057.849
  -1066388.614 7  -1018413.941 9  22041656.377        1510.644
 -14738182.661 7 -11497602.940 9  22358014.210       -1213.238
 92 10 20 20 27  0.0030000  0  6  3 26 23 28 17 21                   0.003573690
   6598065.528 6   4992462.303 6  23219091.686        3585.028
   3888801.288 5   3032401.150 5  25278415.021        3284.765
 -12980008.992 7 -10132521.336 9  21682660.617        1136.155
 -14082205.568 7  -9075779.687 7  23075221.786       -2042.956
  -1020931.424 7   -982992.797 9  22050306.610        1519.723
 -14774427.963 7 -11525846.026 9  22351116.993       -1202.941
 92 10 20 20 27 30.0030000  0  6  3 26 23 28 17 21                   0.003580850
   6705831.132 6   5076435.398 6  23239599.599        3599.161
   3987480.995 5   3109294.321 5  25297193.187        3293.810
 -12945774.127 7 -10105844.828 9  21689175.097        1146.219
 -14143275.734 6  -9123366.815 7  23063600.114       -2028.416
   -975214.743 7   -947369.441 9  22059006.567        1528.059
 -14810356.352 7 -11553842.144 9  22344280.396       -1192.191
 92 10 20 20 28  0.0030000  0  6  3 26 23 28 17 21                   0.003588000
   6814027.297 6   5160743.991 6  23260187.778        3613.967
   4086437.774 5   3186403.402 5  25316024.531        3303.604
 -12911227.775 7 -10078925.619 9  21695749.236        1157.031
 -14203906.810 7  -9170611.773 7  23052062.109       -2013.355
   -929243.564 7   -911547.794 9  22067754.700        1536.814
 -14845952.193 7 -11581579.147 9  22337506.986       -1180.663
 92 10 20 20 28 30.0030000  0  6  3 26 23 28 17 21                   0.003595170
   6922672.957 6   5245402.810 6  23280862.714        3628.872
   4185695.300 5   3263746.852 5  25334912.815        3313.626
 -12876357.738 7 -10051754.185 9  21702385.050        1167.711
 -14264075.798 7  -9217496.681 7  23040612.515       -1997.785
   -883006.628 7   -875519.058 9  22076553.241        1545.725
 -14881200.345 7 -11609045.241 9  22330798.719       -1169.258
 92 10 20 20 29  0.0030000  0  6  3 26 23 28 17 21                   0.003602370
   7031767.220 6   5330411.237 6  23301623.650        3643.851
   4285251.043 5   3341322.660 5  25353857.768        3323.432
 -12841164.364 7 -10024330.804 9  21709082.366        1178.414
 -14323770.853 6  -9264012.286 7  23029253.608       -1981.876
   -836498.248 7   -839278.786 9  22085403.913        1554.853
 -14916110.206 7 -11636247.705 9  22324156.058       -1158.069
 92 10 20 20 29 30.0030000  0  6  3 26 23 28 17 21                   0.003609590
   7141316.073 6   5415773.852 6  23322470.308        3659.245
   4385111.649 5   3419135.998 5  25372860.801        3334.117
 -12805652.400 7  -9996659.170 9  21715840.156        1188.984
 -14382971.698 6  -9310142.782 7  23017987.531       -1964.991
   -789701.591 7   -802813.901 9  22094308.837        1565.098
 -14950676.276 7 -11663182.282 9  22317578.192       -1146.374
 92 10 20 20 30  0.0030000  0  6  3 26 23 28 17 21                   0.003616840
   7251316.504 6   5501488.371 5  23343402.189        3673.791
   4485287.959 5   3497195.384 5  25391923.887        3344.163
 -12769833.060 7  -9968748.015 9  21722656.428        1198.588
 -14441678.365 7  -9355888.189 7  23006816.032       -1948.925
   -742595.968 7   -766108.244 9  22103272.853        1575.290
 -14984902.807 7 -11689852.297 9  22311065.292       -1135.717
 92 10 20 20 30 30.0030000  0  6  3 26 23 28 17 21                   0.003624110
   7361745.261 6   5587536.650 5  23364416.380        3687.996
   4585761.741 5   3575486.533 5  25411042.870        3354.161
 -12733746.871 7  -9940628.925 9  21729523.195        1207.292
 -14499904.909 7  -9401259.499 7  22995735.815       -1932.715
   -695179.977 7   -729160.760 9  22112295.957        1585.861
 -15018827.694 7 -11716287.257 9  22304609.641       -1125.853
 92 10 20 20 31  0.0030000  0  6  3 26 23 28 17 21                   0.003631400
   7472597.054 6   5673914.569 5  23385510.285        3701.807
   4686535.513 5   3654011.451 5  25430218.866        3363.985
 -12697399.683 7  -9912306.469 9  21736439.887        1215.731
 -14557646.581 7  -9446252.976 7  22984748.069       -1916.755
   -647448.115 7   -691967.140 9  22121378.937        1596.118
 -15052455.731 7 -11742490.903 9  22298210.431       -1116.130
 92 10 20 20 31 30.0030000  0  6  3 26 23 28 17 21                   0.003638710
   7583852.562 6   5760607.040 5  23406681.401        3714.833
   4787597.683 5   3732761.098 5  25449450.993        3373.368
 -12660805.923 7  -9883791.868 9  21743403.124        1223.885
 -14614914.057 6  -9490876.979 7  22973850.424       -1901.294
   -599414.979 7   -654538.753 9  22130519.020        1605.815
 -15085798.312 7 -11768472.124 9  22291865.442       -1106.848
 92 10 20 20 32  0.0030000  0  6  3 26 23 28 17 21                   0.003646020
   7695504.019 6   5847608.053 5  23427928.482        3728.446
   4888935.980 5   3811725.916 5  25468734.903        3382.628
 -12623952.954 7  -9855075.294 9  21750416.130        1232.977
 -14671714.696 7  -9535137.184 7  22963040.767       -1885.207
   -551092.396 7   -616884.808 9  22139714.505        1615.690
 -15118864.997 7 -11794238.350 9  22285572.979       -1097.568
 92 10 20 20 32 30.0030000  0  6  3 26 23 28 17 21                   0.003653340
   7807560.220 6   5934924.458 5  23449252.040        3741.786
   4990553.042 5   3890907.951 5  25488072.265        3391.737
 -12586824.981 7  -9826144.434 9  21757481.260        1242.263
 -14728023.600 7  -9579014.212 7  22952325.745       -1868.718
   -502484.066 7   -579008.210 9  22148964.030        1624.687
 -15151651.944 7 -11819786.623 9  22279334.139       -1088.048
 92 10 20 20 33  0.0030000  0  6  3 26 23 28 17 21                   0.003660660
   7920012.805 6   6022549.730 5  23470651.155        3755.160
   5092424.103 5   3970287.905 5  25507457.576        3399.829
 -12549415.568 7  -9796994.260 9  21764599.952        1251.893
 -14783844.117 7  -9622510.693 7  22941703.829       -1852.448
   -453618.443 7   -540931.158 9  22158262.984        1633.318
 -15184143.122 7 -11845104.401 9  22273151.388       -1077.783
 92 10 20 20 33 30.0030000  0  6  3 26 23 28 17 21                   0.003667970
   8032871.025 6   6110491.090 5  23492127.821        3768.738
   5194537.065 5   4049856.347 5  25526888.760        3407.791
 -12511711.182 7  -9767614.225 9  21771775.112        1261.745
 -14839175.058 7  -9665625.690 7  22931174.968       -1836.203
   -404486.996 7   -502646.934 9  22167612.671        1642.157
 -15216320.897 7 -11870177.979 9  22267027.748       -1067.296
 92 10 20 20 34  0.0030000  0  6  3 26 23 28 17 21                   0.003675280
   8146140.553 6   6198752.929 5  23513682.687        3782.354
   5296888.427 5   4129610.566 5  25546365.319        3415.801
 -12473716.634 7  -9738008.105 9  21779005.548        1271.030
 -14894015.880 7  -9708358.786 7  22920739.262       -1819.799
   -355086.536 7   -464153.099 9  22177013.233        1651.103
 -15248179.682 7 -11895003.002 9  22260965.035       -1056.673
 92 10 20 20 34 30.0030000  0  6  3 26 23 28 17 21                   0.003682610
   8259815.806 6   6287330.911 5  23535314.510        3795.938
   5399484.110 5   4209555.172 5  25565888.822        3424.051
 -12435445.286 7  -9708186.279 9  21786288.594        1280.536
 -14948365.123 7  -9750708.812 7  22910397.192       -1803.380
   -305424.660 7   -425455.547 9  22186464.070        1659.823
 -15279716.237 7 -11919576.927 9  22254963.838       -1045.449
 92 10 20 20 35  0.0030000  0  6  3 26 23 28 17 21                   0.003689930
   8373894.484 6   6376223.266 5  23557022.643        3808.992
   5502320.008 5   4289686.941 5  25585458.406        3431.712
 -12396890.235 7  -9678143.397 9  21793625.337        1289.717
 -15002233.552 7  -9792684.192 7  22900145.891       -1787.917
   -255501.541 7   -386554.460 9  22195964.454        1668.320
 -15310920.708 7 -11943892.088 9  22249025.689       -1035.077
 92 10 20 20 35 30.0030000  0  6  3 26 23 28 17 21                   0.003697250
   8488363.732 6   6465419.961 5  23578805.251        3821.926
   5605395.217 5   4370005.215 5  25605072.628        3439.928
 -12358061.273 7  -9647887.081 9  21801014.223        1298.620
 -15055632.963 7  -9834294.093 7  22889984.333       -1772.187
   -205317.929 7   -347450.382 9  22205513.951        1677.164
 -15341825.098 7 -11967973.413 9  22243144.833       -1025.386
 92 10 20 20 36  0.0030000  0  6  3 26 23 28 17 21                   0.003704570
   8603221.289 6   6554919.234 5  23600662.523        3834.881
   5708720.034 5   4450517.923 5  25624734.737        3448.341
 -12318967.896 7  -9617424.721 9  21808453.183        1307.554
 -15108553.318 7  -9875530.733 7  22879913.688       -1755.908
   -154857.783 7   -308130.813 9  22215115.846        1686.769
 -15372436.358 7 -11991826.333 9  22237319.444       -1015.568
 92 10 20 20 36 30.0030000  0  6  3 26 23 28 17 21                   0.003711880
   8718459.650 6   6644715.226 5  23622592.332        3847.509
   5812285.571 5   4531218.230 5  25644442.367        3455.956
 -12279607.779 7  -9586754.501 9  21815943.196        1316.413
 -15160985.015 7  -9916386.575 7  22869936.393       -1739.492
   -104110.728 7   -268587.670 9  22224772.531        1696.486
 -15402760.932 7 -12015455.863 9  22231549.111       -1006.131
 92 10 20 20 37  0.0030000  0  6  3 26 23 28 17 21                   0.003719160
   8834071.275 6   6734802.065 5  23644591.937        3859.700
   5916068.350 5   4612087.839 5  25664190.897        3462.878
 -12239991.824 7  -9555884.940 9  21823482.058        1324.613
 -15212920.227 7  -9956855.536 7  22860053.144       -1722.822
    -53061.124 7   -228808.782 9  22234486.484        1706.699
 -15432813.745 7 -12038873.604 9  22225829.910        -997.535
 92 10 20 20 37 30.0030000  0  6  3 26 23 28 17 21                   0.003726420
   8950053.283 6   6825177.511 5  23666662.220        3872.333
   6020069.243 5   4693127.401 5  25683980.969        3470.626
 -12200125.231 7  -9524820.077 9  21831068.347        1333.147
 -15264339.191 7  -9996922.246 7  22850268.638       -1705.102
     -1692.632 7   -188781.424 9  22244261.787        1717.939
 -15462600.863 7 -12062084.341 9  22220161.444        -988.117
 92 10 20 20 38  0.0030000  0  6  3 26 23 28 17 21                   0.003733680
   9066413.754 6   6915847.848 5  23688805.371        3884.897
   6124302.575 5   4774348.072 5  25703815.907        3478.351
 -12160001.802 7  -9493555.092 9  21838703.420        1341.981
 -15315223.864 7 -10036572.603 7  22840585.541       -1687.076
     50001.662 7   -148500.178 9  22254099.119        1728.241
 -15492099.505 7 -12085070.279 9  22214547.967        -978.454
 92 10 20 20 38 30.0030000  0  6  3 26 23 28 17 21                   0.003740940
   9183141.670 6   7006804.544 5  23711017.835        3896.986
   6228758.974 5   4855742.553 5  25723693.782        3485.657
 -12119621.072 7  -9462089.601 9  21846387.851        1350.305
 -15365574.065 7 -10075806.513 7  22831004.074       -1669.557
    101980.815 7   -107996.978 8  22263990.499        1737.153
 -15521319.460 7 -12107839.070 9  22208987.737        -969.280
 92 10 20 20 39  0.0030000  0  6  3 26 23 28 17 21                   0.003748190
   9300230.090 6   7098042.129 5  23733298.461        3908.737
   6333442.026 5   4937313.715 5  25743613.525        3493.236
 -12078990.884 7  -9430429.719 9  21854119.618        1358.424
 -15415411.100 7 -10114640.547 7  22821520.330       -1652.916
    154221.471 7    -67289.997 8  22273932.188        1745.415
 -15550260.684 7 -12130390.653 9  22203480.461        -960.079
 92 10 20 20 39 30.0030000  0  6  3 26 23 28 17 21                   0.003755470
   9417677.245 6   7189559.250 5  23755648.098        3920.754
   6438359.605 5   5019067.557 5  25763579.500        3501.215
 -12038114.603 7  -9398578.093 9  21861897.804        1366.497
 -15464751.349 7 -10153087.477 7  22812131.280       -1636.479
    206707.009 7    -26392.206 9  22283919.534        1753.543
 -15578914.525 7 -12152718.323 9  22198027.704        -950.270
 92 10 20 20 40  0.0030000  0  6  3 26 23 28 17 21                   0.003762760
   9535476.983 6   7281351.077 5  23778064.677        3932.517
   6543501.305 5   5100996.092 5  25783587.831        3508.165
 -11997009.818 7  -9366548.387 9  21869719.617        1374.022
 -15513604.727 7 -10191155.026 7  22802834.966       -1620.198
    259418.231 7     14681.432 8  22293949.581        1760.808
 -15607282.549 7 -12174823.270 9  22192629.264        -940.690
 92 10 20 20 40 30.0030000  0  6  3 26 23 28 17 21                   0.003770060
   9653627.906 6   7373416.607 5  23800548.323        3944.102
   6648847.515 5   5183083.929 5  25803635.058        3514.855
 -11955682.248 7  -9334345.111 9  21877583.994        1381.219
 -15561977.475 7 -10228848.073 7  22793629.820       -1604.649
    312364.797 7     55938.463 8  22304025.266        1768.968
 -15635359.742 7 -12196701.604 9  22187286.470        -931.051
 92 10 20 20 41  0.0030000  0  6  3 26 23 28 17 21                   0.003777340
   9772127.228 6   7465753.605 5  23823098.063        3955.754
   6754394.072 5   5265327.966 5  25823719.547        3521.573
 -11914133.586 7  -9301969.545 9  21885490.659        1388.721
 -15609876.679 7 -10266172.086 7  22784514.989       -1588.368
    365561.062 7     97390.063 8  22314148.468        1777.526
 -15663144.094 7 -12218351.734 9  22181999.619        -921.131
 92 10 20 20 41 30.0030000  0  6  3 26 23 28 17 21                   0.003784630
   9890986.650 6   7558371.158 5  23845716.933        3968.043
   6860148.978 5   5347734.284 5  25843844.605        3528.877
 -11872351.098 7  -9269411.773 9  21893441.337        1396.874
 -15657271.848 7 -10303103.376 7  22775496.014       -1571.070
    419024.877 7    139050.152 8  22324322.353        1786.846
 -15690617.960 7 -12239759.932 9  22176771.740        -910.422
 92 10 20 20 42  0.0030000  0  6  3 26 23 28 17 21                   0.003791940
  10010219.354 6   7651279.610 5  23868406.110        3980.594
   6966125.508 5   5430313.345 5  25864011.586        3536.233
 -11830314.592 7  -9236656.087 9  21901440.708        1405.599
 -15704133.795 7 -10339619.143 8  22766578.286       -1553.140
    472773.430 7    180932.093 8  22334550.273        1796.475
 -15717765.509 7 -12260913.853 9  22171605.928        -899.421
 92 10 20 20 42 30.0030000  0  6  3 26 23 28 17 21                   0.003799250
  10129826.452 6   7744479.792 5  23891166.728        3992.965
   7072327.508 5   5513068.091 5  25884221.270        3544.016
 -11788008.046 7  -9203689.959 9  21909491.765        1414.804
 -15750457.308 7 -10375715.380 8  22757763.009       -1534.994
    526818.168 7    223044.845 8  22344834.492        1806.361
 -15744586.605 7 -12281813.410 9  22166501.780        -888.855
 92 10 20 20 43  0.0030000  0  6  3 26 23 28 17 21                   0.003806580
  10249794.539 6   7837961.264 5  23913996.613        4004.659
   7178756.288 5   5595999.547 5  25904474.297        3551.251
 -11745437.446 7  -9170518.093 9  21917592.668        1423.188
 -15796236.255 7 -10411387.263 8  22749051.729       -1516.954
    581144.104 7    265376.693 8  22355172.534        1815.586
 -15771103.753 7 -12302476.121 9  22161455.702        -879.022
 92 10 20 20 43 30.0030000  0  6  3 26 23 28 17 21                   0.003813920
  10370118.953 6   7931720.387 5  23936894.052        4016.630
   7285406.946 5   5679103.942 5  25924769.943        3558.731
 -11702608.805 7  -9137145.129 9  21925742.645        1431.955
 -15841466.172 7 -10446631.337 8  22740444.080       -1498.426
    635762.103 7    307936.130 8  22365566.132        1825.600
 -15797328.693 7 -12322911.117 9  22156465.158        -869.504
 92 10 20 20 44  0.0030000  0  6  3 26 23 28 17 21                   0.003821250
  10490791.434 6   8025750.768 5  23959856.722        4027.880
   7392267.664 5   5762371.984 5  25945104.609        3565.240
 -11659523.529 7  -9103572.208 9  21933941.448        1440.341
 -15886149.104 7 -10481449.200 8  22731941.125       -1480.605
    690674.315 7    350724.834 8  22376015.407        1835.137
 -15823282.733 7 -12343135.054 9  22151525.877        -860.739
 92 10 20 20 44 30.0030000  0  6  3 26 23 28 17 21                   0.003828570
  10611802.940 6   8120045.276 5  23982884.814        4039.267
   7499329.224 5   5845796.507 5  25965477.646        3572.137
 -11616182.977 7  -9069800.371 9  21942188.818        1448.921
 -15930298.500 7 -10515851.297 8  22723540.610       -1462.685
    745869.948 7    393734.387 8  22386518.973        1844.452
 -15848971.412 7 -12363152.194 9  22146637.441        -851.828
 92 10 20 20 45  0.0030000  0  6  3 26 23 28 17 21                   0.003835900
  10733158.747 6   8214608.106 5  24005979.176        4050.757
   7606599.382 5   5929383.595 5  25985890.586        3578.895
 -11572587.087 7  -9035829.566 9  21950484.616        1457.411
 -15973913.110 7 -10549836.686 8  22715241.396       -1445.086
    801345.000 7    436961.661 8  22397075.397        1853.864
 -15874383.519 7 -12382953.819 9  22141801.670        -842.359
 92 10 20 20 45 30.0030000  0  6  3 26 23 28 17 21                   0.003843210
  10854852.838 6   8309434.488 5  24029136.566        4062.076
   7714062.949 5   6013121.387 5  26006339.426        3585.259
 -11528740.197 7  -9001663.172 9  21958828.669        1465.764
 -16017005.349 7 -10583415.039 8  22707041.151       -1427.537
    857094.801 7    480403.009 8  22407684.893        1862.876
 -15899516.337 7 -12402537.849 9  22137018.582        -832.932
 92 10 20 20 46  0.0030000  0  6  3 26 23 28 17 21                   0.003850510
  10976878.484 6   8404519.226 5  24052356.960        4072.744
   7821707.621 5   6097000.313 5  26026823.350        3590.903
 -11484654.702 7  -8967310.852 9  21967217.800        1473.174
 -16059579.341 7 -10616589.556 8  22698939.073       -1410.865
    913105.100 7    524047.363 8  22418343.372        1871.163
 -15924363.637 7 -12421899.349 9  22132290.393        -823.554
 92 10 20 20 46 30.0030000  0  6  3 26 23 28 17 21                   0.003857820
  11099232.671 6   8499860.016 5  24075639.554        4084.217
   7929532.481 5   6181019.613 5  26047342.116        3597.605
 -11440347.040 7  -8932785.416 9  21975649.404        1480.828
 -16101635.729 7 -10649360.758 8  22690936.192       -1392.666
    969379.029 7    567897.141 8  22429051.798        1880.818
 -15948923.852 7 -12441037.169 9  22127617.008        -813.672
 92 10 20 20 47  0.0030000  0  6  3 26 23 28 17 21                   0.003865130
  11221947.337 6   8595481.682 5  24098991.875        4096.433
   8037561.210 5   6265197.727 5  26067899.415        3604.308
 -11395793.258 7  -8898068.187 9  21984128.093        1489.429
 -16143124.778 7 -10681689.855 8  22683041.158       -1373.285
   1025975.892 7    611998.558 8  22439821.974        1892.228
 -15973173.421 7 -12459932.917 9  22123002.815        -803.116
 92 10 20 20 47 30.0030000  0  5  3 23 28 17 21                      0.003872180
  11345028.515 6   8691388.931 5  24122414.210        4108.686
 -11350980.725 7  -8863149.346 9  21992655.192        1497.826
 -16184020.834 7 -10713556.888 8  22675258.954       -1353.194
   1082919.618 7    656370.261 8  22450657.814        1903.924
 -15997108.594 7 -12478583.698 9  22118448.247        -792.597
 92 10 20 20 48  0.0030000  0  5  3 23 28 17 21                      0.003879620
  11468426.019 6   8787542.664 5  24145895.658        4118.991
 -11305971.783 7  -8828077.469 9  22001219.842        1504.236
 -16224365.345 7 -10744994.169 8  22667581.619       -1334.953
   1140168.076 7    700979.403 8  22461551.910        1914.048
 -16020774.169 7 -12497024.380 9  22113945.123        -783.702
 92 10 20 20 48 30.0030000  0  5  3 23 28 17 21                      0.003887150
  11592199.811 6   8883989.624 5  24169448.083        4132.626
 -11260696.379 7  -8792797.932 9  22009835.838        1514.533
 -16264088.333 7 -10775947.136 8  22660022.183       -1312.943
   1197786.752 7    745877.038 8  22472516.430        1927.419
 -16044103.708 7 -12515203.232 9  22109505.518        -771.143
 92 10 20 20 49  0.0030000  0  5  3 23 28 17 21                      0.003894770
  11716400.674 6   8980769.329 5  24193083.128        4147.143
 -11215082.831 7  -8757254.943 9  22018516.127        1526.368
 -16303137.613 7 -10806375.125 8  22652591.306       -1290.353
   1255816.113 7    791094.699 8  22483559.126        1941.046
 -16067023.045 7 -12533062.442 9  22105143.709        -756.795
 92 10 20 20 49 30.0030000  0  6 11  3 23 28 17 21                   0.003902040
   -643762.94716   -492953.65114  26196199.289       -3357.263
  11841037.248 6   9077888.568 5  24216801.057        4161.638
 -11169122.472 7  -8721441.683 9  22027261.934        1537.539
 -16341511.670 7 -10836276.983 8  22645289.473       -1267.876
   1314243.783 7    836622.708 8  22494677.509        1954.095
 -16089509.264 7 -12550584.138 9  22100864.618        -742.251
 92 10 20 20 50  0.0030000  0  6 11  3 23 28 17 21                   0.003909630
   -744413.351 6   -571382.426 5  26177046.237       -3352.908
  11966108.545 6   9175346.560 5  24240602.330        4175.986
 -11122823.772 7  -8685364.796 9  22036072.165        1548.990
 -16379213.762 7 -10865655.226 8  22638114.879       -1245.836
   1373060.871 7    882454.164 8  22505870.491        1966.782
 -16111556.684 7 -12567763.929 9  22096668.934        -727.932
 92 10 20 20 50 30.0030000  0  6 11  3 23 28 17 21                   0.003917280
   -844940.063 6   -649714.833 5  26157916.830       -3348.860
  12091599.415 5   9273131.492 5  24264482.046        4189.895
 -11076182.654 7  -8649021.078 9  22044947.961        1560.429
 -16416262.712 7 -10894524.526 8  22631064.841       -1224.176
   1432247.263 7    928573.416 8  22517133.252        1978.978
 -16133189.688 7 -12584620.789 9  22092552.361        -714.322
 92 10 20 20 51  0.0030000  0  6 11  3 23 28 17 21                   0.003924990
   -945347.650 6   -727954.438 5  26138810.467       -3345.119
  12217500.391 5   9371235.950 5  24288439.775        4203.088
 -11029212.728 7  -8612421.171 9  22053885.973        1570.632
 -16452675.495 7 -10922898.117 8  22624135.887       -1203.465
   1491789.667 7    974970.039 8  22528463.701        1990.409
 -16154428.316 7 -12601170.363 9  22088510.740        -701.938
 92 10 20 20 51 30.0030000  0  6 11  3 23 28 17 21                   0.003932760
  -1045651.317 6   -806113.085 5  26119723.631       -3341.751
  12343790.760 6   9469643.887 5  24312472.393        4215.969
 -10981950.173 7  -8575593.225 9  22062879.886        1580.136
 -16488468.168 7 -10950788.480 8  22617324.942       -1182.739
   1551673.508 7   1021632.748 8  22539859.369        2001.764
 -16175310.251 7 -12617441.959 9  22084537.573        -690.227
 92 10 20 20 52  0.0030000  0  6 11  3 23 28 17 21                   0.003940580
  -1145861.224 6   -884198.644 5  26100653.793       -3338.796
  12470455.098 6   9568343.176 5  24336576.688        4228.135
 -10934403.288 7  -8538543.716 9  22071927.592        1589.709
 -16523647.917 7 -10978201.264 8  22610630.597       -1162.497
   1611892.526 7   1068556.632 8  22551318.468        2012.894
 -16195848.655 7 -12633445.902 9  22080629.449        -678.928
 92 10 20 20 52 30.0030000  0  6 11  3 23 28 17 21                   0.003948430
  -1245983.612 6   -962215.965 5  26081601.624       -3335.818
  12597482.149 6   9667325.111 5  24360749.221        4240.256
 -10886571.239 7  -8501272.008 9  22081030.080        1599.246
 -16558217.506 7 -11005138.593 8  22604051.999       -1141.848
   1672445.210 7   1115740.492 7  22562840.819        2024.143
 -16216043.753 7 -12649182.334 9  22076786.419        -667.281
 92 10 20 20 53  0.0030000  0  6 11  3 23 28 17 21                   0.003956330
  -1346004.908 6  -1040154.571 5  26062568.191       -3332.161
  12724879.632 5   9766595.664 5  24384992.864        4252.717
 -10838446.587 7  -8463772.297 9  22090188.040        1609.151
 -16592152.488 7 -11031581.445 8  22597594.182       -1120.278
   1733343.306 7   1163193.516 7  22574429.817        2035.918
 -16235881.173 7 -12664640.049 9  22073011.632        -655.115
 92 10 20 20 53 30.0030000  0  6 11  3 23 28 17 21                   0.003964270
  -1445921.120 6  -1118011.375 4  26043554.415       -3328.822
  12852646.307 5   9866153.945 5  24409305.550        4264.812
 -10790019.303 7  -8426036.769 9  22099403.530        1619.387
 -16625433.323 7 -11057514.526 8  22591260.876       -1098.383
   1794595.199 7   1210922.231 7  22586085.450        2047.583
 -16255357.242 7 -12679816.201 9  22069305.129        -643.194
 92 10 20 20 54  0.0030000  0  6 11  3 23 28 17 21                   0.003972240
  -1545738.673 5  -1195791.166 5  26024559.321       -3325.800
  12980770.716 5   9965990.941 5  24433687.264        4276.376
 -10741286.418 7  -8388063.101 9  22108676.663        1629.230
 -16658058.295 7 -11082936.590 8  22585052.563       -1076.857
   1856197.016 7   1258923.596 7  22597807.764        2058.982
 -16274479.918 7 -12694716.956 9  22065666.387        -631.960
 92 10 20 20 54 30.0030000  0  6 11  3 23 28 17 21                   0.003980240
  -1645476.339 5  -1273508.738 5  26005580.003       -3323.227
  13109228.820 5  10066087.977 5  24458131.314        4287.329
 -10692270.669 7  -8349869.019 9  22118004.184        1638.555
 -16690052.014 7 -11107866.750 8  22578964.459       -1056.022
   1918129.206 7   1307182.404 7  22609593.203        2070.011
 -16293289.709 8 -12709373.920 9  22062087.134        -622.025
 92 10 20 20 55  0.0030000  0  6 11  3 23 28 17 21                   0.003988260
  -1745136.728 5  -1351166.072 5  25986615.050       -3320.717
  13238012.377 5  10166438.594 5  24482637.754        4298.123
 -10642986.054 7  -8311465.435 9  22127382.503        1647.114
 -16721429.643 7 -11132316.831 8  22572993.642       -1035.800
   1980393.278 7   1355699.827 7  22621441.562        2081.089
 -16311809.709 7 -12723805.084 9  22058562.843        -612.284
 92 10 20 20 55 30.0030000  0  6 11  3 23 28 17 21                   0.003996310
  -1844717.501 5  -1428761.355 5  25967664.799       -3318.227
  13367118.300 5  10267040.423 5  24507206.172        4308.575
 -10593453.215 7  -8272868.430 9  22136808.207        1654.851
 -16752203.231 7 -11156296.250 8  22567137.326       -1015.919
   2042993.184 7   1404478.938 7  22633353.975        2092.074
 -16330026.123 8 -12737999.684 9  22055096.174        -602.205
 92 10 20 20 56  0.0040000  0  6 11  3 23 28 17 21                   0.004004400
  -1944219.555 5  -1506295.332 5  25948729.193       -3315.187
  13496548.128 5  10367894.623 5  24531837.650        4319.412
 -10543688.706 7  -8234090.903 9  22146278.291        1662.423
 -16782380.495 7 -11179810.995 8  22561394.791        -996.067
   2105927.925 7   1453518.944 7  22645330.182        2103.309
 -16347930.120 8 -12751950.852 9  22051689.092        -591.488
 92 10 20 20 56 30.0040000  0  6 11  3 23 28 17 21                   0.004012500
  -2043631.310 5  -1583758.908 5  25929811.624       -3312.211
  13626292.441 5  10468993.871 5  24556526.350        4330.048
 -10493700.928 7  -8195139.410 9  22155790.565        1669.994
 -16811968.472 7 -11202866.554 8  22555764.590        -976.303
   2169192.513 7   1502815.985 7  22657369.499        2114.226
 -16365508.461 8 -12765648.244 9  22048344.208        -580.236
 92 10 20 20 57  0.0040000  0  6 11  3 23 28 17 21                   0.004020640
  -2142955.742 5  -1661154.445 5  25910911.661       -3309.306
  13756350.785 6  10570337.855 5  24581275.638        4340.335
 -10443497.568 7  -8156019.914 9  22165344.122        1677.029
 -16840951.473 7 -11225450.706 8  22550249.047        -955.695
   2232773.952 7   1552359.926 7  22669468.703        2124.420
 -16382735.990 7 -12779072.301 9  22045065.776        -568.198
 92 10 20 20 57 30.0040000  0  6 11  3 23 28 17 21                   0.004028790
  -2242188.539 5  -1738478.573 5  25892027.908       -3306.192
  13886721.479 6  10671925.211 5  24606085.122        4350.729
 -10393075.266 7  -8116729.807 9  22174939.098        1684.600
 -16869302.002 7 -11247542.002 8  22544854.020        -934.225
   2296660.302 7   1602141.450 7  22681625.807        2134.679
 -16399600.917 7 -12792213.795 9  22041856.650        -556.379
 92 10 20 20 58  0.0040000  0  6 11  3 23 28 17 21                   0.004036960
  -2341329.013 5  -1815730.798 5  25873162.900       -3303.178
  14017399.915 5  10773752.312 5  24630952.220        4360.949
 -10342419.051 7  -8077257.442 9  22184578.706        1692.562
 -16897009.343 7 -11269132.141 8  22539581.501        -912.885
   2360856.030 7   1652164.048 7  22693841.891        2145.140
 -16416121.049 7 -12805086.601 9  22038712.747        -545.010
 92 10 20 20 58 30.0040000  0  6 11  3 23 28 17 21                   0.004045150
  -2440374.913 5  -1892909.265 5  25854315.821       -3299.864
  14148383.175 6  10875817.025 5  24655877.161        4370.970
 -10291525.273 7  -8037599.989 9  22194263.340        1700.367
 -16924072.604 7 -11290220.390 8  22534431.359        -891.286
   2425367.683 7   1702432.823 7  22706118.001        2155.566
 -16432305.623 8 -12817697.952 9  22035632.979        -534.036
 92 10 20 20 59  0.0040000  0  6 11  3 23 28 17 21                   0.004053360
  -2539326.024 5  -1970013.874 5  25835485.607       -3296.707
  14279665.725 5  10978114.889 5  24680860.154        4381.071
 -10240400.770 7  -7997762.713 9  22203991.986        1708.094
 -16950486.389 7 -11310802.550 8  22529405.036        -869.754
   2490194.379 7   1752947.099 7  22718454.402        2166.288
 -16448167.242 7 -12830057.636 9  22032614.308        -523.548
 92 10 20 20 59 30.0040000  0  6 11  3 23 28 17 21                   0.004061580
  -2638178.950 5  -2047042.016 5  25816673.965       -3293.414
  14411245.434 5  11080644.300 5  24705899.052        4390.831
 -10189038.920 7  -7957740.519 9  22213766.110        1715.999
 -16976272.756 7 -11330895.827 8  22524498.164        -849.451
   2555350.706 7   1803718.198 7  22730853.027        2177.594
 -16463725.808 8 -12842181.188 9  22029653.798        -513.673
 92 10 20 21  0  0.0040000  0  6 11  3 23 28 17 21                   0.004069840
  -2736930.677 6  -2123991.274 5  25797882.240       -3289.983
  14543119.701 5  11183403.288 5  24730994.488        4400.639
 -10137437.934 7  -7917531.959 9  22223585.463        1724.032
 -17001457.045 7 -11350519.921 9  22519705.960        -829.546
   2620848.544 7   1854755.443 7  22743316.609        2188.806
 -16478985.602 7 -12854071.922 9  22026749.770        -503.581
 92 10 20 21  0 30.0040000  0  6 11  3 23 28 17 21                   0.004078120
  -2835580.042 6  -2200860.800 5  25779110.004       -3286.614
  14675284.046 5  11286388.255 5  24756145.076        4410.124
 -10085600.907 7  -7877139.498 9  22233449.415        1731.860
 -17026046.416 7 -11369680.469 9  22515027.011        -809.686
   2686672.945 7   1906047.137 7  22755842.718        2199.451
 -16493950.067 8 -12865732.534 9  22023902.070        -493.921
 92 10 20 21  1  0.0040000  0  6 11  3 23 28 17 21                   0.004086420
  -2934128.303 6  -2277651.555 5  25760356.167       -3283.075
  14807731.727 5  11389594.032 5  24781349.496        4419.601
 -10033527.224 7  -7836562.612 9  22243358.862        1739.909
 -17050039.762 7 -11388376.586 9  22510461.371        -789.640
   2752812.450 7   1957584.373 7  22768428.956        2210.128
 -16508622.490 8 -12877165.578 9  22021110.212        -484.168
 92 10 20 21  1 30.0040000  0  6 11  3 23 28 17 21                   0.004094730
  -3032574.009 6  -2354362.381 5  25741622.693       -3279.936
  14940458.668 5  11493017.396 5  24806606.919        4428.645
  -9981214.260 7  -7795799.278 9  22253314.031        1747.413
 -17073432.015 7 -11406604.292 9  22506009.863        -769.743
   2819274.268 7   2009372.776 7  22781076.428        2220.586
 -16523010.670 8 -12888377.120 9  22018372.290        -475.003
 92 10 20 21  2  0.0040000  0  6 11  3 23 28 17 21                   0.004103060
  -3130919.550 6  -2430995.171 5  25722907.732       -3276.474
  15073456.773 5  11596652.066 5  24831914.356        4437.649
  -9928678.779 7  -7754862.569 9  22263311.031        1754.788
 -17096211.635 7 -11424354.657 9  22501675.445        -748.937
   2886045.614 7   2061402.337 7  22793783.002        2230.548
 -16537115.812 8 -12899368.126 9  22015688.107        -465.392
 92 10 20 21  2 30.0040000  0  6 11  3 23 28 17 21                   0.004111410
  -3229164.096 6  -2507549.274 5  25704212.174       -3273.185
  15206721.423 5  11700494.428 5  24857273.631        4446.419
  -9875930.554 7  -7713760.060 9  22273348.541        1761.674
 -17118361.946 7 -11441614.634 9  22497460.253        -727.845
   2953110.189 7   2113660.407 7  22806544.568        2240.313
 -16550935.898 8 -12910137.021 9  22013058.138        -455.976
 92 10 20 21  3  0.0040000  0  6 11  3 23 28 17 21                   0.004119770
  -3327306.382 6  -2584023.705 5  25685536.373       -3269.656
  15340247.806 5  11804540.727 5  24882683.595        4455.069
  -9822978.687 7  -7672498.871 9  22283425.245        1768.446
 -17139878.709 7 -11458380.928 9  22493365.388        -706.685
   3020464.175 7   2166143.987 7  22819361.836        2249.873
 -16564468.654 8 -12920681.997 9  22010483.149        -446.430
 92 10 20 21  3 30.0040000  0  6 11  3 23 28 17 21                   0.004128140
  -3425347.853 6  -2660419.552 5  25666879.003       -3266.249
  15474029.113 5  11908785.703 5  24908141.278        4463.572
  -9769831.964 7  -7631085.867 9  22293538.585        1774.632
 -17160770.412 7 -11474660.170 9  22489389.959        -685.925
   3088097.405 7   2218845.176 7  22832231.285        2259.104
 -16577720.890 8 -12931008.397 9  22007961.386        -436.855
 92 10 20 21  4  0.0040000  0  6 11  3 23 28 17 21                   0.004136520
  -3523285.371 6  -2736734.425 5  25648241.633       -3262.766
  15608062.880 5  12013227.378 5  24933647.055        4471.896
  -9716503.016 7  -7589530.857 9  22303686.689        1780.814
 -17181039.505 7 -11490454.257 9  22485532.740        -665.248
   3156004.916 7   2271760.081 7  22845153.539        2268.280
 -16590683.747 8 -12941109.315 9  22005494.494        -427.247
 92 10 20 21  4 30.0040000  0  6 11  3 23 28 17 21                   0.004144920
  -3621109.768 6  -2812961.109 5  25629626.789       -3258.885
  15742352.351 5  12117868.280 5  24959201.637        4480.451
  -9662982.047 7  -7547826.210 9  22313871.360        1787.180
 -17200684.758 7 -11505762.242 9  22481794.198        -644.568
   3224205.103 7   2324903.039 7  22858131.605        2278.365
 -16603357.073 8 -12950984.605 9  22003083.092        -417.831
 92 10 20 21  5  0.0040000  0  6 11  3 23 28 17 21                   0.004153340
  -3718813.661 5  -2889093.943 5  25611034.489       -3254.500
  15876899.207 5  12222709.762 5  24984804.637        4489.251
  -9609264.163 7  -7505968.143 9  22324093.673        1794.155
 -17219707.043 7 -11520584.790 9  22478174.103        -623.521
   3292712.318 6   2378285.260 7  22871167.709        2289.098
 -16615744.084 8 -12960636.819 9  22000725.566        -407.855
 92 10 20 21  5 30.0040000  0  6 11  3 23 28 17 21                   0.004161790
  -3816386.416 5  -2965124.556 5  25592466.621       -3250.347
  16011708.382 5  12327755.605 5  25010459.133        4497.750
  -9555338.106 7  -7463947.860 9  22334355.536        1800.746
 -17238103.025 7 -11534919.327 9  22474673.307        -602.916
   3361557.217 6   2431930.564 7  22884269.060        2300.502
 -16627829.454 8 -12970053.981 9  21998425.947        -397.783
 92 10 20 21  6  0.0040000  0  6 11  3 23 28 17 21                   0.004170250
  -3913833.749 5  -3041057.455 5  25573923.979       -3246.123
  16146768.612 5  12432997.135 5  25036159.895        4506.083
  -9501213.693 7  -7421773.009 9  22344655.118        1807.726
 -17255885.549 7 -11548775.840 9  22471289.571        -582.557
   3430739.337 6   2485838.694 7  22897434.087        2311.641
 -16639610.418 8 -12979233.936 9  21996184.109        -387.529
 92 10 20 21  6 30.0040000  0  6 11  3 23 28 17 21                   0.004178720
  -4011158.055 5  -3116894.433 5  25555405.173       -3242.067
  16282071.403 5  12538427.671 5  25061908.835        4514.000
  -9446880.475 7  -7379435.461 9  22354994.410        1814.700
 -17273058.930 7 -11562157.682 9  22468021.412        -562.267
   3500244.100 6   2539998.221 7  22910660.159        2321.982
 -16651084.834 8 -12988175.019 9  21994000.959        -377.369
 92 10 20 21  7  0.0040000  0  6 11  3 23 28 17 21                   0.004187200
  -4108360.976 5  -3192636.847 5  25536908.209       -3237.968
  16417609.478 5  12644041.457 5  25087701.935        4521.792
  -9392333.130 7  -7336931.052 9  22365374.115        1821.929
 -17289623.051 7 -11575064.794 9  22464869.464        -541.912
   3570050.873 6   2594393.066 7  22923944.133        2331.983
 -16662251.230 8 -12996876.089 9  21991876.121        -366.886
 92 10 20 21  7 30.0040000  0  6 11  3 23 28 17 21                   0.004195670
  -4205440.103 5  -3268282.817 5  25518434.445       -3233.918
  16553379.689 5  12749836.193 5  25113535.986        4529.400
  -9337570.660 7  -7294259.031 9  22375795.098        1828.790
 -17305574.098 7 -11587494.169 9  22461834.366        -521.356
   3640162.186 7   2649025.231 7  22937285.996        2341.778
 -16673104.144 8 -13005332.899 9  21989810.900        -356.750
 92 10 20 21  8  0.0040000  0  6 11  3 23 28 17 21                   0.004204150
  -4302393.702 5  -3343831.005 5  25499983.462       -3229.369
  16689377.779 5  12855808.510 5  25139415.176        4537.235
  -9282595.929 7  -7251421.583 9  22386256.887        1836.442
 -17320895.823 7 -11599433.187 9  22458918.386        -499.725
   3710548.303 6   2703871.502 7  22950679.784        2350.885
 -16683657.072 8 -13013555.931 9  21987802.930        -346.646
 92 10 20 21  8 30.0040000  0  6 11  3 23 28 17 21                   0.004212630
  -4399205.527 5  -3419268.700 5  25481560.701       -3224.609
  16825614.172 5  12961966.512 5  25165338.200        4545.127
  -9227392.794 7  -7208406.179 9  22396762.033        1843.829
 -17335553.551 7 -11610854.784 9  22456129.006        -477.365
   3781218.005 7   2758938.776 7  22964127.923        2360.565
 -16693912.788 8 -13021547.393 9  21985851.303        -337.055
 92 10 20 21  9  0.0040000  0  6 11  3 23 28 17 21                   0.004221140
  -4495867.186 5  -3494589.334 5  25463166.357       -3219.551
  16962091.353 5  13068312.035 5  25191310.078        4553.114
  -9171968.736 7  -7165218.622 9  22407308.574        1850.942
 -17349533.225 7 -11621748.028 9  22453469.166        -454.590
   3852191.951 6   2814243.116 7  22977633.944        2371.009
 -16703873.974 8 -13029309.349 9  21983955.913        -327.008
 92 10 20 21  9 30.0040000  0  6 11  3 23 28 17 21                   0.004229670
  -4592378.368 5  -3569792.752 5  25444800.343       -3214.586
  17098803.964 5  13174841.126 5  25217326.727        4560.768
  -9116337.950 7  -7121869.971 9  22417894.824        1857.612
 -17362829.695 7 -11632108.926 9  22450939.198        -431.943
   3923479.081 7   2869791.489 7  22991199.914        2381.254
 -16713535.824 8 -13036838.047 9  21982117.298        -317.306
 92 10 20 21 10  0.0040000  0  6 11  3 23 28 17 21                   0.004238200
  -4688741.025 6  -3644880.418 5  25426462.369       -3209.501
  17235744.178 5  13281547.486 5  25243383.837        4568.366
  -9060508.600 7  -7078366.612 9  22428518.531        1864.348
 -17375453.548 7 -11641945.693 9  22448537.080        -409.746
   3995072.542 6   2925578.549 7  23004823.894        2391.857
 -16722905.623 8 -13044139.171 9  21980334.102        -307.301
 92 10 20 21 10 30.0040000  0  6 11  3 23 28 17 21                   0.004246750
  -4784955.372 6  -3719852.521 5  25408153.042       -3204.609
  17372905.907 5  13388426.465 5  25269486.559        4575.619
  -9004488.650 7  -7034714.730 9  22439178.780        1870.372
 -17387427.587 7 -11651276.112 9  22446258.049        -388.624
   4066989.603 6   2981617.775 7  23018509.018        2402.588
 -16731977.648 8 -13051208.272 9  21978607.406        -297.374
 92 10 20 21 11  0.0040000  0  6 11  3 23 28 17 21                   0.004255320
  -4881014.647 6  -3794703.793 5  25389874.216       -3199.196
  17510289.977 5  13495478.757 5  25295630.018        4583.122
  -8948274.891 7  -6990911.822 9  22449875.935        1877.232
 -17398768.712 7 -11660113.370 9  22444099.653        -367.398
   4139231.240 6   3037909.933 7  23032256.282        2413.439
 -16740736.070 8 -13058033.007 9  21976940.779        -286.414
 92 10 20 21 11 30.0040000  0  6 11  3 23 28 17 21                   0.004263890
  -4976913.604 6  -3869430.144 5  25371625.070       -3193.944
  17647895.814 5  13602703.789 5  25321817.300        4590.429
  -8891855.578 7  -6946948.747 9  22460612.060        1884.080
 -17409482.728 7 -11668461.939 9  22442060.885        -346.846
   4211792.526 6   3094451.120 7  23046063.953        2423.962
 -16749173.714 8 -13064607.775 9  21975335.000        -276.147
 92 10 20 21 12  0.0040000  0  6 11  3 23 28 17 21                   0.004272470
  -5072656.035 6  -3944034.547 5  25353405.382       -3188.905
  17785713.690 5  13710094.063 5  25348043.077        4597.149
  -8835234.934 7  -6902828.784 9  22471386.213        1890.533
 -17419586.352 7 -11676334.915 9  22440138.254        -326.807
   4284657.891 6   3151229.289 7  23059930.052        2433.719
 -16757306.596 8 -13070945.093 9  21973787.484        -266.233
 92 10 20 21 12 30.0040000  0  6 11  3 23 28 17 21                   0.004281070
  -5168244.525 6  -4018519.000 5  25335215.295       -3183.738
  17923735.028 5  13817642.830 5  25374307.458        4603.904
  -8778428.618 7  -6858564.150 9  22482196.101        1896.539
 -17429083.845 7 -11683735.555 9  22438330.906        -306.365
   4357815.351 6   3208235.042 7  23073851.375        2443.288
 -16765148.803 8 -13077055.895 9  21972295.028        -256.719
 92 10 20 21 13  0.0040000  0  6 11  3 23 28 17 21                   0.004289670
  -5263681.135 6  -4092885.066 5  25317054.486       -3178.642
  18061951.959 5  13925344.058 5  25400609.637        4610.336
  -8721440.836 7  -6814158.096 9  22493040.652        1902.526
 -17437967.402 7 -11690657.809 9  22436640.626        -285.785
   4431256.689 6   3265462.027 7  23087826.828        2452.757
 -16772708.698 8 -13082946.705 9  21970856.554        -247.381
 92 10 20 21 13 30.0040000  0  6 11  3 23 28 17 21                   0.004298270
  -5358967.468 6  -4167134.047 5  25298921.983       -3173.760
  18200356.929 5  14033191.764 5  25426946.474        4616.434
  -8664291.096 7  -6769625.862 9  22503916.203        1907.320
 -17446237.806 7 -11697102.288 9  22435067.007        -265.580
   4504979.229 6   3322908.096 7  23101855.848        2461.880
 -16780004.957 8 -13088632.100 9  21969467.894        -239.137
 92 10 20 21 14  0.0040000  0  6 11  3 23 28 17 21                   0.004306880
  -5454102.209 6  -4241264.918 5  25280817.875       -3168.483
  18338945.214 5  14141182.351 5  25453318.668        4622.638
  -8607001.398 7  -6724984.566 9  22514818.235        1912.056
 -17453896.267 7 -11703069.934 9  22433609.655        -244.910
   4578971.870 6   3380564.640 7  23115935.781        2471.169
 -16787050.693 8 -13094122.267 9  21968127.161        -230.523
 92 10 20 21 14 30.0040000  0  5 11 23 28 17 21                      0.004315410
  -5549077.070 6  -4315271.214 5  25262744.500       -3163.169
  -8549566.880 7  -6680230.416 9  22525747.619        1917.000
 -17460932.813 7 -11708552.963 9  22432270.842        -224.199
   4653252.583 6   3438445.650 7  23130070.482        2480.749
 -16793836.907 8 -13099410.225 9  21966835.637        -221.811
 92 10 20 21 15  0.0040000  0  5 11 23 28 17 21                      0.004324030
  -5643889.843 6  -4389151.183 5  25244702.339       -3157.710
  -8491969.819 7  -6635349.612 9  22536707.903        1922.630
 -17467340.113 7 -11713545.677 9  22431052.354        -203.107
   4727820.588 6   3496550.536 7  23144260.400        2490.282
 -16800352.845 8 -13104487.580 9  21965595.156        -212.743
 92 10 20 21 15 30.0040000  0  5 11 23 28 17 21                      0.004332650
  -5738532.690 6  -4462898.759 5  25226692.873       -3151.969
  -8434206.794 7  -6590339.486 9  22547699.643        1928.202
 -17473108.259 7 -11718040.342 9  22429954.497        -181.595
   4802674.997 6   3554878.570 7  23158504.828        2499.819
 -16806596.517 8 -13109352.764 9  21964407.306        -203.582
 92 10 20 21 16  0.0040000  0  5 11 23 28 17 21                      0.004341280
  -5833006.546 6  -4536514.634 5  25208715.119       -3146.401
  -8376267.667 7  -6545192.145 9  22558725.220        1934.356
 -17478229.738 7 -11722031.098 9  22428979.291        -159.985
   4877813.788 6   3613428.237 7  23172803.431        2509.430
 -16812562.780 8 -13114001.799 9  21963272.274        -194.299
 92 10 20 21 16 30.0040000  0  5 11 23 28 17 21                      0.004349890
  -5927307.781 6  -4609995.993 5  25190770.042       -3140.425
  -8318135.516 7  -6499894.362 9  22569787.460        1940.908
 -17482696.214 7 -11725511.495 9  22428129.250        -137.874
   4953247.857 6   3672207.969 6  23187158.575        2519.315
 -16818244.445 8 -13118429.062 9  21962191.140        -184.647
 92 10 20 21 17  0.0040000  0  5 11 23 28 17 21                      0.004358510
  -6021431.990 6  -4683339.446 5  25172859.596       -3134.334
  -8259814.698 7  -6454449.597 9  22580885.799        1947.032
 -17486501.497 7 -11728476.643 9  22427405.231        -115.778
   5028975.711 6   3731216.643 6  23201569.506        2529.415
 -16823648.197 8 -13122639.764 9  21961162.883        -175.530
 92 10 20 21 17 30.0040000  0  5 11 23 28 17 21                      0.004367150
  -6115369.480 6  -4756537.421 5  25154983.459       -3128.060
  -8201313.396 7  -6408864.207 9  22592018.592        1953.180
 -17489644.661 7 -11730925.884 9  22426807.275         -93.712
   5105015.507 6   3790468.354 6  23216039.690        2539.985
 -16828778.552 8 -13126637.442 9  21960186.749        -166.485
 92 10 20 21 18  0.0040000  0  5 11 23 28 17 21                      0.004375820
  -6209119.142 6  -4829589.002 5  25137143.478       -3121.715
  -8142627.588 7  -6363135.018 9  22603185.840        1959.338
 -17492131.538 7 -11732863.712 9  22426334.013         -71.935
   5181368.385 6   3849964.054 6  23230569.159        2550.469
 -16833643.220 8 -13130428.090 9  21959260.880        -157.698
 92 10 20 21 18 30.0040000  0  6 11  3 23 28 17 21                   0.004384710
  -6302681.044 6  -4902494.288 5  25119339.335       -3115.619
     25722.97015     42891.06511  25692217.000        4675.116
  -8083762.958 7  -6317266.515 9  22614387.456        1964.828
 -17493972.130 7 -11734297.950 9  22425983.477         -50.813
   5258038.247 6   3909706.749 6  23245158.582        2560.707
 -16838242.795 8 -13134012.154 9  21958385.675        -149.134
 92 10 20 21 19  0.0040000  0  6 11  3 23 28 17 21                   0.004393390
  -6396053.353 6  -4975251.840 5  25101571.146       -3109.027
    166062.782 5    152245.172 1  25718922.864        4680.711
  -8024731.438 7  -6271267.951 9  22625620.985        1970.628
 -17495172.633 7 -11735233.426 9  22425755.034         -29.276
   5335015.915 6   3969689.284 6  23259807.152        2571.012
 -16842587.269 8 -13137397.456 9  21957558.739        -140.439
 92 10 20 21 19 30.0040000  0  6 11  3 23 28 17 21                   0.004402080
  -6489233.484 6  -5047859.657 5  25083838.931       -3102.601
    306560.416 5    261723.436 2  25745657.611        4685.852
  -7965527.712 7  -6225135.197 9  22636886.961        1976.470
 -17495737.078 7 -11735673.253 9  22425647.645          -8.085
   5412285.037 6   4029898.932 6  23274511.172        2580.386
 -16846672.421 8 -13140580.678 9  21956781.427        -131.628
 92 10 20 21 20  0.0040000  0  6 11  3 23 28 17 21                   0.004410770
  -6582219.889 6  -5120316.494 5  25066144.699       -3096.278
    447211.722 5    371321.486 3  25772420.557        4690.694
  -7906156.817 7  -6178872.189 9  22648184.467        1981.648
 -17495673.345 7 -11735623.607 9  22425660.280          12.491
   5489831.524 6   4090324.727 6  23289267.846        2589.513
 -16850487.098 8 -13143553.140 9  21956055.339        -122.559
 92 10 20 21 20 30.0040000  0  6 11  3 23 28 17 21                   0.004419470
  -6675009.591 6  -5192620.086 5  25048487.755       -3089.633
    588013.093 5    481036.448 3  25799212.079        4695.828
  -7846632.624 7  -6132489.735 9  22659511.409        1986.674
 -17494995.244 7 -11735095.232 9  22425788.638          32.930
   5567654.805 6   4150966.182 6  23304076.991        2598.648
 -16854025.881 8 -13146310.620 9  21955381.895        -113.362
 92 10 20 21 21  0.0040000  0  6 11  3 23 28 17 21                   0.004428180
  -6767593.091 6  -5264762.941 5  25030868.445       -3082.626
    728968.492 5    590871.407 4  25826035.798        4700.939
  -7786952.385 7  -6085985.690 9  22670868.155        1992.022
 -17493696.291 7 -11734083.062 9  22426035.327          53.682
   5645750.969 6   4211820.271 6  23318938.293        2607.788
 -16857289.705 8 -13148853.857 9  21954760.906        -104.058
 92 10 20 21 21 30.0040000  0  6 11  3 23 28 17 21                   0.004436900
  -6859967.041 6  -5336742.554 5  25013290.089       -3075.659
    870075.035 5    700824.169 4  25852890.524        4705.887
  -7727111.547 7  -6039356.486 9  22682255.612        1997.295
 -17491778.098 7 -11732588.378 9  22426400.486          74.237
   5724129.899 6   4272894.705 6  23333853.449        2617.660
 -16860264.188 8 -13151171.624 9  21954194.860         -94.249
 92 10 20 21 22  0.0040000  0  6 11  3 23 28 17 21                   0.004445630
  -6952134.190 6  -5408561.013 5  24995751.044       -3068.765
   1011323.735 5    810887.671 4  25879769.439        4710.446
  -7667124.123 7  -5992613.063 9  22693671.297        2002.010
 -17489246.393 7 -11730615.634 9  22426882.762          94.731
   5802811.651 6   4334205.111 6  23348825.777        2627.720
 -16862952.956 8 -13153266.741 9  21953683.462         -85.004
 92 10 20 21 22 30.0040000  0  6 11  3 23 28 17 21                   0.004454350
  -7044100.266 6  -5480222.815 5  24978250.249       -3062.225
   1152702.886 5    921052.843 4  25906672.772        4714.554
  -7606989.292 7  -5945754.795 9  22705114.827        2006.881
 -17486092.731 7 -11728158.249 9  22427482.928         115.659
   5881787.303 6   4395744.522 6  23363854.910        2637.197
 -16865366.600 8 -13155147.515 9  21953224.088         -75.970
 92 10 20 21 23  0.0040000  0  6 11  3 23 28 17 21                   0.004463080
  -7135858.613 6  -5551722.764 5  24960790.284       -3055.151
   1294213.138 5   1031320.144 5  25933602.941        4719.094
  -7546700.158 7  -5898776.273 9  22716587.413        2012.209
 -17482292.966 7 -11725197.394 9  22428205.876         137.420
   5961056.928 6   4457512.999 6  23378939.336        2647.280
 -16867504.271 8 -13156813.222 9  21952817.462         -66.698
 92 10 20 21 23 30.0040000  0  6 11  3 23 28 17 21                   0.004471800
  -7227404.428 6  -5623057.069 5  24943369.633       -3047.968
   1435852.919 5   1141688.393 5  25960557.018        4723.418
  -7486253.425 7  -5851674.962 9  22728090.071        2017.522
 -17477843.286 7 -11721730.136 9  22429053.030         159.284
   6040626.671 6   4519515.348 6  23394081.304        2657.339
 -16869366.273 8 -13158264.111 9  21952463.027         -57.496
 92 10 20 21 24  0.0040000  0  5 11 23 28 17 21                      0.004480300
  -7318730.086 6  -5694219.828 5  24925991.355       -3040.499
  -7425643.389 7  -5804446.388 8  22739624.027        2023.110
 -17472730.429 7 -11717746.090 9  22430026.306         181.531
   6120492.538 6   4581748.431 6  23409278.602        2666.815
 -16870952.028 8 -13159499.765 9  21952161.513         -48.339
 92 10 20 21 24 30.0040000  0  5 11 23 28 17 21                      0.004489010
  -7409828.014 6  -5765205.162 5  24908656.086       -3032.664
  -7364862.226 7  -5757084.474 8  22751190.430        2028.825
 -17466947.605 7 -11713240.016 9  22431126.805         203.861
   6200639.224 6   4644200.327 6  23424530.098        2676.440
 -16872268.996 8 -13160525.956 9  21951911.167         -39.498
 92 10 20 21 25  0.0040000  0  5 11 23 28 17 21                      0.004497740
  -7500688.307 6  -5836005.312 5  24891365.536       -3024.604
  -7303914.374 7  -5709592.673 8  22762788.210        2034.435
 -17460502.516 7 -11708217.896 9  22432352.816         225.749
   6281083.971 6   4706884.505 6  23439837.986        2686.478
 -16873323.284 8 -13161347.477 9  21951710.498         -30.695
 92 10 20 21 25 30.0040000  0  5 11 23 28 17 21                      0.004506480
  -7591311.267 6  -5906620.526 5  24874119.994       -3016.721
  -7242804.856 7  -5661974.893 8  22774416.989        2039.611
 -17453404.945 7 -11702687.315 9  22433703.628         247.492
   6361820.179 6   4769795.780 6  23455201.673        2696.030
 -16874111.034 8 -13161961.295 9  21951560.312         -21.692
 92 10 20 21 26  0.0040000  0  5 11 23 28 17 21                      0.004515240
  -7681693.242 6  -5977047.963 5  24856920.872       -3008.527
  -7181541.153 7  -5614236.974 8  22786075.448        2044.674
 -17445652.210 7 -11696646.252 9  22435179.289         269.445
   6442847.277 6   4832933.705 6  23470620.366        2705.855
 -16874628.003 8 -13162364.123 9  21951462.247         -12.855
 92 10 20 21 26 30.0040000  0  5 11 23 28 17 21                      0.004524040
  -7771821.613 6  -6047277.798 5  24839770.210       -3000.090
  -7120125.372 7  -5566380.562 8  22797762.468        2049.603
 -17437239.690 7 -11690091.043 9  22436780.349         291.302
   6524176.552 6   4896307.111 6  23486096.862        2716.166
 -16874884.702 8 -13162564.123 9  21951413.464          -4.118
 92 10 20 21 27  0.0040000  0  5 11 23 28 17 21                      0.004532870
  -7861696.503 6  -6117310.127 6  24822667.347       -2991.609
  -7058567.369 7  -5518413.315 8  22809476.358        2054.269
 -17428172.776 7 -11683025.928 9  22438505.586         313.181
   6605812.810 6   4959919.716 6  23501632.687        2726.063
 -16874872.240 8 -13162554.423 9  21951415.612           4.912
 92 10 20 21 27 30.0040000  0  5 11 23 28 17 21                      0.004541730
  -7951319.388 6  -6187146.039 6  24805612.601       -2983.302
  -6996870.000 7  -5470337.485 8  22821217.140        2058.862
 -17418447.640 7 -11675447.924 9  22440356.455         335.023
   6687742.280 6   5023760.787 6  23517223.245        2735.878
 -16874594.718 8 -13162338.155 9  21951468.644          13.388
 92 10 20 21 28  0.0040000  0  5 11 23 28 17 21                      0.004550630
  -8040688.762 6  -6256784.453 6  24788606.874       -2974.680
  -6935025.336 7  -5422146.862 8  22832985.594        2064.067
 -17408065.918 7 -11667358.273 9  22442331.838         357.027
   6769972.338 6   5087836.108 6  23532871.390        2746.007
 -16874066.334 8 -13161926.427 9  21951569.205          21.747
 92 10 20 21 28 30.0040000  0  5 11 23 28 17 21                      0.004559540
  -8129800.457 6  -6326222.064 6  24771649.396       -2965.960
  -6873022.228 7  -5373832.779 8  22844785.003        2069.597
 -17397026.926 7 -11658756.464 9  22444432.542         378.859
   6852500.451 6   5152143.690 6  23548575.973        2755.857
 -16873279.889 8 -13161313.602 9  21951718.783          31.023
 92 10 20 21 29  0.0040000  0  5 11 23 28 17 21                      0.004568440
  -8218653.284 6  -6395457.939 6  24754740.460       -2957.391
  -6810855.242 7  -5325391.015 8  22856615.054        2074.987
 -17385336.429 7 -11649647.004 9  22446657.312         400.612
   6935314.967 6   5216674.410 6  23564334.710        2765.113
 -16872207.883 8 -13160478.260 9  21951922.871          40.310
 92 10 20 21 29 30.0040000  0  5 11 23 28 17 21                      0.004577330
  -8307246.288 6  -6464491.378 6  24737881.526       -2948.622
  -6748516.537 7  -5276815.423 8  22868477.492        2080.939
 -17372992.087 7 -11640028.045 9  22449006.596         422.386
   7018413.952 6   5281426.820 6  23580148.103        2774.942
 -16870853.150 8 -13159422.616 9  21952180.770          50.012
 92 10 20 21 30  0.0040000  0  5 11 23 28 17 21                      0.004586190
  -8395577.887 6  -6533321.139 6  24721072.594       -2940.058
  -6686008.678 7  -5228108.037 8  22880372.558        2086.185
 -17359997.574 7 -11629902.466 9  22451479.074         443.831
   7101799.145 6   5346402.235 6  23596016.686        2784.015
 -16869206.920 8 -13158139.841 9  21952493.793          59.736
 92 10 20 21 30 30.0040000  0  5 11 23 28 17 21                      0.004595030
  -8483647.581 6  -6601946.798 6  24704313.576       -2931.253
  -6623348.674 7  -5179282.093 8  22892296.342        2091.006
 -17346362.359 7 -11619277.635 9  22454073.708         465.051
   7185454.706 6   5411588.323 6  23611935.527        2792.925
 -16867269.203 8 -13156629.928 9  21952862.541          69.253
 92 10 20 21 31  0.0040000  0  5 11 23 28 17 21                      0.004603850
  -8571456.263 6  -6670369.094 6  24687603.987       -2922.530
  -6560551.559 7  -5130349.300 8  22904246.310        2095.527
 -17332092.364 7 -11608158.184 9  22456789.227         486.395
   7269380.008 6   5476984.588 6  23627905.462        2802.394
 -16865067.151 8 -13154914.036 9  21953281.580          77.538
 92 10 20 21 31 30.0040000  0  5 11 23 28 17 21                      0.004612680
  -8659003.012 6  -6738587.277 6  24670944.127       -2913.625
  -6497619.588 7  -5081311.435 8  22916222.219        2100.193
 -17317184.031 7 -11596541.309 9  22459626.034         507.668
   7353589.192 6   5542602.090 6  23643930.064        2811.743
 -16862623.073 8 -13153009.553 9  21953746.658          85.634
 92 10 20 21 32  0.0040000  0  5 11 23 28 17 21                      0.004621540
  -8746280.200 6  -6806595.404 6  24654336.206       -2904.603
  -6434550.952 7  -5032167.070 8  22928223.762        2104.626
 -17301642.841 7 -11584431.306 9  22462583.518         528.566
   7438075.277 6   5608435.342 6  23660007.778        2820.787
 -16859938.848 8 -13150917.943 9  21954257.333          93.565
 92 10 20 21 32 30.0040000  0  5 11 23 28 17 21                      0.004630400
  -8833276.768 6  -6874384.829 6  24637781.321       -2894.912
  -6371334.493 7  -4982907.530 8  22940253.142        2109.929
 -17285465.696 7 -11571825.747 9  22465661.875         550.114
   7522846.827 6   5674491.037 6  23676139.717        2830.862
 -16857003.733 8 -13148630.837 9  21954815.818         102.304
 92 10 20 21 33  0.0040000  0  5 11 23 28 17 21                      0.004639280
  -8919987.822 6  -6941951.840 6  24621281.120       -2885.592
  -6307963.948 7  -4933527.935 8  22952312.016        2114.892
 -17268645.619 7 -11558719.214 9  22468862.420         571.322
   7607919.513 6   5740781.384 6  23692328.874        2840.755
 -16853800.147 8 -13146134.531 9  21955425.523         111.517
 92 10 20 21 33 30.0040000  0  5 11 23 28 17 21                      0.004648150
  -9006413.586 6  -7009296.552 6  24604835.606       -2875.944
  -6244441.095 7  -4884029.620 8  22964400.096        2119.986
 -17251185.670 7 -11545114.072 9  22472185.247         592.790
   7693284.796 6   5807299.731 6  23708572.757        2850.247
 -16850307.891 8 -13143413.285 9  21956090.019         121.270
 92 10 20 21 34  0.0040000  0  5 11 23 28 17 21                      0.004657010
  -9092543.834 6  -7076410.976 6  24588445.036       -2866.037
  -6180771.296 7  -4834416.815 8  22976516.778        2124.485
 -17233079.078 7 -11531005.058 9  22475630.874         614.303
   7778935.737 6   5874040.656 6  23724871.894        2859.832
 -16846528.370 8 -13140468.193 9  21956808.948         130.684
 92 10 20 21 34 30.0040000  0  5 11 23 28 17 21                      0.004665870
  -9178367.702 6  -7143286.645 6  24572112.082       -2855.606
  -6116961.546 7  -4784694.954 8  22988659.313        2129.155
 -17214313.796 7 -11516382.784 9  22479201.743         636.504
   7864885.675 6   5941014.577 6  23741227.711        2870.068
 -16842460.152 8 -13137298.144 9  21957583.142         140.267
 92 10 20 21 35  0.0040000  0  5 11 23 28 17 21                      0.004674760
  -9263890.464 6  -7209927.703 6  24555836.829       -2845.759
  -6053030.129 7  -4734878.305 8  23000824.860        2132.942
 -17194898.484 7 -11501253.981 9  22482896.166         657.925
   7951128.957 6   6008217.078 6  23757639.399        2879.453
 -16838127.803 8 -13133922.289 9  21958407.630         148.529
 92 10 20 21 35 30.0040000  0  5 11 23 28 17 21                      0.004683690
  -9349114.452 6  -7276335.936 6  24539619.466       -2835.709
  -5988979.141 7  -4684968.473 8  23013013.132        2137.213
 -17174837.691 7 -11485622.194 9  22486713.831         679.599
   8037649.504 6   6075635.615 6  23774102.962        2888.741
 -16833557.843 8 -13130361.257 9  21959277.310         156.141
 92 10 20 21 36  0.0040000  0  5 11 23 28 17 21                      0.004692650
  -9434035.149 6  -7342507.838 6  24523460.041       -2825.719
  -5924802.111 7  -4634960.429 8  23025226.097        2141.324
 -17154137.679 7 -11469492.350 9  22490653.024         700.414
   8124449.559 6   6143271.950 6  23790620.795        2898.049
 -16828758.913 8 -13126621.841 9  21960190.467         163.989
 92 10 20 21 36 30.0040000  0  5 11 23 28 17 21                      0.004701620
  -9518648.605 6  -7408440.310 6  24507359.150       -2815.211
  -5860486.983 7  -4584844.780 8  23037464.786        2146.329
 -17132805.073 7 -11452869.557 9  22494712.556         721.740
   8211540.844 6   6211135.245 6  23807193.585        2907.992
 -16823705.517 8 -13122684.110 9  21961151.900         172.838
 92 10 20 21 37  0.0040000  0  5 11 23 28 17 21                      0.004710600
  -9602950.162 6  -7474129.797 6  24491317.294       -2804.833
  -5796023.453 7  -4534613.471 8  23049731.684        2151.197
 -17110832.448 7 -11435748.047 9  22498893.857         743.179
   8298918.475 6   6279221.645 6  23823821.184        2917.013
 -16818390.462 8 -13118542.504 9  21962163.430         181.384
 92 10 20 21 37 30.0040000  0  5 11 23 28 17 21                      0.004719590
  -9686934.428 6  -7539572.003 6  24475335.850       -2793.967
  -5731410.015 7  -4484265.357 8  23062026.792        2156.285
 -17088214.121 7 -11418123.385 9  22503198.441         764.760
   8386571.553 6   6347522.673 6  23840500.852        2926.650
 -16812817.166 8 -13114199.666 9  21963223.997         190.213
 92 10 20 21 38  0.0040000  0  5 11 23 28 17 21                      0.004728590
  -9770586.529 6  -7604755.385 6  24459416.579       -2782.758
  -5666648.245 7  -4433801.678 8  23074350.440        2161.266
 -17064948.448 7 -11399994.321 9  22507625.884         786.411
   8474519.086 6   6416053.146 6  23857237.091        2936.535
 -16806967.797 8 -13109641.714 9  21964336.835         199.661
 92 10 20 21 38 30.0040000  0  5 11 23 28 17 21                      0.004737610
  -9853897.228 6  -7669672.751 6  24443562.574       -2771.287
  -5601731.886 7  -4383217.514 8  23086703.419        2166.476
 -17041020.356 7 -11381349.067 9  22512179.414         808.777
   8562770.419 6   6484820.363 6  23874030.833        2946.801
 -16800839.198 8 -13104866.183 9  21965503.059         208.710
 92 10 20 21 39  0.0040000  0  5 11 23 28 17 21                      0.004746670
  -9936858.895 6  -7734318.128 6  24427775.592       -2759.423
  -5536651.509 7  -4332505.562 8  23099088.354        2172.129
 -17016418.936 7 -11362179.148 9  22516860.581         831.333
   8651325.173 6   6553823.974 6  23890882.704        2957.008
 -16794445.027 8 -13099883.707 9  21966720.086         217.586
 92 10 20 21 39 30.0040000  0  5 11 23 28 17 21                      0.004755780
 -10019464.685 6  -7798686.222 6  24412056.983       -2747.541
  -5471398.886 7  -4281659.373 8  23111505.836        2178.126
 -16991143.691 7 -11342484.180 9  22521670.380         853.769
   8740200.632 6   6623077.514 6  23907795.077        2968.111
 -16787778.179 8 -13094688.762 9  21967988.899         227.030
 92 10 20 21 40  0.0040000  0  5 11 23 28 17 21                      0.004764910
 -10101718.128 6  -7862779.755 6  24396404.452       -2736.081
  -5405965.880 7  -4230672.642 8  23123957.466        2184.007
 -16965189.837 7 -11322260.412 9  22526609.663         876.626
   8829400.441 6   6692583.794 6  23924769.137        2978.268
 -16780825.201 8 -13089270.847 9  21969312.242         236.364
 92 10 20 21 40 30.0040000  0  5 11 23 28 17 21                      0.004774050
 -10183638.753 6  -7926613.929 6  24380815.302       -2725.243
  -5340369.275 7  -4179558.424 8  23136439.977        2188.989
 -16938550.847 7 -11301502.784 9  22531678.423         899.219
   8918895.086 6   6762319.803 6  23941799.903        2988.051
 -16773607.108 8 -13083646.363 9  21970686.139         244.844
 92 10 20 21 41  0.0040000  0  5 11 23 28 17 21                      0.004783200
 -10265236.984 6  -7990196.895 6  24365287.853       -2714.622
  -5274637.536 7  -4128338.911 7  23148947.848        2192.960
 -16911243.245 7 -11280224.130 9  22536874.505         921.211
   9008667.168 6   6832272.023 6  23958882.984        2996.798
 -16766135.351 8 -13077824.215 9  21972107.905         253.264
 92 10 20 21 41 30.0040000  0  5 11 23 28 17 21                      0.004792330
 -10346515.539 6  -8053530.793 6  24349821.089       -2703.867
  -5208791.791 7  -4077030.550 7  23161478.132        2196.775
 -16883277.736 7 -11258432.848 9  22542196.001         942.964
   9098703.128 6   6902429.846 6  23976016.727        3005.506
 -16758406.981 8 -13071802.098 9  21973578.680         261.943
 92 10 20 21 42  0.0040000  0  5 11 23 28 17 21                      0.004801430
 -10427470.435 6  -8116612.471 6  24334415.623       -2692.996
  -5142834.387 7  -4025635.200 7  23174029.831        2200.359
 -16854668.611 7 -11236140.054 9  22547640.833         964.152
   9188985.349 6   6972779.549 6  23993196.515        3013.336
 -16750420.655 8 -13065578.985 9  21975098.688         270.471
 92 10 20 21 42 30.0040000  0  5 11 23 28 17 21                      0.004810500
 -10508095.026 6  -8179436.763 6  24319073.705       -2681.987
  -5076770.674 7  -3974157.002 7  23186601.530        2203.839
 -16825442.668 7 -11213366.582 9  22553202.563         983.868
   9279512.661 6   7043320.232 6  24010423.359        3021.755
 -16742174.431 8 -13059153.341 9  21976667.890         279.215
 92 10 20 21 43  0.0040000  0  5 11 23 28 17 21                      0.004819540
 -10588383.241 6  -8241998.936 6  24303795.435       -2670.471
  -5010598.076 7  -3922593.958 7  23199193.911        2207.771
 -16795634.683 7 -11190139.628 9  22558874.457        1003.361
   9370287.683 6   7114053.932 6  24027696.693        3029.908
 -16733661.836 8 -13052520.162 9  21978287.950         288.361
 92 10 20 21 43 30.0040000  0  5 11 23 28 17 21                      0.004828540
 -10668329.445 6  -8304294.639 6  24288581.853       -2659.075
  -4944304.687 7  -3870936.810 7  23211808.931        2212.009
 -16765245.670 7 -11166459.900 9  22564657.323        1022.679
   9461310.738 6   7184980.919 6  24045018.146        3038.389
 -16724879.924 8 -13045677.097 9  21979958.782         297.205
 92 10 20 21 44  0.0040000  0  5 11 23 28 17 21                      0.004837520
 -10747929.966 6  -8366320.975 6  24273434.121       -2647.515
  -4877885.781 7  -3819181.853 7  23224448.100        2215.980
 -16734274.678 7 -11142326.674 9  22570550.791        1042.290
   9552592.557 6   7256109.516 6  24062388.777        3047.287
 -16715835.860 8 -13038629.769 9  21981680.070         305.742
 92 10 20 21 44 30.0040000  0  5 11 23 28 17 21                      0.004846500
 -10827176.018 6  -8428071.088 6  24258353.870       -2635.587
  -4811346.007 7  -3767332.704 7  23237110.422        2219.935
 -16702706.839 7 -11117728.385 9  22576558.353        1062.442
   9644160.691 6   7327461.232 6  24079813.472        3056.997
 -16706542.850 8 -13031388.451 9  21983448.745         313.661
 92 10 20 21 45  0.0040000  0  5 11 23 28 17 21                      0.004855530
 -10906065.426 6  -8489543.291 6  24243341.824       -2623.696
  -4744692.870 7  -3715395.216 7  23249793.903        2223.612
 -16670520.170 7 -11092647.885 9  22582683.463        1083.569
   9736006.504 6   7399029.305 6  24097291.214        3066.018
 -16697024.648 8 -13023971.659 9  21985259.932         320.904
 92 10 20 21 45 30.0040000  0  5 11 23 28 17 21                      0.004864580
 -10984595.465 6  -8550735.481 6  24228398.029       -2611.668
  -4677928.737 7  -3663371.234 7  23262498.547        2227.214
 -16637689.266 7 -11067065.393 9  22588930.840        1105.059
   9828126.456 6   7470811.016 6  24114821.124        3075.305
 -16687290.423 8 -13016386.552 9  21987112.496         328.015
 92 10 20 21 46  0.0040000  0  5 11 23 28 17 21                      0.004873690
 -11062760.973 7  -8611643.624 6  24213523.756       -2599.322
  -4611062.839 7  -3611267.988 7  23275223.027        2230.491
 -16604214.306 7 -11040981.028 9  22595300.838        1126.740
   9920523.140 6   7542808.326 6  24132403.988        3084.402
 -16677339.979 8 -13008632.942 9  21989006.116         335.284
 92 10 20 21 46 30.0040000  0  5 11 23 28 17 21                      0.004882830
 -11140553.008 6  -8672260.736 6  24198720.845       -2586.724
  -4544088.936 7  -3559080.553 7  23287967.915        2234.453
 -16570080.878 7 -11014383.592 9  22601796.304        1148.825
  10013187.883 6   7615014.538 6  24150037.476        3093.002
 -16667162.991 8 -13000702.817 9  21990942.489         343.323
 92 10 20 21 47  0.0040000  0  5 11 23 28 17 21                      0.004891960
 -11217970.203 6  -8732585.771 6  24183988.922       -2574.381
  -4477000.690 7  -3506804.022 7  23300734.517        2238.026
 -16535292.103 7 -10987275.479 9  22608416.400        1170.285
  10106098.809 6   7687412.572 6  24167717.607        3101.250
 -16656739.817 8 -12992580.860 9  21992926.104         351.651
 92 10 20 21 47 30.0040000  0  5 11 23 28 17 21                      0.004901090
 -11295017.644 6  -8792622.663 6  24169327.155       -2561.923
  -4409807.826 7  -3454445.985 7  23313520.814        2241.613
 -16499877.386 7 -10959679.626 9  22615155.963        1190.682
  10199271.059 6   7760014.237 6  24185447.781        3110.493
 -16646061.313 8 -12984259.940 9  21994957.809         360.376
 92 10 20 21 48  0.0040000  0  5 11 23 28 17 21                      0.004910230
 -11371686.750 6  -8852364.789 6  24154737.135       -2549.165
  -4342504.209 7  -3402001.638 7  23326328.210        2245.597
 -16463854.955 7 -10931610.230 9  22622010.850        1211.119
  10292724.899 6   7832835.324 6  24203231.791        3119.973
 -16635127.583 8 -12975740.134 9  21997038.306         368.769
 92 10 20 21 48 30.0040000  0  5 11 23 28 17 21                      0.004919370
 -11447974.687 7  -8911809.867 6  24140219.652       -2536.645
  -4275074.489 7  -3349459.030 7  23339159.077        2249.693
 -16427220.667 7 -10903064.043 9  22628981.811        1230.912
  10386461.799 6   7905876.966 6  24221069.544        3129.274
 -16623942.369 8 -12967024.370 9  21999166.854         376.947
 92 10 20 21 49  0.0040000  0  6 11 23 28 12 17 21                   0.004928700
 -11523884.280 7  -8970960.147 6  24125774.804       -2524.019
  -4207529.840 7  -3296826.842 7  23352012.667        2253.249
 -16389999.342 7 -10874060.441 9  22636065.070        1250.507
   6892998.86215    -80669.73411  25754363.910       -1310.778
  10480485.152 6   7979141.839 6  24238961.527        3138.982
 -16612514.051 8 -12958119.182 9  22001341.087         384.801
 92 10 20 21 49 30.0040000  0  6 11 23 28 12 17 21                   0.004937850
 -11599411.238 7  -9029812.268 6  24111403.012       -2511.237
  -4139868.476 7  -3244103.738 7  23364888.354        2257.423
 -16352182.968 7 -10844593.174 9  22643260.869        1270.522
   6853901.968 5   -111130.838 1  25746923.863       -1295.911
  10574800.111 6   8052633.926 6  24256909.493        3148.329
 -16600851.137 8 -12949031.188 9  22003560.302         392.460
 92 10 20 21 50  0.0040000  0  6 11 23 28 12 17 21                   0.004947000
 -11674553.431 7  -9088364.549 6  24097103.662       -2498.073
  -4072078.419 7  -3191280.317 7  23377787.885        2262.139
 -16313748.082 7 -10814643.931 9  22650574.464        1292.037
   6815252.090 5   -141256.910 1  25739568.688       -1280.682
  10669378.464 6   8126331.258 6  24274907.232        3156.939
 -16588959.956 8 -12939765.324 9  22005823.184         400.524
 92 10 20 21 50 30.0040000  0  6 11 23 28 12 17 21                   0.004956140
 -11749299.279 7  -9146608.016 6  24082879.960       -2484.833
  -4004149.979 7  -3138349.114 7  23390715.035        2266.479
 -16274668.823 7 -10784192.596 9  22658011.254        1313.161
   6777060.072 5   -171013.581 1  25732300.540       -1265.402
  10764210.117 6   8200225.937 6  24292953.151        3165.284
 -16576820.427 8 -12930305.945 9  22008133.214         408.941
 92 10 20 21 51  0.0040000  0  6 11 23 28 12 17 21                   0.004965300
 -11823645.477 7  -9204540.057 6  24068732.103       -2471.531
  -3936096.870 7  -3085320.718 7  23403664.740        2270.530
 -16234953.843 7 -10753245.875 9  22665568.802        1334.647
   6739329.299 5   -200421.800 1  25725120.681       -1250.047
  10859297.349 6   8274319.815 6  24311046.551        3173.910
 -16564420.511 8 -12920643.666 9  22010493.073         417.633
 92 10 20 21 51 30.0040000  0  6 11 23 28 12 17 21                   0.004974450
 -11897592.901 6  -9262161.365 6  24054659.916       -2458.285
  -3867921.577 7  -3032197.135 7  23416637.989        2274.395
 -16194597.206 7 -10721799.169 9  22673247.867        1355.652
   6702058.606 5   -229456.803 1  25718028.301       -1234.728
  10954639.310 6   8348612.170 6  24329190.192        3182.159
 -16551765.122 8 -12910782.308 9  22012901.317         426.109
 92 10 20 21 52  0.0040000  0  6 11 23 28 12 17 21                   0.004983600
 -11971142.238 7  -9319472.455 6  24040664.375       -2444.947
  -3799642.432 7  -2978992.613 7  23429630.685        2277.542
 -16153617.623 7 -10689867.053 9  22681046.168        1376.172
   6665246.820 5   -258140.602 3  25711022.801       -1219.424
  11050229.042 6   8423097.561 6  24347380.189        3190.583
 -16538854.357 8 -12900721.966 9  22015357.824         434.616
 92 10 20 21 52 30.0040000  0  6 11 23 28 12 17 21                   0.004992750
 -12044290.118 7  -9376470.747 6  24026744.993       -2431.604
  -3731275.047 7  -2925719.350 7  23442640.758        2280.225
 -16112042.329 7 -10657470.743 9  22688958.360        1395.434
   6628897.228 5   -286464.787 5  25704106.576       -1204.010
  11146073.522 6   8497781.477 6  24365618.704        3199.007
 -16525690.136 8 -12890464.119 9  22017863.148         442.947
 92 10 20 21 53  0.0050000  0  6 11 23 28 12 17 21                   0.005001900
 -12117028.877 7  -9433150.230 6  24012903.303       -2417.514
  -3662813.967 7  -2872373.073 7  23455668.100        2283.724
 -16069880.006 7 -10624617.007 9  22696981.987        1415.291
   6593018.340 5   -314422.281 5  25697278.452       -1187.882
  11242183.765 6   8572672.491 6  24383907.210        3208.015
 -16512271.310 8 -12880007.884 9  22020416.662         451.378
 92 10 20 21 53 30.0050000  0  6 11 23 28 12 17 21                   0.005011050
 -12189354.364 7  -9489507.697 6  23999140.251       -2403.955
  -3594256.717 7  -2818951.840 7  23468714.298        2286.778
 -16027141.744 7 -10591314.508 9  22705114.486        1434.022
   6557611.569 5   -342011.824 5  25690540.245       -1172.389
  11338537.258 6   8647753.022 6  24402244.068        3215.671
 -16498622.669 8 -12869372.567 9  22023013.954         458.769
 92 10 20 21 54  0.0050000  0  6 11 23 28 12 17 21                   0.005020190
 -12261270.300 6  -9545546.007 6  23985454.537       -2390.338
  -3525607.786 7  -2765459.201 7  23481777.844        2290.100
 -15983841.511 7 -10557574.088 9  22713354.174        1452.797
   6522674.082 5   -369235.721 5  25683892.136       -1156.734
  11435122.225 6   8723013.953 5  24420623.724        3223.484
 -16484749.793 8 -12858562.533 9  22025653.816         466.174
 92 10 20 21 54 30.0050000  0  6 11 23 28 12 17 21                   0.005029330
 -12332782.010 7  -9601269.379 6  23971845.956       -2376.862
  -3456856.035 7  -2711886.409 7  23494860.824        2293.499
 -15939982.708 7 -10523398.427 9  22721700.253        1471.459
   6488200.213 5   -396098.358 5  25677332.041       -1141.368
  11531933.487 6   8798451.196 5  24439045.704        3230.978
 -16470659.522 8 -12847583.090 9  22028334.744         473.423
 92 10 20 21 55  0.0050000  0  6 11 23 28 12 17 21                   0.005038450
 -12403881.798 7  -9656671.766 6  23958315.914       -2363.138
  -3387994.002 7  -2658227.723 7  23507965.534        2297.200
 -15895550.880 7 -10488776.255 9  22730155.331        1490.649
   6454197.238 5   -422594.020 5  25670861.383       -1125.675
  11628989.536 6   8874079.189 5  24457514.594        3239.324
 -16456344.927 8 -12836428.845 9  22031058.625         480.730
 92 10 20 21 55 30.0050000  0  6 11 23 28 12 17 21                   0.005047570
 -12474571.489 7  -9711754.606 6  23944864.406       -2349.406
  -3319024.454 7  -2604485.214 7  23521089.780        2300.667
 -15850539.560 7 -10453702.538 9  22738720.701        1510.210
   6420663.020 5   -448724.434 5  25664479.670       -1109.929
  11726292.404 6   8949899.515 5  24476030.756        3247.638
 -16441812.478 8 -12825104.841 9  22033823.933         488.264
 92 10 20 21 56  0.0050000  0  6 11 23 28 12 17 21                   0.005056680
 -12544843.794 7  -9766512.200 6  23931492.212       -2335.450
  -3249952.123 7  -2550662.641 7  23534233.450        2304.198
 -15804931.536 7 -10418163.851 9  22747399.813        1530.290
   6387604.433 5   -474484.238 5  25658189.755       -1094.056
  11823850.682 6   9025918.832 5  24494596.104        3256.188
 -16427047.622 8 -12813599.744 9  22036633.637         495.909
 92 10 20 21 56 30.0050000  0  6 11 23 28 12 17 21                   0.005065800
 -12614692.409 7  -9820939.659 7  23918200.294       -2321.224
  -3180770.486 7  -2496754.905 7  23547398.596        2307.498
 -15758717.307 7 -10382152.793 9  22756194.175        1550.527
   6355027.478 5   -499868.702 5  25651990.464       -1077.896
  11921669.814 6   9102141.435 5  24513211.077        3264.960
 -16412058.504 8 -12801919.904 9  22039486.191         503.126
 92 10 20 21 57  0.0050000  0  6 11 23 28 12 17 21                   0.005074940
 -12684114.600 7  -9875034.821 7  23904989.519       -2306.858
  -3111498.303 7  -2442776.589 7  23560580.530        2310.769
 -15711900.411 7 -10345672.129 9  22765103.197        1570.670
   6322934.287 5   -524876.191 5  25645883.237       -1061.570
  12019740.213 6   9178559.841 5  24531872.936        3273.065
 -16396864.412 8 -12790080.331 9  22042377.541         509.903
 92 10 20 21 57 30.0050000  0  6 11 23 28 12 17 21                   0.005084090
 -12753109.329 7  -9928796.909 7  23891860.598       -2292.668
  -3042133.680 7  -2388726.240 7  23573780.222        2313.536
 -15664481.133 7 -10308722.066 9  22774126.002        1590.664
   6291325.641 5   -549506.160 5  25639868.180       -1045.639
  12118039.255 6   9255156.391 5  24550578.809        3280.152
 -16381469.221 8 -12778084.067 9  22045307.541         516.537
 92 10 20 21 58  0.0050000  0  6 11 23 28 12 17 21                   0.005093270
 -12821675.930 7  -9982225.411 7  23878812.363       -2278.305
  -2972686.045 7  -2334611.228 7  23586995.724        2316.483
 -15616467.437 7 -10271308.834 9  22783262.994        1610.281
   6260201.683 5   -573758.449 5  25633945.508       -1029.336
  12216553.947 6   9331920.980 5  24569326.210        3287.514
 -16365873.851 8 -12765931.822 9  22048275.196         523.234
 92 10 20 21 58 30.0050000  0  6 11 23 28 12 17 21                   0.005102450
 -12889805.294 7 -10035313.177 7  23865847.597       -2263.722
  -2903137.771 7  -2280417.801 7  23600230.370        2319.812
 -15567860.218 7 -10233433.124 9  22792513.051        1630.124
   6229571.247 5   -597626.154 5  25628116.332       -1012.886
  12315290.149 6   9408858.189 5  24588114.931        3294.757
 -16350064.379 8 -12753612.751 9  22051283.604         530.760
 92 10 20 21 59  0.0050000  0  6 11 23 28 12 17 21                   0.005111630
 -12957498.091 7 -10088060.773 7  23852966.386       -2249.139
  -2833493.127 7  -2226149.252 7  23613483.444        2323.192
 -15518661.202 7 -10195096.266 9  22801875.371        1649.855
   6199432.859 5   -621110.492 5  25622380.939        -996.512
  12414239.807 6   9485961.721 5  24606943.719        3301.897
 -16334018.117 8 -12741109.156 9  22054337.050         539.085
 92 10 20 21 59 30.0050000  0  6 11 23 28 12 17 21                   0.005120780
 -13024751.704 7 -10140466.149 7  23840168.036       -2234.485
  -2763745.630 7  -2171800.593 7  23626756.267        2326.528
 -15468867.454 7 -10156295.987 9  22811351.100        1669.647
   6169788.758 5   -644209.631 5  25616739.103        -979.975
  12513410.490 6   9563237.475 5  24625815.551        3309.498
 -16317709.416 8 -12728401.073 9  22057440.082         547.959
 92 10 20 22  0  0.0050000  0  6 11 23 28 12 17 21                   0.005129900
 -13091558.943 7 -10192523.705 7  23827455.005       -2219.288
  -2693895.629 7  -2117372.019 7  23640047.776        2330.171
 -15418481.798 7 -10117034.462 9  22820939.174        1689.500
   6140645.849 5   -666918.269 5  25611193.931        -962.969
  12612822.040 6   9640700.912 5  24644732.486        3318.019
 -16301131.659 8 -12715483.331 9  22060594.617         557.286
 92 10 20 22  0 30.0050000  0  6 11 23 28 12 17 21                   0.005139000
 -13157913.247 7 -10244228.310 7  23814828.758       -2204.313
  -2623944.906 7  -2062865.006 7  23653359.379        2333.073
 -15367502.106 7 -10077310.060 9  22830639.808        1708.964
   6112010.154 5   -689231.672 5  25605745.297        -946.180
  12712488.239 6   9718362.807 5  24663698.067        3326.284
 -16284279.677 8 -12702351.910 9  22063801.548         566.040
 92 10 20 22  1  0.0050000  0  6 11 23 28 12 17 21                   0.005148090
 -13223814.646 7 -10295580.018 7  23802288.319       -2189.014
  -2553909.393 7  -2008291.901 7  23666686.215        2336.020
 -15315948.007 7 -10037138.063 8  22840450.105        1728.017
   6083880.953 5   -711150.449 5  25600391.838        -929.232
  12812415.391 6   9796228.010 5  24682713.990        3335.537
 -16267175.252 8 -12689023.764 9  22067056.734         574.177
 92 10 20 22  1 30.0050000  0  6 11 23 28 12 17 21                   0.005157180
 -13289259.418 7 -10346575.899 7  23789834.350       -2173.915
  -2483791.189 7  -1953654.361 7  23680029.296        2338.585
 -15263829.155 7  -9996526.004 8  22850368.400        1746.524
   6056261.618 5   -732671.874 5  25595136.366        -912.220
  12912613.484 6   9874304.355 5  24701781.452        3344.369
 -16249841.891 8 -12675517.250 9  22070355.000         581.239
 92 10 20 22  2  0.0050000  0  6 11 23 28 12 17 21                   0.005166280
 -13354247.754 7 -10397216.124 7  23777467.364       -2158.575
  -2413596.922 7  -1898957.580 7  23693386.910        2341.147
 -15211158.614 7  -9955484.070 8  22860391.182        1764.930
   6029151.273 5   -753796.718 5  25589977.777        -895.149
  13013073.673 5   9952584.907 5  24720898.417        3352.914
 -16232306.386 8 -12661853.213 9  22073691.952         587.912
 92 10 20 22  2 30.0050000  0  6 11 23 28 12 17 21                   0.005175390
 -13418773.188 7 -10447495.640 7  23765188.612       -2143.036
  -2343316.133 7  -1844193.342 7  23706761.003        2344.308
 -15157935.476 7  -9914011.527 8  22870519.230        1783.353
   6002556.028 5   -774520.177 5  25584916.628        -877.784
  13113783.424 5  10031059.951 5  24740062.563        3361.230
 -16214567.602 8 -12648030.768 9  22077067.564         594.654
 92 10 20 22  3  0.0050000  0  6 11 23 28 12 17 21                   0.005184520
 -13482831.444 7 -10497411.124 7  23752998.272       -2127.504
  -2272943.970 7  -1789357.905 7  23720152.018        2347.197
 -15104156.478 7  -9872105.848 8  22880752.906        1802.070
   5976479.436 5   -794839.482 5  25579953.517        -860.671
  13214741.230 6  10109728.258 5  24759274.349        3369.126
 -16196627.566 8 -12634051.505 9  22080481.282         601.477
 92 10 20 22  3 30.0050000  0  6 11 23 28 12 17 21                   0.005193660
 -13546422.913 7 -10546962.865 7  23740896.970       -2111.827
  -2202480.902 7  -1734451.652 7  23733560.978        2350.518
 -15049811.207 7  -9829758.907 8  22891094.423        1821.018
   5950920.623 5   -814755.339 5  25575089.937        -843.259
  13315920.815 6  10188569.401 5  24778528.783        3376.325
 -16178477.305 8 -12619908.442 9  22083935.190         608.594
 92 10 20 22  4  0.0050000  0  6 11 23 28 12 17 21                   0.005202810
 -13609542.835 7 -10596147.189 7  23728886.085       -2096.154
  -2131916.900 7  -1679466.741 7  23746988.602        2353.724
 -14994902.584 7  -9786973.027 8  22901543.162        1839.621
   5925883.696 5   -834264.520 5  25570325.787        -826.050
  13417317.469 5  10267579.693 5  24797823.405        3383.465
 -16160111.242 8 -12605597.215 9  22087430.030         615.940
 92 10 20 22  4 30.0050000  0  6 11 23 28 12 17 21                   0.005211940
 -13672190.375 7 -10644963.408 7  23716964.889       -2080.353
  -2061249.002 6  -1624400.858 7  23760436.246        2357.321
 -14939437.702 7  -9743753.674 8  22912097.915        1857.962
   5901368.949 5   -853366.816 5  25565660.353        -808.536
  13518933.210 5  10346760.669 5  24817160.169        3390.931
 -16141518.165 8 -12591109.099 9  22090968.040         623.428
 92 10 20 22  5  0.0050000  0  6 11 23 28 12 17 21                   0.005221070
 -13734360.950 7 -10693407.963 7  23705133.939       -2064.477
  -1990479.217 6  -1569255.600 7  23773902.570        2360.636
 -14883428.105 7  -9700109.849 8  22922756.236        1875.838
   5877380.266 5   -872059.215 5  25561095.463        -791.048
  13620768.761 5  10426112.923 5  24836538.805        3397.922
 -16122702.313 8 -12576447.377 9  22094548.833         630.836
 92 10 20 22  5 30.0050000  0  6 11 23 28 12 17 21                   0.005230180
 -13796053.809 7 -10741480.294 7  23693394.015       -2048.285
  -1919600.791 7  -1514025.685 6  23787390.553        2364.568
 -14826890.115 7  -9656054.312 8  22933515.398        1893.397
   5853917.702 5   -890341.610 5  25556630.881        -773.216
  13722819.603 5  10505632.962 5  24855957.339        3405.581
 -16103662.871 8 -12561611.442 9  22098171.804         638.465
 92 10 20 22  6  0.0050000  0  6 11 23 28 12 17 21                   0.005239270
 -13857266.733 7 -10789178.624 7  23681745.010       -2032.507
  -1848621.502 6  -1458717.154 6  23800897.312        2367.271
 -14769833.171 7  -9611594.398 8  22944372.722        1910.449
   5830983.134 5   -908212.615 5  25552266.086        -755.779
  13825098.049 5  10585330.365 5  24875421.205        3412.952
 -16084398.936 8 -12546600.562 9  22101837.386         645.866
 92 10 20 22  6 30.0050000  0  6 11 23 28 12 17 21                   0.005248340
 -13917998.825 7 -10836502.287 7  23670187.669       -2016.175
  -1777562.319 6  -1403346.391 6  23814419.890        2370.041
 -14712254.739 7  -9566728.139 8  22955329.059        1928.257
   5808576.412 5   -925672.405 5  25548001.987        -737.947
  13927607.525 5  10665207.739 5  24894929.152        3420.918
 -16064906.494 8 -12531411.640 9  22105546.549         653.644
 92 10 20 22  7  0.0050000  0  6 11 23 28 12 17 21                   0.005257420
 -13978236.681 7 -10883440.827 7  23658725.015       -1999.792
  -1706420.141 6  -1347910.950 6  23827957.908        2372.590
 -14654125.770 7  -9521432.881 8  22966390.808        1947.002
   5786710.529 5   -942710.713 5  25543841.530        -720.107
  14030353.931 5  10745269.770 5  24914480.225        3428.768
 -16045175.505 8 -12516036.840 9  22109301.330         661.667
 92 10 20 22  7 30.0050000  0  6 11 23 28 12 17 21                   0.005266480
 -14037985.555 7 -10929998.346 7  23647355.725       -1983.494
  -1635207.424 6  -1292420.544 6  23841509.078        2374.826
 -14595431.883 7  -9475697.418 8  22977559.896        1965.968
   5765379.605 5   -959332.122 5  25539782.067        -702.140
  14133336.497 5  10825515.847 5  24934077.498        3436.592
 -16025203.073 8 -12500473.885 9  22113101.798         669.674
 92 10 20 22  8  0.0050000  0  6 11 23 28 12 17 21                   0.005275540
 -14097243.255 7 -10976173.133 7  23636079.514       -1967.025
  -1563928.533 7  -1236878.556 6  23855073.206        2377.107
 -14536160.839 7  -9429512.228 8  22988839.006        1985.294
   5744585.163 5   -975535.563 5  25535824.728        -684.242
  14236545.024 6  10905937.930 5  24953718.600        3443.901
 -16004996.239 8 -12484728.294 9  22116947.045         677.409
 92 10 20 22  8 30.0050000  0  6 11 23 28 12 17 21                   0.005284590
 -14156008.716 7 -11021964.349 7  23624896.855       -1950.580
  -1492573.404 7  -1181277.198 6  23868651.555        2380.100
 -14476308.081 7  -9382873.757 8  23000228.494        2004.772
   5724327.446 5   -991320.746 5  25531969.707        -666.369
  14339963.936 5  10986524.010 5  24973397.555        3450.664
 -15984558.942 8 -12468803.119 9  22120836.313         685.100
 92 10 20 22  9  0.0050000  0  6 11 23 28 12 17 21                   0.005293640
 -14214273.321 7 -11067365.302 7  23613809.071       -1933.772
  -1421120.704 7  -1125599.778 6  23882248.812        2383.329
 -14415874.864 7  -9335782.976 8  23011728.324        2023.878
   5704614.373 5  -1006681.544 5  25528218.282        -648.139
  14443581.376 5  11067264.718 5  24993116.436        3457.127
 -15963891.818 8 -12452698.871 9  22124769.201         692.554
 92 10 20 22  9 30.0050000  0  6 11 23 28 12 17 21                   0.005302680
 -14272033.147 7 -11112372.909 7  23602817.660       -1916.904
  -1349571.107 6  -1069846.863 6  23895864.287        2386.613
 -14354882.354 7  -9288256.386 8  23023334.975        2042.046
   5685449.283 5  -1021615.274 5  25524571.192        -629.808
  14547393.436 5  11148157.111 5  25012871.869        3463.610
 -15943006.937 8 -12436424.910 9  22128743.460         699.565
 92 10 20 22 10  0.0050000  0  6 11 23 28 12 17 21                   0.005311740
 -14329285.318 7 -11156984.967 7  23591922.852       -1899.875
  -1277921.035 6  -1014015.644 6  23909499.068        2389.994
 -14293357.091 7  -9240314.678 8  23035043.173        2059.464
   5666834.265 5  -1036120.487 5  25521028.357        -611.345
  14651397.854 5  11229199.397 5  25032662.200        3470.184
 -15921917.287 8 -12419991.422 9  22132756.352         706.496
 92 10 20 22 10 30.0050000  0  6 11 23 28 12 17 21                   0.005320800
 -14386023.303 7 -11201196.334 7  23581125.787       -1882.639
  -1206173.897 6   -958108.803 6  23923151.917        2393.062
 -14231313.771 7  -9191969.274 8  23046849.748        2076.645
   5648774.996 5  -1050192.565 5  25517591.706        -592.763
  14755611.193 6  11310404.510 5  25052493.249        3477.446
 -15900614.606 8 -12403391.906 9  22136809.825         713.540
 92 10 20 22 11  0.0050000  0  6 11 23 28 12 17 21                   0.005329870
 -14442247.155 7 -11245007.107 7  23570426.563       -1865.425
  -1134348.463 6   -902140.975 6  23936819.474        2395.379
 -14168764.783 7  -9143229.845 8  23058752.408        2093.463
   5631270.841 5  -1063832.026 5  25514260.896        -574.231
  14860048.375 5  11391784.012 5  25072367.274        3485.183
 -15879111.455 8 -12386636.212 9  22140901.874         720.189
 92 10 20 22 11 30.0050000  0  6 11 23 28 12 17 21                   0.005338950
 -14497955.394 7 -11288416.072 7  23559825.503       -1848.343
  -1062457.221 6   -846121.843 6  23950500.344        2397.583
 -14105714.828 7  -9094100.061 8  23070750.683        2109.964
   5614322.561 5  -1077038.412 5  25511036.426        -555.755
  14964718.119 6  11473344.717 5  25092285.677        3492.895
 -15857398.322 8 -12369716.882 9  22145034.042         727.502
 92 10 20 22 12  0.0050000  0  6 11 23 28 12 17 21                   0.005348020
 -14553144.954 7 -11331420.883 7  23549323.294       -1830.861
   -990488.978 6   -790042.715 6  23964195.242        2400.325
 -14042159.890 7  -9044576.758 8  23082844.599        2127.087
   5597932.286 5  -1089809.936 5  25507918.046        -536.977
  15069622.742 6  11555088.495 5  25112248.891        3500.675
 -15835462.661 8 -12352624.149 9  22149208.263         735.073
 92 10 20 22 12 30.0050000  0  6 11 23 28 12 17 21                   0.005357080
 -14607806.297 7 -11374014.114 7  23538921.763       -1813.327
   -918438.957 6   -733899.875 6  23977906.010        2402.921
 -13978083.130 7  -8994646.869 8  23095037.977        2144.623
   5582108.492 5  -1102140.072 5  25504906.559        -518.148
  15174756.061 6  11637010.450 5  25132255.294        3507.951
 -15813293.270 8 -12335349.274 9  22153427.241         742.714
 92 10 20 22 13  0.0050000  0  6 11 23 28 12 17 21                   0.005366150
 -14661937.454 7 -11416194.184 7  23528621.164       -1795.426
   -846299.725 6   -677687.507 6  23991633.368        2406.397
 -13913474.809 7  -8944302.755 8  23107332.318        2162.513
   5566852.876 5  -1114027.435 5  25502003.273        -499.007
  15280102.559 6  11719098.485 5  25152302.171        3514.969
 -15790893.973 8 -12317895.279 9  22157689.952         750.659
 92 10 20 22 13 30.0050000  0  6 11 23 28 12 17 21                   0.005375200
 -14715536.991 7 -11457960.019 7  23518421.903       -1777.785
   -774056.349 6   -621394.008 6  24005380.781        2409.975
 -13848338.742 7  -8893547.413 8  23119727.345        2180.061
   5552165.811 5  -1125471.820 5  25499206.729        -480.186
  15385649.316 6  11801342.612 5  25172387.037        3521.656
 -15768263.461 8 -12300261.099 9  22161996.250         757.967
 92 10 20 22 14  0.0050000  0  6 11 23 28 12 17 21                   0.005384260
 -14768603.602 7 -11499310.607 7  23508323.406       -1760.031
   -701704.899 7   -565016.275 6  24019148.919        2413.188
 -13782668.491 7  -8842375.840 7  23132223.846        2197.800
   5538047.638 5  -1136472.846 5  25496519.794        -461.319
  15491397.972 5  11883744.036 5  25192510.816        3528.234
 -15745421.902 8 -12282462.478 9  22166342.512         764.714
 92 10 20 22 14 30.0050000  0  6 11 23 28 12 17 21                   0.005393340
 -14821139.029 7 -11540247.253 7  23498325.937       -1742.221
   -629270.928 6   -508574.260 6  24032932.858        2415.758
 -13716469.685 7  -8790792.395 7  23144820.715        2215.564
   5524496.071 5  -1147032.409 5  25493941.082        -442.240
  15597356.309 6  11966308.851 5  25212674.160        3535.830
 -15722381.077 8 -12264508.553 9  22170726.876         771.355
 92 10 20 22 15  0.0050000  0  6 11 23 28 12 17 21                   0.005402430
 -14873139.838 7 -11580767.326 7  23488430.559       -1724.405
   -556763.037 6   -452074.617 6  24046730.264        2418.110
 -13649742.693 7  -8738797.381 7  23157518.653        2232.889
   5511513.371 5  -1157148.694 5  25491470.272        -423.330
  15703544.719 5  12049052.964 5  25232880.933        3543.412
 -15699143.924 8 -12246401.680 9  22175148.853         777.893
 92 10 20 22 15 30.0050000  0  6 11 23 28 12 17 21                   0.005411550
 -14924603.739 7 -11620869.041 7  23478637.158       -1706.538
   -484186.220 6   -395521.271 6  24060541.554        2420.147
 -13582495.356 7  -8686396.898 7  23170315.996        2250.189
   5499101.263 5  -1166820.380 5  25489108.410        -404.346
  15809967.660 5  12131979.825 5  25253132.059        3551.251
 -15675706.197 8 -12228138.478 9  22179608.915         784.613
 92 10 20 22 16  0.0050000  0  6 11 23 28 12 17 21                   0.005420670
 -14975525.120 7 -11660548.007 7  23468946.897       -1688.412
   -411551.486 6   -338922.810 6  24074363.056        2421.911
 -13514731.618 7  -8633594.034 7  23183210.376        2267.151
   5487264.377 5  -1176043.817 5  25486855.500        -385.135
  15916620.399 5  12215085.688 5  25273427.929        3558.549
 -15652050.934 8 -12209705.801 9  22184110.331         792.259
 92 10 20 22 16 30.0050000  0  6 11 23 28 12 17 21                   0.005429790
 -15025901.559 7 -11699802.318 7  23459360.993       -1669.959
   -338857.885 6   -282278.485 6  24088196.360        2424.464
 -13446456.659 7  -8580392.812 7  23196203.492        2284.427
   5476004.418 5  -1184817.686 5  25484714.100        -365.632
  16023487.317 5  12298358.508 5  25293763.372        3565.638
 -15628164.834 8 -12191093.228 9  22188655.962         800.198
 92 10 20 22 17  0.0050000  0  6 11 23 28 12 17 21                   0.005438890
 -15075725.610 7 -11738626.225 7  23449879.788       -1651.411
   -266076.295 6   -225565.562 6  24102046.517        2427.879
 -13377675.809 7  -8526797.387 7  23209292.302        2301.097
   5465327.599 5  -1193137.223 5  25482682.140        -346.099
  16130548.625 5  12381782.768 5  25314137.096        3571.928
 -15604036.543 8 -12172291.958 9  22193247.434         808.525
 92 10 20 22 17 30.0050000  0  6 11 23 28 12 17 21                   0.005447970
 -15124987.834 7 -11777012.355 7  23440505.527       -1632.695
   -193188.234 6   -168769.695 6  24115916.947        2431.251
 -13308392.404 6  -8472810.362 7  23222476.463        2317.827
   5455242.709 5  -1200995.448 5  25480763.319        -326.406
  16237806.216 5  12465359.974 5  25334548.816        3578.541
 -15579654.359 8 -12153292.825 9  22197886.775         816.883
 92 10 20 22 18  0.0050000  0  6 11 23 28 12 17 21                   0.005457040
 -15173687.183 7 -11814959.860 7  23431238.470       -1613.860
   -120197.103 6   -111893.510 6  24129806.282        2434.891
 -13238613.314 7  -8418437.088 7  23235754.963        2334.180
   5445749.781 5  -1208392.473 5  25478956.935        -306.534
  16345265.188 5  12549094.111 5  25354996.481        3585.457
 -15555031.228 8 -12134105.948 9  22202572.469         824.556
 92 10 20 22 18 30.0050000  0  6 11 23 28 12 17 21                   0.005466100
 -15221825.944 7 -11852470.538 7  23422078.282       -1595.282
    -47092.533 6    -54928.926 6  24143717.634        2438.794
 -13168351.445 7  -8363687.638 7  23249125.254        2349.984
   5436845.786 5  -1215330.589 5  25477262.343        -287.020
  16452929.818 5  12632988.507 5  25375483.757        3592.234
 -15530196.001 8 -12114753.803 9  22207298.437         831.258
 92 10 20 22 19  0.0050000  0  6 11 23 28 12 17 21                   0.005475170
 -15269400.748 7 -11889541.786 7  23413024.822       -1576.373
     26126.430 6      2124.793 6  24157650.594        2442.385
 -13097608.716 7  -8308563.467 7  23262586.868        2366.272
   5428533.026 5  -1221807.991 5  25475680.074        -267.245
  16560807.942 5  12717049.216 5  25396012.588        3599.587
 -15505148.242 8 -12095236.057 9  22212065.086         838.507
 92 10 20 22 19 30.0050000  0  6 11 23 28 12 17 21                   0.005484250
 -15316403.962 7 -11926167.632 7  23404080.282       -1557.125
     99445.257 6     59256.340 6  24171602.322        2445.543
 -13026370.023 7  -8253052.835 7  23276143.112        2383.055
   5420818.106 5  -1227819.561 5  25474211.341        -247.145
  16668908.402 5  12801283.211 5  25416583.107        3607.043
 -15479883.045 8 -12075548.875 9  22216872.999         845.815
 92 10 20 22 20  0.0050000  0  6 11 23 28 12 17 21                   0.005493350
 -15362830.941 7 -11962344.476 8  23395245.819       -1537.782
    172860.467 6    116462.957 6  24185573.165        2448.938
 -12954630.542 7  -8197152.006 7  23289795.410        2399.807
   5413704.774 5  -1233362.365 5  25472858.026        -226.971
  16777219.135 5  12885681.038 5  25437194.633        3613.842
 -15454402.470 8 -12055693.866 9  22221721.773         853.208
 92 10 20 22 20 30.0050000  0  6 11 23 28 12 17 21                   0.005502460
 -15408681.803 7 -11998072.393 8  23386520.748       -1518.867
    246367.026 6    173740.791 6  24199561.492        2451.410
 -12882383.909 7  -8140855.988 7  23303543.465        2416.851
   5407192.088 5  -1238437.167 5  25471618.953        -207.267
  16885729.181 5  12970234.183 5  25457844.075        3620.207
 -15428691.013 8 -12035658.950 9  22226614.423         861.033
 92 10 20 22 21  0.0050000  0  6 11 23 28 12 17 21                   0.005511550
 -15453960.140 7 -12033354.173 8  23377904.344       -1499.636
    319937.070 6    231068.077 6  24213561.877        2453.444
 -12809617.896 6  -8084155.224 7  23317390.537        2434.063
   5401275.526 5  -1243047.414 5  25470493.354        -187.226
  16994431.198 5  13054936.923 5  25478528.423        3626.568
 -15402734.227 8 -12015432.869 9  22231553.896         869.303
 92 10 20 22 21 30.0050000  0  6 11 23 28 12 17 21                   0.005520630
 -15498662.541 7 -12068187.183 8  23369397.365       -1480.616
    393572.818 6    288446.531 6  24227574.228        2455.516
 -12736350.702 6  -8027063.973 7  23331332.864        2450.230
   5395957.353 5  -1247191.369 5  25469481.853        -167.514
  17103318.464 5  13139783.980 5  25499249.103        3632.470
 -15376541.755 8 -11995023.152 9  22236538.276         876.672
 92 10 20 22 22  0.0050000  0  6 11 23 28 12 17 21                   0.005529710
 -15542790.159 7 -12102572.308 8  23360999.847       -1461.148
    467281.764 6    345882.069 6  24241600.919        2458.385
 -12662601.498 7  -7969597.104 7  23345366.828        2466.312
   5391235.618 5  -1250870.573 5  25468584.276        -147.388
  17212386.487 5  13224771.864 5  25520004.093        3638.804
 -15350123.667 8 -11974437.628 9  22241565.545         884.553
 92 10 20 22 22 30.0050000  0  7 11 25 23 28 12 17 21                0.005538730
 -15586335.029 7 -12136503.341 8  23352714.013       -1441.749
  -1757885.95715  -1875867.16415  26586033.010       -2794.239
    541074.696 6    403383.008 6  24255643.337        2461.201
 -12588378.788 6  -7911761.283 7  23359490.754        2481.733
   5387117.156 5  -1254079.677 5  25467799.996        -127.290
  17321650.193 5  13309912.313 5  25540795.740        3645.424
 -15323468.628 8 -11953667.454 9  22246637.504         892.282
 92 10 20 22 23  0.0050000  0  7 11 25 23 28 12 17 21                0.005547800
 -15629293.019 7 -12169977.071 8  23344539.642       -1421.996
  -1841782.832 5  -1941240.819 5  26570066.933       -2798.825
    614962.608 6    460957.987 6  24269703.602        2464.794
 -12513704.569 6  -7853573.643 7  23373700.584        2496.347
   5383605.045 5  -1256816.262 5  25467131.383        -106.965
  17431111.021 5  13395206.287 5  25561626.596        3651.999
 -15296589.521 8 -11932722.706 9  22251752.492         899.706
 92 10 20 22 23 30.0050000  0  7 11 25 23 28 12 17 21                0.005556880
 -15671661.474 7 -12202991.422 8  23336477.024       -1402.320
  -1925813.350 5  -2006718.644 5  26554076.015       -2803.075
    688954.105 6    518613.661 6  24283783.574        2468.024
 -12438599.432 6  -7795050.224 7  23387992.731        2511.054
   5380701.078 5  -1259079.021 5  25466579.446         -86.547
  17540768.946 5  13480653.875 5  25582493.531        3658.730
 -15269493.581 8 -11911608.975 9  22256908.822         906.987
 92 10 20 22 24  0.0050000  0  7 11 25 23 28 12 17 21                0.005565940
 -15713437.763 7 -12235544.358 8  23328527.277       -1382.642
  -2009967.890 5  -2072293.119 5  26538061.473       -2807.281
    763041.427 6    576344.034 6  24297881.510        2471.191
 -12363050.511 6  -7736180.979 7  23402369.867        2525.744
   5378406.799 5  -1260866.680 5  25466142.003         -66.440
  17650636.521 5  13566264.809 5  25603400.690        3665.788
 -15242173.094 8 -11890320.293 9  22262107.833         914.368
 92 10 20 22 24 30.0050000  0  7 11 25 23 28 12 17 21                0.005574990
 -15754617.483 7 -12267632.432 8  23320690.972       -1362.682
  -2094238.930 5  -2137958.369 5  26522023.823       -2810.894
    837223.517 6    634148.223 6  24311998.152        2474.160
 -12287040.781 6  -7676952.682 7  23416834.451        2541.555
   5376725.504 5  -1262176.705 5  25465822.384         -45.871
  17760721.134 5  13652044.855 5  25624348.462        3672.958
 -15214628.829 8 -11868857.220 9  22267349.255         921.720
 92 10 20 22 25  0.0050000  0  7 11 25 23 28 12 17 21                0.005584050
 -15795199.059 7 -12299254.413 8  23312968.728       -1342.716
  -2178622.125 5  -2203710.990 5  26505966.659       -2814.539
    911487.794 6    692016.422 6  24326130.442        2476.739
 -12210550.566 6  -7617349.980 7  23431389.567        2557.804
   5375657.939 5  -1263008.492 5  25465619.130         -25.403
  17871011.595 5  13737985.330 5  25645335.981        3679.686
 -15186869.990 8 -11847226.959 9  22272631.727         928.910
 92 10 20 22 25 30.0050000  0  7 11 25 23 28 12 17 21                0.005593110
 -15835181.274 7 -12330409.375 8  23305360.555       -1322.832
  -2263105.077 5  -2269541.427 5  26489889.998       -2817.911
    985828.053 6    749943.896 6  24340276.617        2479.149
 -12133565.481 6  -7557361.654 7  23446039.674        2574.428
   5375204.196 5  -1263361.974 5  25465532.527          -5.067
  17981502.122 5  13824081.656 5  25666362.862        3686.239
 -15158897.846 8 -11825430.478 9  22277954.662         935.721
 92 10 20 22 26  0.0050000  0  7 11 25 23 28 12 17 21                0.005602170
 -15874562.582 7 -12361096.099 8  23297866.033       -1302.570
  -2347689.357 5  -2335450.812 5  26473794.430       -2821.121
   1060251.121 6    807935.853 6  24354438.994        2482.332
 -12056080.534 6  -7496983.830 7  23460784.999        2591.227
   5375364.679 5  -1263236.854 5  25465562.550          15.668
  18092193.701 5  13910334.670 5  25687427.757        3692.991
 -15130718.170 8 -11803472.284 9  22283317.169         942.917
 92 10 20 22 26 30.0050000  0  7 11 25 23 28 12 17 21                0.005611250
 -15913341.157 7 -12391313.152 8  23290486.312       -1282.529
  -2432366.306 5  -2401432.496 5  26457680.650       -2823.824
   1134759.550 6    865994.316 6  24368617.827        2484.969
 -11978100.364 6  -7436220.120 7  23475623.834        2607.383
   5376140.208 5  -1262632.454 5  25465710.685          36.077
  18203071.615 5  13996732.876 5  25708525.330        3698.858
 -15102327.669 8 -11781349.822 9  22288719.890         950.061
 92 10 20 22 27  0.0050000  0  7 11 25 23 28 12 17 21                0.005620340
 -15951517.458 7 -12421060.899 8  23283221.721       -1262.430
  -2517112.898 5  -2467468.453 5  26441553.412       -2825.713
   1209354.614 6    924120.314 6  24382812.119        2488.205
 -11899651.275 6  -7375091.014 7  23490551.400        2622.549
   5377529.071 5  -1261550.212 5  25465975.186          56.517
  18314121.476 5  14083265.085 5  25729658.518        3704.608
 -15073715.261 8 -11759054.431 9  22294164.772         957.536
 92 10 20 22 27 30.0050000  0  7 11 25 23 28 12 17 21                0.005629440
 -15989084.725 7 -12450334.071 8  23276072.880       -1242.155
  -2601901.564 5  -2533537.266 5  26425417.534       -2827.116
   1284053.048 6    982326.848 6  24397026.699        2491.591
 -11820754.362 6  -7313612.949 7  23505565.106        2637.133
   5379537.149 5  -1259985.419 5  25466356.955          77.059
  18425345.092 5  14169932.673 5  25750824.008        3710.291
 -15044873.447 8 -11736580.279 9  22299653.062         965.080
 92 10 20 22 28  0.0050000  0  7 11 25 23 28 12 17 21                0.005638550
 -16026044.921 7 -12479134.211 8  23269039.498       -1221.871
  -2686732.989 5  -2599639.405 5  26409273.721       -2828.389
   1358849.454 6   1040609.721 6  24411259.926        2494.716
 -11741421.424 6  -7251795.147 7  23520662.023        2651.686
   5382161.411 5  -1257940.483 5  25466856.158          97.647
  18536731.227 5  14256726.889 5  25772020.673        3715.357
 -15015803.885 8 -11713928.660 9  22305184.612         972.861
 92 10 20 22 28 30.0050000  0  7 11 25 23 28 12 17 21                0.005647670
 -16062396.064 7 -12507459.749 8  23262122.087       -1201.424
  -2771597.006 5  -2665766.967 5  26393124.735       -2829.350
   1433735.087 6   1098962.118 6  24425510.649        2497.759
 -11661654.039 6  -7189638.788 7  23535841.586        2666.228
   5385402.646 5  -1255414.806 5  25467472.496         118.408
  18648268.213 5  14343638.709 5  25793244.697        3720.656
 -14986500.257 8 -11691094.666 9  22310760.983         980.768
 92 10 20 22 29  0.0050000  0  7 11 25 23 28 12 17 21                0.005656800
 -16098132.355 7 -12535306.196 8  23255321.926       -1180.980
  -2856500.499 5  -2731925.332 5  26376967.347       -2831.149
   1508713.017 6   1157386.448 6  24439778.346        2500.622
 -11581457.688 6  -7127148.191 7  23551102.439        2680.392
   5389265.639 6  -1252404.654 5  25468207.785         139.065
  18759974.593 5  14430682.421 5  25814501.804        3726.531
 -14956966.450 8 -11668081.293 9  22316380.901         988.016
 92 10 20 22 29 30.0050000  0  7 11 25 23 28 12 17 21                0.005665940
 -16133248.996 8 -12562669.785 8  23248639.522       -1160.097
  -2941470.482 5  -2798135.544 5  26360797.298       -2833.919
   1583766.311 6   1215869.468 6  24454060.517        2502.945
 -11500823.550 6  -7064316.460 7  23566446.669        2695.359
   5393753.894 6  -1248907.321 5  25469062.157         160.106
  18871864.667 5  14517869.363 5  25835793.232        3732.915
 -14927215.093 8 -11644898.411 9  22322042.093         995.567
 92 10 20 22 30  0.0050000  0  7 11 25 23 28 12 17 21                0.005675060
 -16167742.307 7 -12589547.679 8  23242075.845       -1139.457
  -3026531.033 5  -2864416.348 5  26344609.848       -2836.987
   1658886.195 6   1274404.411 6  24468355.798        2505.011
 -11419738.346 6  -7001133.243 7  23581876.915        2710.144
   5398870.380 6  -1244920.401 5  25470036.411         180.863
  18983944.831 5  14605204.416 5  25857122.703        3739.200
 -14897234.933 8 -11621537.220 9  22327746.913        1003.124
 92 10 20 22 30 30.0050000  0  7 11 25 23 28 12 17 21                0.005684170
 -16201616.299 7 -12615942.973 8  23235629.917       -1118.902
  -3111688.084 5  -2930772.329 5  26328405.266       -2840.341
   1734065.923 6   1332985.992 6  24482662.306        2506.939
 -11338216.468 6  -6937609.759 7  23597389.357        2724.391
   5404609.621 6  -1240448.269 5  25471128.392         201.489
  19096215.516 5  14692687.845 5  25878486.724        3745.489
 -14867029.568 8 -11598000.576 9  22333494.774        1010.370
 92 10 20 22 31  0.0050000  0  7 11 25 23 28 12 17 21                0.005693270
 -16234868.185 7 -12641853.508 8  23229302.508       -1097.892
  -3196949.459 5  -2997209.621 5  26312180.079       -2843.873
   1809308.575 6   1391616.576 6  24496980.655        2509.271
 -11256269.727 6  -6873755.208 7  23612983.091        2738.667
   5410973.412 6  -1235489.494 5  25472340.055         222.624
  19208682.253 5  14780324.097 5  25899888.233        3752.053
 -14836608.352 8 -11574295.708 9  22339283.916        1017.630
 92 10 20 22 31 30.0050000  0  7 11 25 23 28 12 17 21                0.005702360
 -16267488.368 7 -12667271.811 8  23223095.018       -1076.833
  -3282309.336 5  -3063723.704 5  26295935.734       -2846.998
   1884632.427 6   1450310.409 6  24511313.909        2512.465
 -11173887.309 6  -6809561.171 7  23628660.207        2753.373
   5417970.241 6  -1230037.434 5  25473671.531         243.722
  19321335.488 5  14868105.661 5  25921325.419        3758.124
 -14805965.740 8 -11550418.358 9  22345115.327        1025.232
 92 10 20 22 32  0.0050000  0  7 11 25 23 28 12 17 21                0.005711440
 -16299478.152 7 -12692198.896 8  23217007.539       -1055.699
  -3367754.239 5  -3130304.016 5  26279675.443       -2849.387
   1960061.109 6   1509086.012 6  24525667.833        2516.253
 -11091070.366 6  -6745028.563 7  23644420.099        2767.703
   5425597.566 5  -1224094.068 5  25475122.402         264.806
  19434167.924 5  14956026.877 5  25942797.644        3764.138
 -14775096.186 8 -11526364.143 9  22350989.872        1032.734
 92 10 20 22 32 30.0050000  0  7 11 25 23 28 12 17 21                0.005720520
 -16330834.963 7 -12716632.737 8  23211040.440       -1034.512
  -3453271.242 5  -3196940.550 5  26263402.515       -2851.676
   2035606.476 6   1567952.473 6  24540043.083        2520.329
 -11007828.283 6  -6680164.662 7  23660260.195        2781.898
   5433856.808 5  -1217658.289 5  25476693.614         285.967
  19547183.975 5  15044091.101 5  25964305.224        3770.456
 -14744005.846 8 -11502137.904 9  22356906.016        1040.120
